[[{"header":{"parameterUnit":"m.s-1","parameterCategory":1,"la1":30.6,"la2":29.2853,"lo1":-89.7004,"lo2":-87.6739,"dy":0.0162,"dx":0.0183,"nx":112,"ny":82,"refTime":"2023-06-15T00:00:00:Z","depth":0,"parameterNumber":2,"parameterNumberName":"U-component_of_WINDS"},"data":[0.0,0.0,0.0,0.0,0.0,0.0,0.0,0.0,0.0,0.0,0.0,0.0,0.0,0.0,0.0,0.0,0.0,0.0,0.0,0.0,0.0,0.0,0.0,0.0,0.0,0.0,0.0,0.0,0.0,0.0,0.0,0.0,0.0,0.0,0.0,0.0,0.0,0.0,0.0,0.0,0.0,0.0,0.0,0.0,0.0,0.0,0.0,0.0,0.0,0.0,0.0,0.0,0.0,0.0,0.0,0.0,0.0,0.0,0.0,0.0,0.0,0.0,0.0,0.0,0.0,0.0,0.0,0.0,0.0,0.0,0.0,0.0,0.0,0.0,0.0,0.0,0.0,0.0,0.0,0.0,0.0,0.0,0.0,0.0,0.0,0.0,0.0,0.0,0.0,0.0,-5.2222,-5.3234,-5.3177,-5.3396,-5.4311,-5.4042,-5.4229,-5.5149,0.0,0.0,0.0,0.0,0.0,0.0,0.0,0.0,0.0,0.0,0.0,0.0,0.0,0.0,0.0,0.0,0.0,0.0,0.0,0.0,0.0,0.0,0.0,0.0,0.0,0.0,0.0,0.0,0.0,0.0,0.0,0.0,0.0,0.0,0.0,0.0,0.0,0.0,0.0,0.0,0.0,0.0,0.0,0.0,0.0,0.0,0.0,0.0,0.0,0.0,0.0,0.0,0.0,0.0,0.0,0.0,0.0,0.0,0.0,0.0,0.0,0.0,0.0,0.0,0.0,0.0,0.0,0.0,0.0,0.0,0.0,0.0,0.0,0.0,0.0,0.0,0.0,0.0,0.0,0.0,0.0,0.0,0.0,0.0,0.0,0.0,0.0,0.0,0.0,0.0,0.0,0.0,0.0,0.0,0.0,0.0,0.0,0.0,0.0,0.0,0.0,0.0,0.0,0.0,-5.4364,-5.3843,-5.3023,-5.3216,-5.4869,-5.3245,-5.2958,-5.5078,0.0,0.0,0.0,0.0,0.0,0.0,0.0,0.0,0.0,0.0,0.0,0.0,0.0,0.0,0.0,0.0,0.0,0.0,0.0,0.0,0.0,0.0,0.0,0.0,0.0,0.0,0.0,0.0,0.0,0.0,0.0,0.0,0.0,0.0,0.0,0.0,0.0,0.0,0.0,0.0,0.0,0.0,0.0,0.0,0.0,0.0,0.0,0.0,0.0,0.0,0.0,0.0,0.0,0.0,0.0,0.0,0.0,0.0,0.0,0.0,0.0,0.0,0.0,0.0,0.0,0.0,0.0,0.0,0.0,0.0,0.0,0.0,0.0,0.0,0.0,0.0,0.0,0.0,0.0,0.0,0.0,0.0,0.0,0.0,0.0,0.0,0.0,0.0,0.0,0.0,0.0,0.0,0.0,0.0,0.0,0.0,0.0,0.0,0.0,0.0,0.0,0.0,0.0,-5.4439,-5.47,-5.3473,-5.3098,-5.3042,-5.3308,-5.2352,-5.219,-5.3203,-5.3337,0.0,0.0,0.0,0.0,0.0,0.0,0.0,0.0,0.0,0.0,0.0,0.0,0.0,0.0,0.0,0.0,0.0,0.0,0.0,0.0,0.0,0.0,0.0,0.0,0.0,0.0,0.0,0.0,0.0,0.0,0.0,0.0,0.0,0.0,0.0,0.0,0.0,0.0,0.0,0.0,0.0,0.0,0.0,0.0,0.0,0.0,0.0,0.0,0.0,0.0,0.0,0.0,0.0,0.0,0.0,0.0,0.0,0.0,0.0,0.0,0.0,0.0,0.0,0.0,0.0,0.0,0.0,0.0,0.0,0.0,0.0,0.0,0.0,0.0,0.0,0.0,0.0,0.0,0.0,0.0,0.0,0.0,0.0,0.0,0.0,0.0,0.0,0.0,0.0,0.0,0.0,0.0,0.0,0.0,0.0,0.0,0.0,0.0,0.0,0.0,0.0,0.0,-5.521,-5.4522,-5.2717,-5.279,-5.2673,-5.1783,-5.1182,-5.11,-5.1702,-5.1401,0.0,0.0,0.0,0.0,0.0,0.0,0.0,0.0,0.0,0.0,0.0,0.0,0.0,0.0,0.0,0.0,0.0,0.0,0.0,0.0,0.0,0.0,0.0,0.0,0.0,0.0,0.0,0.0,0.0,0.0,0.0,0.0,0.0,0.0,0.0,0.0,0.0,0.0,0.0,0.0,0.0,0.0,0.0,0.0,0.0,0.0,0.0,0.0,0.0,0.0,0.0,0.0,0.0,0.0,0.0,0.0,0.0,0.0,0.0,0.0,0.0,0.0,0.0,0.0,0.0,0.0,0.0,0.0,0.0,0.0,0.0,0.0,0.0,0.0,0.0,0.0,0.0,0.0,0.0,0.0,0.0,0.0,0.0,0.0,0.0,0.0,0.0,0.0,0.0,0.0,0.0,0.0,0.0,0.0,0.0,0.0,0.0,0.0,0.0,0.0,0.0,0.0,-5.5179,-5.4302,-5.2,-5.1821,-5.1811,-5.1674,-4.9729,-4.9388,-5.1565,-5.0629,0.0,0.0,0.0,0.0,0.0,0.0,0.0,0.0,0.0,0.0,0.0,0.0,0.0,0.0,0.0,0.0,0.0,0.0,0.0,0.0,0.0,0.0,0.0,0.0,0.0,0.0,0.0,0.0,0.0,0.0,0.0,0.0,0.0,0.0,0.0,0.0,0.0,0.0,0.0,0.0,0.0,0.0,0.0,0.0,0.0,0.0,0.0,0.0,0.0,0.0,0.0,0.0,0.0,0.0,0.0,0.0,0.0,0.0,0.0,0.0,0.0,0.0,0.0,0.0,0.0,0.0,0.0,0.0,0.0,0.0,0.0,0.0,0.0,0.0,0.0,0.0,0.0,0.0,0.0,0.0,0.0,0.0,0.0,0.0,0.0,0.0,0.0,0.0,0.0,0.0,0.0,0.0,0.0,0.0,0.0,0.0,0.0,0.0,0.0,0.0,0.0,0.0,-5.3899,-5.2683,-5.1821,-5.1043,-5.0322,-4.9559,-4.8726,-4.8579,-4.9445,0.0,0.0,0.0,0.0,0.0,0.0,0.0,0.0,0.0,0.0,0.0,0.0,0.0,0.0,0.0,0.0,0.0,0.0,0.0,0.0,0.0,0.0,0.0,0.0,0.0,0.0,0.0,0.0,0.0,0.0,0.0,0.0,0.0,0.0,0.0,0.0,0.0,0.0,0.0,0.0,0.0,0.0,0.0,0.0,0.0,0.0,0.0,0.0,0.0,0.0,0.0,0.0,0.0,0.0,0.0,0.0,0.0,0.0,0.0,0.0,0.0,0.0,0.0,0.0,0.0,0.0,0.0,0.0,0.0,0.0,0.0,0.0,0.0,0.0,0.0,0.0,0.0,0.0,0.0,0.0,0.0,0.0,0.0,0.0,0.0,0.0,0.0,0.0,0.0,0.0,0.0,0.0,0.0,0.0,0.0,0.0,0.0,0.0,0.0,0.0,0.0,0.0,-5.3202,-5.2219,-5.1409,-5.0657,-5.0185,-4.9418,-4.8289,-4.8172,-4.8172,-4.8172,0.0,0.0,0.0,0.0,0.0,0.0,0.0,0.0,0.0,0.0,0.0,0.0,0.0,0.0,0.0,0.0,0.0,0.0,0.0,0.0,0.0,0.0,0.0,0.0,0.0,0.0,0.0,0.0,0.0,0.0,0.0,0.0,0.0,0.0,0.0,0.0,0.0,0.0,0.0,0.0,0.0,0.0,0.0,0.0,0.0,0.0,0.0,0.0,0.0,0.0,0.0,0.0,0.0,0.0,0.0,0.0,0.0,0.0,0.0,0.0,0.0,0.0,0.0,0.0,0.0,0.0,0.0,0.0,0.0,0.0,0.0,0.0,0.0,0.0,0.0,0.0,0.0,0.0,0.0,0.0,0.0,0.0,0.0,0.0,0.0,0.0,0.0,0.0,0.0,0.0,0.0,0.0,0.0,0.0,0.0,0.0,0.0,0.0,0.0,0.0,0.0,0.0,-4.8816,-5.023,-5.0795,-4.8498,-4.9209,-4.9418,-4.8289,-4.8172,-4.8172,0.0,0.0,0.0,0.0,0.0,0.0,0.0,0.0,0.0,0.0,0.0,0.0,0.0,0.0,0.0,0.0,0.0,0.0,0.0,0.0,0.0,0.0,0.0,0.0,0.0,0.0,0.0,0.0,0.0,0.0,0.0,0.0,0.0,0.0,0.0,0.0,0.0,0.0,0.0,0.0,0.0,0.0,0.0,0.0,0.0,0.0,0.0,0.0,0.0,0.0,0.0,0.0,0.0,0.0,0.0,0.0,0.0,0.0,0.0,0.0,0.0,0.0,0.0,0.0,0.0,0.0,0.0,0.0,0.0,0.0,0.0,0.0,0.0,0.0,0.0,0.0,0.0,0.0,0.0,0.0,0.0,0.0,0.0,0.0,0.0,0.0,0.0,0.0,0.0,0.0,0.0,0.0,0.0,0.0,0.0,0.0,0.0,0.0,0.0,0.0,0.0,0.0,0.0,-4.8816,-4.8818,-4.9245,-4.9376,-4.8996,-4.8553,-4.823,-4.8172,-4.8355,-4.8799,0.0,0.0,0.0,0.0,0.0,0.0,0.0,0.0,0.0,0.0,0.0,0.0,0.0,0.0,0.0,0.0,0.0,0.0,0.0,0.0,0.0,0.0,0.0,0.0,0.0,0.0,0.0,0.0,0.0,0.0,0.0,0.0,0.0,0.0,0.0,0.0,0.0,0.0,0.0,0.0,0.0,0.0,0.0,0.0,0.0,0.0,0.0,0.0,0.0,0.0,0.0,0.0,0.0,0.0,0.0,0.0,0.0,0.0,0.0,0.0,0.0,0.0,0.0,0.0,0.0,0.0,0.0,0.0,0.0,0.0,0.0,0.0,0.0,0.0,0.0,0.0,0.0,0.0,0.0,0.0,0.0,0.0,0.0,0.0,0.0,0.0,0.0,0.0,0.0,0.0,0.0,0.0,0.0,0.0,0.0,0.0,0.0,0.0,0.0,0.0,0.0,0.0,-4.8816,-4.861,-4.9037,-4.9565,-4.9165,-4.8878,-4.8878,-4.8878,-4.9008,-4.9374,0.0,0.0,0.0,0.0,0.0,0.0,0.0,0.0,0.0,0.0,0.0,0.0,0.0,0.0,0.0,0.0,0.0,0.0,0.0,0.0,0.0,0.0,0.0,0.0,0.0,0.0,0.0,0.0,0.0,0.0,0.0,0.0,0.0,0.0,0.0,0.0,0.0,0.0,0.0,0.0,0.0,0.0,0.0,0.0,0.0,0.0,0.0,0.0,0.0,0.0,0.0,0.0,0.0,0.0,0.0,0.0,0.0,0.0,0.0,0.0,0.0,0.0,0.0,0.0,0.0,0.0,0.0,0.0,0.0,0.0,0.0,0.0,0.0,0.0,0.0,0.0,0.0,0.0,0.0,0.0,0.0,0.0,0.0,0.0,0.0,0.0,0.0,0.0,0.0,0.0,0.0,0.0,0.0,0.0,0.0,0.0,0.0,0.0,0.0,0.0,0.0,0.0,-4.8879,-4.9287,-4.9699,-4.9251,-4.9584,-4.9897,-4.9897,-4.9897,-4.9923,-4.9976,0.0,0.0,0.0,0.0,0.0,0.0,0.0,0.0,0.0,0.0,0.0,0.0,0.0,0.0,0.0,0.0,0.0,0.0,0.0,0.0,0.0,0.0,0.0,0.0,0.0,0.0,0.0,0.0,0.0,0.0,0.0,0.0,0.0,0.0,0.0,0.0,0.0,0.0,0.0,0.0,0.0,0.0,0.0,0.0,0.0,0.0,0.0,0.0,0.0,0.0,0.0,0.0,0.0,0.0,0.0,0.0,0.0,0.0,0.0,0.0,-5.0381,0.0,0.0,0.0,0.0,0.0,0.0,0.0,0.0,0.0,0.0,0.0,0.0,0.0,0.0,0.0,0.0,0.0,0.0,0.0,0.0,0.0,0.0,0.0,0.0,0.0,0.0,0.0,0.0,0.0,0.0,0.0,0.0,0.0,0.0,0.0,0.0,0.0,0.0,0.0,0.0,0.0,-4.9556,-4.9739,-4.9827,-4.9714,-4.9819,-4.9897,-4.9897,-4.9897,-5.0106,-5.0577,-5.0331,0.0,0.0,0.0,0.0,0.0,0.0,0.0,0.0,0.0,0.0,0.0,0.0,0.0,0.0,0.0,0.0,0.0,0.0,0.0,0.0,0.0,0.0,0.0,0.0,0.0,0.0,0.0,0.0,0.0,0.0,0.0,0.0,0.0,0.0,0.0,0.0,0.0,0.0,0.0,0.0,0.0,0.0,0.0,0.0,0.0,0.0,0.0,0.0,0.0,0.0,0.0,0.0,0.0,0.0,0.0,0.0,0.0,0.0,0.0,0.0,-5.0322,0.0,0.0,0.0,0.0,0.0,0.0,0.0,0.0,0.0,0.0,0.0,0.0,0.0,0.0,0.0,0.0,0.0,0.0,0.0,0.0,0.0,0.0,0.0,0.0,0.0,0.0,0.0,0.0,0.0,0.0,0.0,0.0,0.0,0.0,0.0,0.0,0.0,0.0,0.0,0.0,-5.0649,-5.0756,-5.0629,-5.0342,-5.0551,-5.0707,-5.0707,-5.0707,-5.0777,-5.0929,-5.0805,0.0,0.0,0.0,0.0,0.0,0.0,0.0,0.0,0.0,0.0,0.0,0.0,0.0,0.0,0.0,0.0,0.0,0.0,0.0,0.0,0.0,0.0,0.0,0.0,0.0,0.0,0.0,0.0,0.0,0.0,0.0,0.0,0.0,0.0,0.0,0.0,0.0,0.0,0.0,0.0,0.0,0.0,0.0,0.0,0.0,0.0,0.0,0.0,0.0,0.0,0.0,0.0,0.0,-4.8172,-4.8172,-4.823,-4.916,-4.9103,-4.8172,-4.8405,-4.916,-5.0294,-5.1511,0.0,0.0,0.0,0.0,0.0,0.0,0.0,0.0,0.0,0.0,0.0,0.0,0.0,0.0,0.0,0.0,0.0,0.0,0.0,0.0,0.0,0.0,0.0,0.0,-5.6346,-5.6196,0.0,0.0,0.0,0.0,0.0,0.0,0.0,0.0,0.0,0.0,0.0,0.0,-5.1595,-5.1601,-5.1399,-5.1004,-5.1335,-5.1596,-5.1596,-5.1596,-5.1471,-5.112,-5.1057,-5.0867,0.0,0.0,0.0,0.0,0.0,0.0,0.0,0.0,0.0,0.0,0.0,0.0,0.0,0.0,0.0,0.0,0.0,0.0,0.0,0.0,0.0,0.0,0.0,0.0,0.0,0.0,0.0,0.0,0.0,0.0,0.0,0.0,-4.5689,-4.6186,0.0,0.0,0.0,0.0,0.0,0.0,0.0,0.0,0.0,0.0,0.0,0.0,0.0,-4.8068,-4.8068,-4.8146,-4.8172,-4.8172,-4.8172,-4.8172,-4.8172,-4.8347,-4.8347,-4.823,-4.9274,0.0,-5.1565,-5.2697,0.0,0.0,0.0,0.0,0.0,0.0,0.0,0.0,0.0,0.0,0.0,0.0,0.0,0.0,0.0,0.0,0.0,0.0,0.0,0.0,0.0,0.0,-5.6855,-5.6944,-5.6974,-5.6944,0.0,-5.6855,-5.6541,-5.5591,-5.5405,0.0,0.0,0.0,0.0,0.0,0.0,0.0,-5.1574,-5.158,-5.158,-5.1492,-5.1544,-5.1596,-5.1596,-5.1596,-5.1471,-5.112,-5.0867,-5.0652,-5.0588,-4.99,0.0,0.0,0.0,0.0,0.0,0.0,0.0,0.0,0.0,0.0,0.0,0.0,0.0,0.0,0.0,0.0,0.0,0.0,0.0,0.0,0.0,0.0,0.0,0.0,0.0,0.0,0.0,0.0,0.0,-4.5741,-4.6186,-4.6447,-4.6473,-4.6473,0.0,0.0,0.0,0.0,0.0,0.0,0.0,0.0,0.0,-4.8172,-4.8172,-4.8172,-4.8172,-4.8172,-4.8172,-4.8172,-4.8172,-4.8553,-4.916,-4.8521,-4.8899,-5.021,-5.0685,-5.1565,-5.2697,-5.3203,-5.3675,-5.4252,0.0,0.0,0.0,0.0,-5.5179,-5.5179,-5.5179,-5.5179,0.0,-5.5628,0.0,0.0,0.0,0.0,0.0,0.0,0.0,0.0,0.0,0.0,-5.7184,-5.7573,-5.7663,-5.7594,-5.7193,-5.7689,-5.7791,0.0,-5.5881,-5.5887,-5.6097,0.0,0.0,0.0,0.0,-5.1626,-5.158,-5.1596,-5.1596,-5.1596,-5.1596,-5.1596,-5.1596,-5.1596,-5.1346,-5.0842,-5.0652,-5.0397,-5.004,-4.9783,-4.9403,0.0,0.0,0.0,0.0,0.0,0.0,0.0,0.0,0.0,0.0,0.0,0.0,0.0,0.0,0.0,0.0,0.0,0.0,0.0,0.0,0.0,0.0,0.0,0.0,0.0,0.0,0.0,0.0,-4.6421,-4.6761,-4.6891,-4.6917,-4.6917,0.0,0.0,0.0,0.0,0.0,0.0,-4.8172,-4.8172,-4.8172,-4.8172,-4.8172,-4.8172,-4.8172,-4.8172,-4.8172,-4.8172,-4.8172,-4.8784,-4.9845,-4.8988,-4.9759,-5.1729,-5.2,-5.2591,-5.3413,-5.3756,-5.386,-5.3964,-5.4845,-5.5179,-5.5209,-5.5388,-5.5448,-5.5478,-5.5628,-5.5688,-5.5748,-5.6256,0.0,-5.6765,-5.7214,0.0,0.0,0.0,0.0,-5.7603,-5.7603,-5.7603,-5.7752,-5.8261,-5.8381,-5.8202,-5.7798,-5.8166,-5.8018,0.0,-5.5849,-5.5735,-5.46,0.0,0.0,0.0,0.0,-5.1628,-5.1606,-5.1596,-5.1596,-5.1596,-5.1596,-5.1596,-5.1471,-5.1471,-5.1157,-5.055,-5.0487,-5.0232,-4.959,-4.959,-4.9414,-4.8987,0.0,0.0,0.0,0.0,0.0,0.0,0.0,0.0,0.0,0.0,0.0,0.0,0.0,0.0,0.0,0.0,0.0,0.0,0.0,0.0,0.0,0.0,0.0,0.0,0.0,0.0,0.0,0.0,0.0,-4.8041,-4.8094,0.0,0.0,0.0,0.0,-4.8146,-4.8146,-4.8146,-4.8172,-4.8172,-4.8172,-4.8172,-4.8172,-4.8172,-4.8172,-4.8172,-4.8172,-4.8172,-4.8172,-4.8784,-4.9901,-4.9845,-5.0518,-5.1729,-5.2804,-5.3361,-5.3466,-5.4641,-5.5128,-5.5128,-5.5179,-5.5179,-5.5269,-5.5897,-5.6188,-5.6248,-5.6795,-5.7004,-5.7004,-5.7034,-5.7483,-5.8022,-5.8052,-5.8501,0.0,0.0,-5.9009,-5.9009,-5.9009,-5.9009,-5.9009,-5.9039,-5.9069,-5.9069,-5.9045,-5.8081,-5.6565,0.0,-5.4651,-5.4692,-5.2191,0.0,-5.4669,-5.199,-5.1584,-5.1632,-5.1596,-5.1596,-5.1596,-5.1596,-5.1596,-5.1471,-5.1183,-5.112,-5.0867,-5.0193,-5.0129,-4.9976,-4.959,-4.959,-4.959,-4.9565,-4.9038,0.0,0.0,0.0,0.0,0.0,0.0,0.0,0.0,0.0,0.0,0.0,0.0,0.0,0.0,0.0,0.0,0.0,0.0,0.0,0.0,0.0,0.0,0.0,0.0,0.0,0.0,0.0,0.0,-4.8146,-4.8172,0.0,-4.8172,-4.8172,-4.8172,-4.8172,-4.8172,-4.8172,-4.8172,-4.8172,-4.8172,-4.8172,-4.8172,-4.8172,-4.8172,-4.8172,-4.8172,-4.8172,-4.893,-4.9928,-5.1072,-5.1072,-5.2108,-5.3942,-5.4007,-5.4475,-5.5293,-5.6072,-5.6166,-5.5807,-5.5807,-5.6077,-5.6436,-5.6675,-5.6765,-5.6795,-5.7004,-5.7094,-5.7154,-5.7603,-5.8201,-5.874,-5.874,-5.8919,-5.9099,-5.9099,-5.9099,-5.9099,-5.9099,-5.9099,-5.9099,-5.9099,-5.9099,-5.8882,-5.8026,-5.8166,-5.7499,-5.4488,-5.4216,-5.3937,-5.1944,-5.2324,-5.2669,-5.1729,-5.161,-5.1596,-5.1596,-5.1596,-5.1596,-5.1596,-5.1596,-5.1534,-5.1408,-5.1246,-5.0931,-5.0487,-5.0232,-4.9912,-4.959,-4.959,-4.959,-4.959,-4.9414,-4.9113,0.0,0.0,0.0,0.0,0.0,0.0,0.0,0.0,0.0,0.0,0.0,0.0,0.0,0.0,0.0,0.0,0.0,0.0,0.0,0.0,0.0,0.0,0.0,0.0,0.0,0.0,-4.8172,-4.8172,-4.8172,-4.8172,-4.8172,-4.8172,-4.8172,-4.8172,-4.8172,-4.8172,-4.8172,-4.8172,-4.8172,-4.8172,-4.8172,-4.8172,-4.8172,-4.8172,-4.8172,-4.8172,-4.9388,-5.0628,-5.2066,-5.242,-5.3796,-5.5786,-5.5499,-5.5729,-5.6526,-5.6915,-5.7004,-5.6795,-5.6585,-5.6735,-5.7124,-5.7363,-5.7453,-5.7483,-5.7693,-5.7782,-5.7842,-5.8291,-5.874,-5.9099,-5.9099,-5.9099,-5.9099,-5.9099,-5.9099,-5.9099,-5.9099,-5.9099,-5.9099,-5.9099,-5.8743,-5.8221,-5.7384,-5.7216,-5.6938,-5.5977,-5.5308,-5.4216,-5.1995,-5.1619,-5.1564,-5.1601,-5.1583,-5.1596,-5.1596,-5.1596,-5.1534,-5.1408,-5.1408,-5.1346,-5.1094,-5.0994,-5.0741,-5.0295,-5.0168,-4.9912,-4.959,-4.959,-4.959,-4.959,-4.959,-4.9314,-4.8761,0.0,0.0,0.0,0.0,0.0,0.0,0.0,0.0,0.0,0.0,0.0,0.0,0.0,0.0,0.0,0.0,0.0,0.0,0.0,0.0,0.0,0.0,0.0,-4.8172,-4.8172,-4.8172,-4.8172,-4.8172,-4.8172,-4.8172,-4.8198,-4.8224,-4.8224,-4.8224,-4.8224,-4.8224,-4.8198,-4.8172,-4.8172,-4.8172,-4.8172,-4.8172,-4.8172,-4.8257,-4.8315,-4.9445,-5.0987,-5.2796,-5.3942,-5.5442,-5.7094,-5.7124,-5.7124,-5.7124,-5.7154,-5.7543,-5.8082,-5.7393,-5.7124,-5.7244,-5.7902,-5.8141,-5.8231,-5.889,-5.9099,-5.9099,-5.9099,-5.9099,-5.9099,-5.9099,-5.9099,-5.9099,-5.9099,-5.9099,-5.9099,-5.9099,-5.9045,-5.9045,-5.9099,-5.8136,-5.7216,-5.7216,-5.5383,-5.4721,-5.837,-5.7727,-5.5535,-5.2209,-5.1596,-5.1596,-5.1596,-5.1596,0.0,-5.1596,-5.1596,-5.1471,-5.1183,-5.112,-5.0804,-5.0193,-5.0423,-5.0295,-4.9654,-4.9912,-4.9937,-4.959,-4.959,-4.959,-4.959,-4.959,-4.9314,-4.8761,0.0,0.0,0.0,0.0,0.0,0.0,0.0,0.0,0.0,0.0,0.0,0.0,0.0,0.0,0.0,0.0,0.0,0.0,0.0,0.0,0.0,0.0,-4.8172,-4.8172,-4.8172,-4.8172,-4.8172,-4.8172,-4.8172,-4.8172,-4.859,-4.8826,-4.8826,-4.8826,-4.8826,-4.8826,-4.8433,-4.8172,-4.8172,-4.8172,-4.8172,-4.8172,-4.8172,-4.888,-5.0178,-5.1346,-5.2907,-5.4688,-5.5848,-5.6653,-5.7124,-5.7633,-5.7842,-5.7872,-5.8351,-5.865,-5.877,-5.8112,-5.8141,-5.856,-5.877,-5.883,-5.886,-5.9039,-5.9099,-5.9099,-5.9099,-5.9099,-5.9099,-5.9099,-5.9099,-5.9099,-5.9099,-5.9099,-5.9099,-5.9099,-5.8386,-5.797,-5.8882,-5.8136,-5.7445,-5.8363,-5.8056,-5.7859,-5.8905,-5.7302,-5.4891,-5.2111,-5.1596,-5.1596,-5.1596,-5.1596,0.0,-5.1596,-5.1596,-5.1534,-5.1471,-5.1246,-5.0994,-5.0867,-5.0487,-5.0168,-4.9976,-4.9783,-4.9719,-4.959,-4.959,-4.959,-4.959,-4.959,-4.9314,0.0,0.0,0.0,0.0,0.0,0.0,0.0,0.0,0.0,0.0,0.0,0.0,0.0,0.0,0.0,0.0,0.0,0.0,0.0,0.0,0.0,0.0,-4.8407,-4.8564,-4.8564,-4.8355,-4.8277,-4.8538,-4.8564,-4.8564,-4.8564,-4.8878,-4.8982,-4.8721,-4.8695,-4.8695,-4.8695,-4.8381,-4.8172,-4.8172,-4.8172,-4.8303,-4.8564,-4.8564,-4.9238,-5.0505,-5.2207,-5.3696,-5.5045,-5.674,-5.7663,0.0,-5.8351,-5.853,-5.856,-5.8949,-5.9099,0.0,0.0,0.0,0.0,0.0,-5.9099,-5.9099,-5.9099,-5.9099,-5.9099,-5.9099,-5.9099,-5.9099,-5.9099,-5.9099,-5.9099,-5.9099,-5.9099,-5.9099,-5.9099,-5.8136,-5.7384,-5.8136,-5.6934,-5.5875,-5.6822,-5.6443,-5.5964,-5.5933,-5.476,0.0,-5.1836,-5.1596,-5.1596,-5.1596,-5.1471,-5.1408,-5.1408,-5.1283,-5.1094,-5.0994,-5.0804,-5.0614,-5.0487,-5.0232,0.0,0.0,0.0,-4.9719,-4.959,-4.959,0.0,0.0,0.0,-4.9439,-4.9113,0.0,0.0,0.0,-4.7431,-4.7004,0.0,0.0,0.0,0.0,0.0,0.0,0.0,0.0,0.0,0.0,0.0,0.0,0.0,0.0,0.0,0.0,-4.8826,-4.9165,-4.9087,-4.8616,-4.8486,-4.9035,-4.9087,-4.9061,-4.8982,-4.9035,-4.8852,-4.8329,-4.8277,-4.8277,-4.8277,0.0,0.0,0.0,0.0,-4.8564,-4.9165,-4.9165,-4.9606,-5.0432,-5.2586,-5.4121,-5.5112,-5.7256,-5.856,-5.9099,-5.9099,-5.9099,-5.9099,-5.9099,-5.9099,-5.9099,-5.9099,-5.9099,-5.9099,-5.9099,-5.9099,0.0,0.0,0.0,0.0,-5.9099,-5.9099,-5.9099,-5.9099,-5.9099,-5.9099,-5.9099,-5.8991,-5.8882,-5.8882,-5.786,-5.6792,-5.6962,-5.518,-5.3625,-5.4112,-5.3083,-5.1898,-5.1481,-5.1419,-5.1534,-5.1549,-5.1586,-5.1596,-5.1534,-5.1309,-5.112,-5.1057,-5.0778,-5.0487,-5.0168,0.0,0.0,-4.9654,-4.9912,-4.9937,-4.959,-4.9847,-4.9912,-4.959,-4.959,-4.959,-4.959,-4.959,-4.959,-4.959,-4.959,-4.9339,-4.8862,-4.8284,-4.7732,0.0,0.0,0.0,0.0,0.0,0.0,0.0,0.0,0.0,0.0,0.0,0.0,0.0,0.0,0.0,-4.9557,-4.9662,-4.9584,-4.9139,-4.8982,-4.8956,-4.9061,-4.9087,-4.8904,-4.8407,-4.8799,-4.9035,-4.893,-4.8904,-4.8904,-4.8904,-4.8433,-4.8407,-4.8904,-4.8904,-4.9165,-4.974,-4.974,-5.1056,-5.3627,0.0,0.0,-5.8208,-5.8673,-5.8979,-5.9099,-5.9099,-5.9099,-5.9099,-5.9099,-5.9099,-5.9099,-5.9099,-5.9099,-5.9099,-5.9099,-5.9099,-5.9099,-5.9099,-5.9099,-5.9099,-5.9099,-5.9099,-5.9099,-5.9099,-5.9099,0.0,-5.9099,-5.8386,-5.7552,-5.7552,-5.5877,-5.4501,-5.55,-5.4619,-5.3827,-5.4919,-5.488,-5.3754,-5.0607,-5.0407,-5.0931,-5.137,-5.1531,-5.1471,-5.1131,-5.1094,-5.0994,-5.0715,-5.0652,-5.0588,-5.055,-5.0232,-5.0065,-5.0001,-4.9783,-4.9654,-4.959,-4.9654,-4.9654,-4.959,-4.959,-4.959,-4.959,-4.959,-4.959,-4.959,-4.959,-4.954,-4.9414,-4.8862,-4.8309,0.0,0.0,0.0,0.0,0.0,0.0,0.0,0.0,0.0,0.0,0.0,-4.9479,-4.9479,0.0,-4.9401,-4.9087,-4.9296,-4.9401,-4.9113,-4.9322,-4.9401,-4.9113,-4.9087,-4.8956,-4.8669,-4.8904,-4.8956,-4.8643,-4.8904,-4.9087,-4.9087,-4.9061,-4.9165,-4.9479,-4.9479,-4.9766,-5.0342,-5.0342,-5.161,-5.4031,-5.4616,-5.6051,-5.8166,-5.8798,-5.9099,-5.9099,-5.9099,-5.9099,-5.9099,-5.9099,-5.9099,-5.9099,-5.9099,-5.9099,-5.9099,-5.9099,-5.9099,-5.9099,-5.9099,-5.9099,-5.9099,-5.9099,-5.9099,-5.9099,-5.9099,-5.9099,-5.8991,-5.8331,-5.7664,-5.7075,-5.648,-5.5137,-5.4093,-5.4759,-5.4012,-5.32,-5.3422,-5.3681,-5.3339,-5.1589,-5.1396,-5.164,-5.1935,-5.1988,-5.191,-5.1717,-5.1524,-5.1395,-5.1201,-5.0817,-5.051,-5.051,-5.0088,-4.9847,-4.9847,-4.9719,-4.959,-4.959,-4.959,-4.959,-4.959,-4.959,-4.959,-4.959,-4.959,-4.959,-4.959,-4.959,-4.959,-4.959,-4.9314,-4.8887,0.0,0.0,0.0,0.0,0.0,0.0,0.0,-4.9819,-4.9766,-4.9871,-4.9819,-4.9636,-4.9296,-4.9244,-4.9087,-4.859,-4.893,-4.9191,-4.9087,-4.9453,-4.9557,-4.9139,-4.9087,-4.9087,-4.9087,-4.9087,-4.893,-4.8538,-4.8956,-4.9244,-4.9244,-4.9662,-4.9949,-5.0054,-5.0054,-5.0342,-5.0943,-5.0943,-5.1803,-5.351,-5.4797,-5.6021,-5.7243,-5.8495,-5.9099,-5.9099,-5.9099,-5.9099,-5.9099,-5.9099,-5.9099,-5.9099,-5.9099,-5.9099,-5.9099,-5.9099,-5.9099,-5.9099,-5.9099,-5.9099,-5.9099,-5.9099,-5.9099,-5.9045,-5.8798,-5.8743,-5.847,-5.7361,-5.6852,-5.6451,-5.5603,-5.4764,-5.41,-5.41,-5.3387,-5.244,-5.1739,-5.1972,-5.2425,-5.2825,-5.2616,-5.2368,-5.2404,-5.2312,-5.2236,-5.2199,-5.1976,-5.1778,-5.1712,-5.1069,-5.0569,-5.0569,-5.0193,-4.9866,-4.9766,-4.9766,-4.9715,-4.9615,-4.959,-4.959,-4.959,-4.959,-4.959,-4.959,-4.959,-4.959,-4.959,-4.959,-4.959,-4.959,-4.959,-4.9364,-4.9837,-4.9897,-4.9897,-4.9897,-4.9897,-4.9897,0.0,-4.9531,-4.9296,-4.9793,-4.9505,-4.9296,-4.9714,-4.9793,-4.9766,-4.9714,-4.9766,-4.9636,-4.9165,-4.9139,-4.9165,-4.9087,-4.9087,-4.9087,-4.9087,-4.9087,-4.9244,-4.9662,-4.9766,-4.9793,-4.9793,-4.9845,-5.0132,-5.0681,-5.0681,-5.0943,-5.1492,-5.1518,-5.2201,-5.351,-5.4797,-5.6021,-5.7243,-5.8495,-5.9099,-5.9099,-5.9099,-5.9099,-5.9099,-5.9099,-5.9099,-5.9099,-5.9099,-5.9099,-5.9099,-5.9099,-5.9099,-5.9099,-5.9099,-5.9099,-5.9099,-5.9099,-5.9099,-5.8882,-5.7749,-5.744,-5.7276,-5.653,-5.5543,-5.4801,-5.5134,-5.4097,-5.2958,-5.2958,-5.2595,-5.2046,-5.1696,-5.1955,-5.2448,-5.2822,-5.2312,-5.1956,-5.2127,-5.2161,-5.2026,-5.1854,-5.1844,-5.1712,-5.1405,-5.1289,-5.1197,-5.1197,-5.1122,-5.0896,-5.0368,-5.0318,-5.0117,-4.9615,-4.959,-4.959,-4.959,-4.959,-4.959,-4.959,-4.959,-4.959,-4.959,-4.959,-4.959,-4.959,-4.959,-4.9565,-5.0829,-5.089,-5.0812,-5.0498,-5.042,-5.0315,-4.9976,-4.9714,-4.961,-4.9845,-4.9714,-4.9531,-4.9427,-4.9427,-4.9296,0.0,-4.8904,-4.893,-4.9061,-4.9087,-4.9191,-4.9505,-4.9557,-4.9557,-4.9557,-4.9557,-4.9636,-4.9871,-5.0211,-5.042,-5.042,-5.0707,-5.0995,-5.1256,-5.1256,-5.1361,-5.1596,-5.1596,-5.2253,-5.351,-5.4797,-5.6021,-5.7243,-5.8495,-5.9099,-5.9099,-5.9099,-5.9099,-5.9099,-5.9099,-5.9099,-5.9099,-5.9099,-5.9099,-5.9099,-5.9099,-5.9099,-5.9099,-5.9099,-5.9099,-5.9159,-5.9548,-5.9668,-5.9508,-5.8574,-5.8319,-5.7916,-5.6131,-5.5142,-5.4477,-5.3922,-5.3453,-5.3016,-5.3016,-5.3443,-5.3685,-5.3129,-5.2826,-5.2691,-5.2852,-5.2641,-5.2438,-5.2553,-5.2578,-5.2571,-5.2455,-5.243,-5.2362,-5.2251,-5.195,-5.1649,-5.1322,-5.1272,-5.1197,-5.0946,-5.0921,-5.067,-5.0117,-5.0067,-4.9941,-4.9615,-4.959,-4.959,-4.959,-4.959,-4.959,-4.959,-4.959,-4.959,-4.959,-4.959,-4.959,-5.1413,-5.1361,-5.123,-5.0681,-5.0551,-5.042,-5.0002,-4.9766,-4.9662,-4.9662,-4.9531,-4.9296,-4.8904,-4.8826,-4.8695,-4.825,-4.8329,-4.859,-4.9035,-4.9218,-4.9505,-5.008,-5.0132,-5.0211,-5.0342,-5.0237,-5.0211,-5.0342,-5.076,-5.1021,-5.1021,-5.1387,-5.1596,-5.1596,-5.1596,-5.1596,-5.1596,-5.1596,-5.2068,-5.3025,-5.4619,-5.5848,-5.6764,-5.8386,-5.9099,-5.9099,-5.9099,-5.9099,-5.9099,-5.9099,-5.9099,-5.9129,-5.9308,-5.9368,-5.9398,-5.9578,-5.9548,-5.9398,-5.9608,-5.9668,-5.9727,-6.0206,-6.0134,-5.9661,-5.8813,-5.8312,-5.7598,-5.5527,-5.4661,-5.4266,-5.3478,-5.3299,-5.3324,-5.3417,-5.3987,-5.4372,-5.3792,-5.3247,-5.2916,-5.2904,-5.2929,-5.2929,-5.2929,-5.2929,-5.2929,-5.2929,-5.2929,-5.2929,-5.2929,-5.2578,-5.2176,-5.1774,-5.1724,-5.1674,-5.1523,-5.1498,-5.1272,-5.0695,-5.067,-5.0419,-4.9841,-4.9816,-4.9741,-4.959,-4.959,-4.959,-4.959,-4.959,-4.959,-4.959,-4.959,-4.959,-5.0969,-5.0812,-5.0681,-5.008,-4.9923,-4.9923,-4.9897,-4.9479,-4.9113,-4.9113,-4.8643,-4.8224,-4.8224,-4.8224,-4.8198,-4.8172,-4.8669,-4.9061,-4.9087,-4.9531,-5.008,-5.0681,-5.076,-5.0969,0.0,-5.1073,-5.0969,-5.1518,-5.157,-5.157,-5.157,-5.1596,-5.1596,-5.1596,-5.1596,-5.1596,-5.1596,-5.1596,-5.1596,-5.1721,-5.4204,-5.5412,-5.5528,-5.8,-5.9099,-5.9099,-5.9099,-5.9099,-5.9099,-5.9099,-5.9099,-5.9159,-5.9817,-6.0057,-6.0146,-6.0805,-6.0625,-6.0146,-6.0835,-6.1044,-6.1044,-6.1074,-6.0168,-5.887,-5.7658,-5.636,-5.5159,-5.4457,-5.3987,-5.3852,-5.4304,-5.4039,-5.3665,-5.3904,-5.3442,-5.2929,-5.2929,-5.2929,-5.2929,-5.2929,-5.2929,-5.2929,-5.2929,-5.2929,-5.2929,-5.2929,-5.2929,-5.2929,-5.2929,-5.2904,-5.2904,-5.2879,-5.2879,-5.2653,-5.2126,-5.2076,-5.185,-5.1297,-5.1247,-5.0996,-5.0419,-5.0393,-5.0142,-4.9615,-4.959,-4.959,-4.959,-4.959,-4.959,-4.959,-4.959,-4.959,-5.0342,-5.0185,-5.0054,-4.9505,-4.9348,-4.9244,-4.8852,-4.8616,-4.8486,-4.8486,-4.8329,-4.8172,-4.8172,-4.8172,-4.8329,-4.8721,-4.8956,-4.9348,-5.0106,-5.0368,-5.0707,-5.1256,-5.1335,0.0,0.0,0.0,0.0,-5.157,-5.1596,-5.1596,-5.1596,-5.1596,-5.1596,-5.1596,-5.1596,-5.1596,-5.1596,-5.1596,-5.1596,-5.1596,-5.3329,-5.5032,-5.6622,-5.744,-5.8331,-5.9099,-5.9099,-5.9099,-5.9129,-5.9578,-5.9757,-5.9817,-6.0505,-6.0775,-6.0835,-6.1523,-6.1613,-6.1403,-6.1194,-6.0511,-5.9999,-6.13,-6.0238,-5.8459,-5.8457,-5.7327,-5.5854,-5.4747,-5.3984,-5.3631,-5.381,-5.3478,-5.3161,-5.3255,-5.3092,-5.2929,-5.2929,-5.2929,-5.2929,-5.2929,-5.2929,-5.2929,-5.2929,-5.2929,-5.2929,-5.2929,-5.2929,-5.2929,-5.2929,-5.2929,-5.2929,-5.2929,-5.2929,-5.2854,-5.2678,-5.2653,-5.2427,-5.1875,-5.1825,-5.1574,-5.1021,-5.0619,-5.0318,-5.0142,-4.9791,-4.959,-4.959,-4.959,-4.959,-4.959,-4.959,-4.959,-4.9766,-4.961,-4.9479,-4.8904,-4.8773,-4.8669,-4.8277,-4.8172,-4.8172,-4.8172,-4.8172,-4.825,-4.846,-4.8512,-4.8695,-4.927,-4.9557,-4.9949,-5.0681,-5.0969,-5.1204,-5.1544,-5.1596,-5.1596,0.0,0.0,0.0,-5.1596,-5.1596,-5.1596,-5.1596,-5.1596,-5.1596,-5.1596,-5.1596,-5.1596,-5.1596,-5.1596,-5.1846,-5.2315,-5.3086,-5.4769,-5.7187,-5.7187,-5.8033,-5.9458,-5.9458,-5.9608,-5.9847,-6.0266,-6.0446,-6.0505,-6.1194,-6.1463,-6.1553,-6.2211,-6.245,-6.2391,-6.1972,-6.0964,-6.0033,-6.1174,-5.9692,-5.7598,-5.7922,-5.6909,-5.5459,-5.4552,-5.3929,-5.3478,-5.3478,-5.3204,-5.2929,-5.2929,-5.2929,-5.2929,-5.2929,-5.2929,-5.2929,-5.2929,-5.2929,-5.2929,-5.2929,-5.2929,-5.2929,-5.2929,-5.2929,-5.2929,-5.2929,-5.2929,-5.2929,-5.2929,-5.2929,-5.2929,-5.2929,-5.2929,-5.2779,-5.2427,-5.2402,-5.2151,-5.1599,-5.1222,-5.0921,-5.072,-5.0167,-4.9891,-4.9891,-4.969,-4.959,-4.959,-4.959,-4.959,-4.9132,-4.9035,-4.8904,-4.8329,-4.8172,-4.8172,-4.8172,-4.8198,-4.8224,-4.8198,-4.8224,-4.8433,-4.8982,-4.9113,-4.9296,-4.9845,-5.042,-5.0812,-5.0838,-5.1282,-5.1596,-5.1596,-5.1596,-5.1596,-5.1596,-5.1596,0.0,-5.1596,0.0,-5.1596,-5.1596,-5.1596,-5.1596,-5.1596,-5.1596,-5.1596,-5.1596,-5.1596,-5.2192,-5.3389,-5.351,-5.4797,-5.7133,-5.7189,-5.8326,-6.0146,-6.0146,-6.0505,-6.1104,-6.1164,-6.1164,-6.1224,-6.1882,-6.2151,-6.2211,-6.2782,-6.3021,-6.3079,-6.2933,-6.2028,-6.0897,-6.0508,-5.8571,-5.6325,-5.6103,-5.5034,-5.3997,-5.3997,-5.3725,-5.3478,-5.3478,-5.3204,-5.2929,-5.2929,-5.2929,-5.2929,-5.2929,-5.2929,-5.2929,-5.2929,-5.2929,-5.2929,-5.2929,-5.2929,-5.2929,-5.2929,-5.2929,-5.2929,-5.2929,-5.2929,-5.2929,-5.2929,-5.2929,-5.2929,-5.2929,-5.2929,-5.2929,-5.2929,-5.2929,-5.2678,-5.2176,-5.2126,-5.185,-5.1322,-5.0745,-5.0469,-5.0469,-4.9916,-4.964,-4.964,-4.9615,-4.959,-4.8505,-4.8407,-4.8381,-4.8224,-4.8172,-4.8172,-4.8172,-4.8538,-4.8721,-4.8277,-4.8852,-4.9374,-4.9139,-4.9427,-4.9871,-5.0472,-5.0681,-5.0943,-5.1335,-5.1518,-5.1596,-5.1596,-5.1596,-5.1596,-5.1596,-5.1596,0.0,0.0,-5.1596,-5.1596,-5.1596,-5.1596,-5.1596,-5.1596,-5.1596,-5.1596,-5.1596,-5.1596,-5.1783,-5.2068,-5.3025,-5.4603,-5.6645,-5.7542,-5.9031,-6.0864,-6.0864,-6.0954,-6.1164,-6.1642,-6.1852,-6.1912,-6.257,-6.2839,-6.2724,-6.191,-6.2263,-6.2759,-6.0477,-5.947,-5.9161,-5.907,-5.7011,-5.482,-5.5736,-5.4927,-5.3614,-5.3614,-5.3341,-5.3067,-5.3067,-5.2998,-5.2929,-5.2929,-5.2929,-5.2929,-5.2929,-5.2929,-5.2929,-5.2929,-5.2929,-5.2929,-5.2929,-5.2929,-5.2929,-5.2929,-5.2929,-5.2929,-5.2929,-5.2929,-5.2929,-5.2929,-5.2929,-5.2929,-5.2929,-5.2929,-5.2929,-5.2929,-5.2929,-5.2854,-5.2729,-5.2327,-5.2051,-5.19,-5.1348,-5.1071,-5.1046,-5.0494,-5.0218,-5.0193,-4.9791,-4.959,-4.7983,-4.7997,-4.7997,-4.8172,-4.8381,-4.8512,-4.825,-4.8826,-4.9449,-4.9377,-5.0105,-5.0744,-5.0631,-5.0871,-5.1088,-5.1171,-5.1152,-5.1256,-5.1544,-5.1596,-5.1596,-5.1596,-5.1596,-5.1596,-5.1596,-5.1596,-5.1596,0.0,-5.1596,-5.1596,-5.1596,-5.1596,-5.1596,-5.1596,-5.1596,-5.1596,-5.1596,-5.1858,-5.1988,-5.1988,-5.3573,-5.5194,-5.6764,-5.8089,-5.9707,-6.1553,0.0,-6.1702,-6.2002,-6.2361,-6.254,-6.2513,-6.232,-6.2585,-6.2963,-6.1584,-6.1611,-6.1995,-5.9651,-5.8429,-5.7792,-5.734,-5.5604,-5.3861,-5.4459,-5.3945,-5.3323,-5.3551,-5.3419,-5.3331,-5.3582,-5.3273,-5.2889,-5.2878,-5.2923,-5.2873,-5.2886,-5.2929,-5.2929,-5.2929,-5.2929,-5.2929,-5.2929,-5.2929,-5.2929,-5.2929,-5.2929,-5.2929,-5.2929,-5.2929,-5.2929,-5.2929,-5.2929,-5.2929,-5.2929,-5.2929,-5.2929,-5.2929,-5.2929,-5.2929,-5.2929,-5.2628,-5.2477,-5.2477,-5.1925,-5.1649,-5.1649,-5.1071,-5.0795,-5.077,-5.0218,-4.9967,-4.7571,-4.7748,-4.7833,-4.8264,-4.874,-4.9001,-4.8746,-4.9456,-5.0393,-5.1099,-5.1823,-5.2393,-5.277,-5.2788,-5.2554,-5.1927,-5.1721,-5.1596,-5.1596,-5.1596,-5.1596,-5.1596,-5.1596,-5.1596,-5.1596,-5.1596,-5.1596,-5.1596,-5.1596,-5.1596,-5.1596,-5.1596,-5.1622,-5.1727,-5.1727,-5.1753,-5.1831,-5.2354,-5.2616,-5.2616,-5.471,-5.6258,-5.7411,-5.8927,-6.0555,-6.2241,0.0,0.0,-6.3079,-6.3079,-6.3139,-6.3083,-6.1968,-6.2116,-6.2822,-6.1519,-6.102,-6.0836,-5.9256,-5.801,-5.6893,-5.5733,-5.4599,-5.3569,-5.3199,-5.3155,-5.3231,-5.3683,-5.3808,-5.3934,-5.4436,-5.3836,-5.3109,-5.3118,-5.3113,-5.3108,-5.3136,-5.308,-5.3005,-5.2929,-5.2929,-5.2929,-5.2929,-5.2929,-5.2929,-5.2929,-5.2929,-5.2929,-5.2929,-5.2929,-5.2929,-5.2929,-5.2929,-5.2929,-5.2929,-5.2929,-5.2929,-5.2929,-5.2929,-5.2929,-5.2929,-5.2929,-5.2929,-5.2929,-5.2452,-5.2226,-5.2201,-5.1649,-5.1398,-5.1373,-5.0795,-5.0494,-4.782,-4.8043,-4.8232,-4.9023,-4.9083,-4.9352,-5.0805,-5.1492,-5.2025,-5.3019,-5.4058,-5.4672,-5.4224,-5.3708,-5.3314,-5.318,-5.2315,-5.1596,-5.1596,-5.1596,-5.1596,-5.1596,-5.1596,-5.1596,-5.1596,-5.1596,-5.1596,0.0,-5.1596,-5.1596,-5.1596,-5.1596,-5.1831,-5.2328,-5.2328,-5.2589,-5.3086,-5.3191,-5.3243,-5.3243,-5.5744,-5.7248,-5.8119,-6.0501,-6.21,-6.2899,-6.2899,0.0,-6.3079,-6.3079,-6.3378,-6.3827,-6.3593,-6.3028,-6.2278,-6.0935,-6.0198,-5.9504,-5.6741,-5.6409,-5.6888,-5.5545,-5.4822,-5.4426,-5.4356,-5.4285,-5.4285,-5.4386,-5.4411,-5.4436,-5.4536,-5.444,-5.4294,-5.429,-5.429,-5.4265,-5.4285,-5.3909,-5.3432,-5.3005,-5.2929,-5.2929,-5.2929,-5.2929,-5.2929,-5.2929,-5.2929,-5.2929,-5.2929,-5.2929,-5.2929,-5.2929,-5.2929,-5.2929,-5.2929,-5.2929,-5.2929,-5.2929,-5.2929,-5.2929,-5.2929,-5.2929,-5.2929,-5.2929,-5.2829,-5.2779,-5.2779,-5.2226,-5.1975,-5.195,-5.1398,-5.087,-4.807,-4.8268,-4.8406,-4.8968,-4.9276,-4.9774,-5.1213,-5.2041,-5.3065,-5.4714,-5.5793,-5.6251,-5.5937,-5.5679,-5.5239,-5.456,-5.345,-5.2596,-5.2596,-5.2006,-5.1596,-5.1596,-5.1596,-5.1596,-5.1596,-5.1596,-5.1727,-5.204,-5.2067,-5.1936,-5.1622,-5.1884,-5.2328,-5.2955,-5.2955,-5.3112,-5.34,-5.3687,-5.3818,-5.3883,-5.6816,-5.8334,-5.8738,-6.141,-6.278,-6.3079,-6.3079,0.0,-6.3079,-6.3079,-6.3438,-6.3918,-6.3,-6.3022,-6.3272,-6.1719,-6.0635,-5.9636,-5.8209,-5.7207,-5.6553,-5.5918,-5.5182,-5.4561,-5.4561,-5.4561,-5.4637,-5.4913,-5.4988,-5.5064,-5.534,-5.5415,-5.5437,-5.5429,-5.5467,-5.5264,-5.4683,-5.411,-5.3632,-5.3381,-5.3105,-5.2929,-5.2929,-5.2929,-5.2929,-5.2929,-5.2929,-5.2929,-5.2929,-5.2929,-5.2929,-5.2929,-5.2929,-5.2929,-5.2929,-5.2929,-5.2929,-5.2929,-5.2929,-5.2929,-5.2929,-5.2929,-5.2929,-5.2929,-5.2929,-5.2929,-5.2929,-5.2653,-5.2528,-5.2528,-5.1975,-5.1574,-4.837,-4.8483,-4.857,-4.907,-4.9453,-5.0131,-5.1648,-5.2685,-5.4006,-5.6384,-5.7286,-5.7608,-5.7608,-5.7384,-5.6905,-5.5964,-5.4501,-5.351,-5.351,-5.2439,-5.1596,-5.1596,-5.1596,-5.1596,-5.1596,-5.1727,-5.1988,-5.2459,-5.2616,0.0,-5.2014,-5.2433,-5.2955,-5.3556,-5.3556,-5.3635,-5.3766,-5.4184,-5.4393,-5.4393,-5.7586,-5.9127,-5.9189,-6.188,-6.3079,-6.3079,-6.3021,0.0,0.0,-6.2963,-6.3263,-6.3771,-6.2574,-6.2677,-6.3415,-6.2244,-6.0744,-5.9275,-5.9275,-5.7956,-5.6219,-5.6219,-5.5616,-5.4913,-5.4913,-5.4913,-5.5013,-5.544,-5.5566,-5.5666,-5.6093,-5.6219,-5.6216,-5.6182,-5.6192,-5.5959,-5.498,-5.4285,-5.3858,-5.3733,-5.3281,-5.2929,-5.2929,-5.2929,-5.2929,-5.2929,-5.2929,-5.2929,-5.2929,-5.2929,-5.2929,-5.2929,-5.2929,-5.2929,-5.2929,-5.2929,-5.2929,-5.2929,-5.2929,-5.2929,-5.2929,-5.2929,-5.2929,-5.2929,-5.2929,-5.2929,-5.2929,-5.2929,-5.2929,-5.2929,-5.2477,-5.2226,-4.8624,-4.8749,-4.8938,-4.9761,-4.981,-5.0422,-5.3413,-5.4212,-5.5094,-5.7886,-5.8743,-5.8936,-5.8936,-5.797,-5.7131,-5.7018,-5.5063,-5.351,-5.351,-5.2439,-5.1596,-5.1596,-5.1596,-5.1596,-5.1596,-5.2093,-5.2433,-5.2485,-5.3008,0.0,-5.3243,-5.3295,-5.3556,-5.4105,-5.4131,-5.4393,-5.4942,-5.4994,-5.502,-5.5087,-5.7806,-5.9127,-5.9189,-6.188,-6.3079,-6.3079,-6.2789,0.0,0.0,-6.2468,-6.2736,-6.3654,-6.3827,-6.2503,-6.0551,-6.0996,-5.9216,-5.6555,-5.6555,-5.6362,-5.6219,-5.6219,-5.6143,-5.6068,-5.6068,-5.6068,-5.6068,-5.6118,-5.6143,-5.6143,-5.6194,-5.6219,-5.6194,-5.6168,-5.6216,-5.604,-5.544,-5.4888,-5.4336,-5.3808,-5.3281,-5.2929,-5.2929,-5.2929,-5.2929,-5.2929,-5.2929,-5.2929,-5.2929,-5.2929,-5.2929,-5.2929,-5.2929,-5.2929,-5.2929,-5.2929,-5.2929,-5.2929,-5.2929,-5.2929,-5.2929,-5.2929,-5.2929,-5.2929,-5.2929,-5.2929,-5.2929,-5.2929,-5.2929,-5.2929,-5.2879,-5.2578,-4.9213,-4.9264,-4.9378,-4.9733,-5.027,-5.133,-5.3577,-5.471,-5.5964,-5.8225,-5.8773,-5.8882,-5.9045,-5.8689,-5.8331,-5.8331,-5.6849,-5.5762,-5.5762,-5.4651,-5.3631,-5.2842,-5.2719,-5.2571,-5.2156,-5.2354,-5.2772,-5.3478,-5.4079,0.0,-5.4419,-5.4079,-5.4158,-5.4733,-5.4733,-5.4863,-5.5099,-5.5099,-5.5099,-5.5099,-5.7834,-5.9127,-5.9189,-6.1643,-6.2905,-6.3079,-6.2526,0.0,0.0,-6.2292,-6.2558,-6.3298,-6.3203,-6.2786,-6.2209,-6.2303,-6.1153,-5.9436,-5.8567,-5.7919,-5.74,-5.6485,-5.6219,-5.6219,-5.6219,-5.6219,-5.6219,-5.6219,-5.6219,-5.6219,-5.6219,-5.6219,-5.6219,-5.6219,-5.6219,-5.6143,-5.5942,-5.5189,-5.4486,-5.426,-5.3532,-5.2929,-5.2929,-5.2929,-5.2929,-5.2929,-5.2929,-5.2929,-5.2929,-5.2929,-5.2929,-5.2929,-5.2929,-5.2929,-5.2929,-5.2929,-5.2929,-5.2929,-5.2929,-5.2929,-5.2929,-5.2929,-5.2929,-5.2929,-5.2929,-5.2929,-5.2929,-5.2929,-5.2929,-5.2929,-5.2929,-5.2804,-4.9719,-4.959,-4.959,-4.959,-5.0537,-5.1927,-5.3456,-5.4856,-5.6394,-5.8114,-5.85,-5.8609,-5.8936,-5.8991,-5.8991,-5.9099,-5.8026,-5.7187,-5.7187,-5.6194,-5.5032,-5.4144,-5.3915,-5.3578,-5.3127,-5.3054,-5.34,-5.4393,-5.4863,0.0,-5.5099,-5.4707,-5.4654,-5.5099,-5.5099,-5.5099,-5.5099,-5.5099,-5.5299,-5.5736,-5.7578,-5.894,-5.9773,-6.1405,-6.2468,-6.2905,-6.2351,0.0,0.0,-6.1998,-6.2144,-6.2615,-6.252,-6.2506,-6.2452,-6.1999,-6.1164,-6.0027,-5.8642,-5.7764,-5.71,-5.6078,-5.5842,-5.5968,-5.5968,-5.6068,-5.6219,-5.6219,-5.6219,-5.6219,-5.6219,-5.6219,-5.6219,-5.6219,-5.5995,-5.587,-5.5968,-5.5089,-5.431,-5.431,-5.3557,-5.2929,-5.2929,-5.2929,-5.2929,-5.2929,-5.2929,-5.2929,-5.2929,-5.2929,-5.2929,-5.2929,-5.2929,-5.2929,-5.2929,-5.2929,-5.2929,-5.2929,-5.2929,-5.2929,-5.2929,-5.2929,-5.2929,-5.2929,-5.2929,-5.2929,-5.2929,-5.2929,-5.2929,-5.2929,-5.2929,-5.2929,-4.995,-4.959,-4.959,-4.959,-5.0537,-5.1865,-5.318,-5.4738,-5.6222,-5.7528,-5.8003,-5.8335,-5.8609,-5.8664,-5.8803,-5.9045,-5.8026,-5.7187,-5.7187,-5.6194,-5.5412,-5.5412,-5.4754,-5.4371,-5.4371,-5.4251,-5.4445,-5.5046,0.0,0.0,-5.5099,-5.5099,-5.5099,-5.5099,-5.5099,-5.5099,-5.5099,-5.5099,-5.5776,-5.7092,-5.7092,-5.8529,-6.1077,-6.1106,-6.1673,0.0,0.0,0.0,0.0,-6.1493,-6.1344,-6.1672,-6.1953,-6.1203,-5.985,-5.9112,-5.7932,-5.6487,-5.5101,-5.4658,-5.4658,-5.4658,-5.4963,-5.539,-5.539,-5.5767,-5.6219,-5.6219,-5.6219,-5.6219,-5.6219,-5.6219,-5.6219,-5.6219,-5.5644,-5.5146,-5.539,-5.4511,-5.3708,-5.3708,-5.3281,-5.2929,-5.2929,-5.2929,-5.2929,-5.2929,-5.2929,-5.2929,-5.2929,-5.2929,-5.2929,-5.2929,-5.2929,-5.2929,-5.2929,-5.2929,-5.2929,-5.2929,-5.2929,-5.2929,-5.2929,-5.2929,-5.2929,-5.2929,-5.2929,-5.2929,-5.2929,-5.2929,-5.2929,-5.2929,-5.2929,-5.2929,-5.2385,-5.2289,-5.2289,-5.2289,-5.3241,-5.4295,-5.4679,-5.5876,-5.7078,-5.7669,-5.7892,-5.8003,-5.8335,-5.839,-5.839,-5.847,-5.836,-5.825,-5.825,-5.7301,-5.6451,-5.6004,-5.4941,-5.4281,0.0,0.0,-5.4889,-5.5099,0.0,0.0,-5.5099,-5.5099,-5.5099,-5.5099,-5.5099,-5.5538,-5.6471,-5.5538,-5.6209,-5.8439,-5.8439,-5.9403,-6.1106,-6.1584,-6.2116,0.0,0.0,0.0,0.0,-6.1344,-6.1253,-6.1313,-6.1457,-6.0635,-5.9304,-5.9094,-5.8372,-5.7344,-5.5888,-5.5693,-5.5915,-5.4915,-5.4687,-5.4838,-5.4838,-5.5465,-5.6219,-5.6219,-5.6219,-5.6241,-5.6233,-5.5789,-5.5418,-5.5164,-5.4938,-5.4787,-5.4813,-5.4235,-5.3708,-5.3708,-5.3281,-5.2929,-5.2929,-5.2929,-5.2929,-5.2929,-5.2929,-5.2929,-5.2929,-5.2929,-5.2929,-5.2929,-5.2929,-5.2929,-5.2929,-5.2929,-5.2929,-5.2929,-5.2929,-5.2929,-5.2929,-5.2929,-5.2929,-5.2929,-5.2929,-5.2929,-5.2929,-5.2929,-5.2929,-5.2929,-5.2929,-5.2929,-5.3724,-5.351,-5.351,-5.351,-5.4442,-5.5412,-5.5412,-5.6423,-5.736,-5.7557,-5.7613,-5.7725,-5.7974,-5.8059,-5.8085,-5.8195,-5.85,-5.85,-5.7918,-5.747,-5.6881,-5.5909,-5.5285,0.0,0.0,-5.4889,-5.5099,0.0,0.0,0.0,-5.5099,-5.5099,-5.5365,-5.5842,-5.5339,-5.5472,-5.634,-5.6039,-5.6963,-5.9127,-5.9127,-6.0079,-6.185,-6.1643,-6.185,0.0,0.0,0.0,0.0,-6.1253,-6.1193,-6.1193,-6.1193,-6.0681,-5.9768,-5.8718,-5.8054,-5.732,-5.5382,-5.4963,-5.5203,-5.4284,-5.4084,-5.4285,-5.4486,-5.5039,-5.5591,-5.5591,-5.5713,-5.5858,-5.6142,-5.5551,-5.4745,-5.4127,-5.4144,-5.4356,-5.4235,-5.3808,-5.3406,-5.3406,-5.3155,-5.2929,-5.2929,-5.2929,-5.2929,-5.2929,-5.2929,-5.2929,-5.2929,-5.2929,-5.2929,-5.2929,-5.2929,-5.2929,-5.2929,-5.2929,-5.2929,-5.2929,-5.2929,-5.2929,-5.2929,-5.2929,-5.2929,-5.2929,-5.2929,-5.2929,-5.2929,-5.2929,-5.2929,-5.2929,-5.2929,-5.2929,0.0,-5.3784,-5.3784,-5.3784,-5.4679,-5.5528,-5.5528,-5.648,0.0,-5.7303,-5.7303,-5.7416,-5.7725,-5.7781,-5.7836,-5.8085,-5.8445,-5.8085,-5.648,-5.6708,-5.6561,-5.5379,-5.5708,0.0,-5.5313,-5.5165,0.0,0.0,0.0,0.0,-5.5099,-5.5299,-5.5908,-5.7092,-5.5973,-5.5405,-5.5405,-5.6536,-5.7834,-5.9251,-5.9189,-6.0566,-6.3021,-6.1405,-6.1166,0.0,0.0,0.0,0.0,-6.1193,-6.1193,-6.1193,-6.1193,-6.1133,-6.0742,-5.8151,-5.7038,-5.6455,-5.3971,-5.2998,-5.2929,-5.2929,-5.3256,-5.3758,-5.4285,-5.4511,-5.4561,-5.4561,-5.4804,-5.5239,-5.5943,-5.531,-5.4219,-5.3134,-5.3433,-5.3872,-5.3658,-5.3281,-5.2929,-5.2929,-5.2929,-5.2929,-5.2929,-5.2929,-5.2929,-5.2929,-5.2929,-5.2929,-5.2929,-5.2929,-5.2929,-5.2929,-5.2929,-5.2929,-5.2929,-5.2929,-5.2929,-5.2929,-5.2929,-5.2929,-5.2929,-5.2929,-5.2929,-5.2929,-5.2929,-5.2929,-5.2929,-5.2929,-5.2929,-5.2929,-5.2929,-5.2929,-5.6594,0.0,-5.6423,-5.6423,-5.6651,-5.6822,0.0,0.0,0.0,0.0,0.0,0.0,-5.7416,-5.7416,-5.7416,-5.7472,-5.7751,-5.7528,-5.6165,-5.5603,-5.536,-5.5555,-5.5454,-5.5709,-5.6574,-5.5736,0.0,0.0,0.0,-5.6144,-5.5165,-5.7028,-5.7834,-5.7157,-5.777,-5.8151,-5.8151,-5.7451,-5.8277,-6.0655,-6.0384,-6.1077,-6.2673,-6.1791,-6.1465,0.0,0.0,0.0,-6.1193,-6.1193,-6.1193,-6.1193,-6.1193,-6.056,-5.9493,-5.8843,-5.7258,-5.5393,-5.4753,-5.3768,-5.2929,-5.2929,-5.3005,-5.313,-5.3281,-5.3909,-5.4561,-5.4561,-5.4658,-5.4774,-5.4949,-5.4149,-5.3208,-5.2953,-5.3017,-5.313,-5.3105,-5.3005,-5.2929,-5.2929,-5.2929,-5.2929,-5.2929,-5.2929,-5.2929,-5.2929,-5.2929,-5.2929,-5.2929,-5.2929,-5.2929,-5.2929,-5.2929,-5.2929,-5.2929,-5.2929,-5.2929,-5.2929,-5.2929,-5.2929,-5.2929,-5.2929,-5.2929,-5.2929,-5.2929,-5.2929,-5.2929,-5.2929,-5.2929,-5.2929,-5.2929,-5.2929,-5.7303,-5.7303,-5.7303,-5.7303,-5.7303,-5.7303,-5.7303,0.0,0.0,0.0,0.0,0.0,0.0,-5.6822,-5.6651,-5.7191,-5.6566,-5.5961,-5.5718,-5.5783,-5.5727,-5.5505,-5.577,-5.5947,0.0,0.0,0.0,0.0,0.0,-5.7451,-5.6105,-5.7386,-5.8151,-5.8024,-5.8123,-5.8186,-5.8186,-5.8088,-5.878,-6.0202,-6.0445,-6.1286,-6.2556,-6.191,-6.1613,0.0,0.0,0.0,-6.1193,-6.1193,-6.1193,-6.1193,-6.1193,-6.0742,-5.9891,-5.8592,-5.7167,-5.5762,-5.4485,-5.3521,-5.2929,-5.2929,-5.2929,-5.2929,-5.2929,-5.3331,-5.3808,-5.3808,-5.3808,-5.3828,-5.3791,-5.3356,-5.2923,-5.2886,-5.2929,-5.2929,-5.2929,-5.2929,-5.2929,-5.2929,-5.2929,-5.2929,-5.2929,-5.2929,-5.2929,-5.2929,-5.2929,-5.2929,-5.2929,-5.2929,-5.2929,-5.2929,-5.2929,-5.2929,-5.2929,-5.2929,-5.2929,-5.2929,-5.2929,-5.2929,-5.2929,-5.2929,-5.2929,-5.2929,-5.2929,-5.2929,-5.2929,-5.2929,-5.2929,-5.2929,-5.2929,-5.2929,-5.7303,-5.7191,-5.7078,-5.7247,-5.7303,-5.7303,-5.7303,0.0,0.0,0.0,0.0,0.0,0.0,-5.6107,0.0,-5.6822,-5.5264,-5.426,-5.5093,-5.5928,-5.6197,-5.5306,-5.6084,0.0,0.0,0.0,0.0,0.0,0.0,-5.8313,-5.7157,-5.7451,-5.8151,-5.9064,-5.8376,-5.7897,-5.7706,-5.8815,-5.9375,-5.9436,-6.0384,-6.1465,-6.2498,-6.185,-6.1613,-6.1494,0.0,0.0,-6.0863,-6.0681,-6.0681,-6.0863,-6.0621,-6.0681,-6.056,-5.7961,-5.6844,-5.6325,-5.3768,-5.2929,-5.2929,-5.2929,-5.2929,-5.2929,-5.2929,-5.2929,-5.2929,-5.2929,-5.2929,-5.2929,-5.2929,-5.2929,-5.2929,-5.2929,-5.2929,-5.2929,-5.2929,-5.2929,-5.2929,-5.2929,-5.2929,-5.2929,-5.2929,-5.2929,-5.2929,-5.2929,-5.2929,-5.2929,-5.2929,-5.2929,-5.2929,-5.2929,-5.2929,-5.2929,-5.2929,-5.2929,-5.2929,-5.2929,-5.2929,-5.2929,-5.2929,-5.2929,-5.2929,-5.2929,-5.2929,-5.2929,-5.2929,-5.2929,-5.2929,-5.2929,-5.2929,-5.2929,-5.7303,-5.6537,-5.5934,-5.7021,-5.7303,-5.7303,-5.7303,0.0,0.0,0.0,0.0,0.0,0.0,-5.5528,-5.547,0.0,0.0,-5.4251,0.0,0.0,-5.3852,-5.5195,0.0,0.0,0.0,0.0,0.0,0.0,0.0,0.0,-5.7092,-5.9279,-6.0079,-5.9127,-6.1137,-6.1643,-6.0534,-6.0716,-6.0776,-6.0837,-6.1791,-6.2234,-6.2175,-6.1791,-6.1494,0.0,0.0,-5.9431,-5.9307,-5.8151,-5.834,-5.9307,-5.8151,-5.8404,-5.9245,-5.7615,-5.6287,-5.5061,-5.3452,-5.2929,-5.2929,-5.2929,-5.2929,-5.2929,-5.2929,-5.2929,-5.2929,-5.2929,-5.2929,-5.2929,-5.2929,-5.2929,-5.2929,-5.2929,-5.2929,-5.2929,-5.2929,-5.2929,-5.2929,-5.2929,-5.2929,-5.2929,-5.2929,-5.2929,-5.2929,-5.2929,-5.2929,-5.2929,-5.2929,-5.2929,-5.2929,-5.2929,-5.2929,-5.2929,-5.2929,-5.2929,-5.2929,-5.2929,-5.2929,-5.2929,-5.2929,-5.2929,-5.2929,-5.2929,-5.2929,-5.2929,-5.2929,-5.2929,-5.2929,-5.2929,-5.2929,-5.2929,-5.7303,-5.6366,-5.5528,-5.6107,-5.5761,-5.5236,-5.5236,0.0,0.0,0.0,0.0,0.0,0.0,0.0,-5.4014,-5.2873,0.0,-5.4951,-5.4158,-5.4761,-5.5221,0.0,0.0,0.0,0.0,0.0,0.0,0.0,0.0,0.0,0.0,0.0,-6.0505,-5.9127,-6.0323,-6.0566,-5.9801,-6.0474,-6.0837,-6.0837,-6.1106,-6.1434,-6.1791,-6.1523,-6.1313,-6.1133,0.0,-5.9121,-5.8996,-5.7551,-5.7806,-5.8968,-5.7551,-5.787,-5.8843,-5.6742,-5.5061,-5.3768,-5.311,-5.2929,-5.2929,-5.2929,-5.2929,-5.2929,-5.2929,-5.2929,-5.2929,-5.2929,-5.2929,-5.2929,-5.2929,-5.2929,-5.2929,-5.2929,-5.2929,-5.2929,-5.2929,-5.2929,-5.2929,-5.2929,-5.2929,-5.2929,-5.2929,-5.2929,-5.2929,-5.2929,-5.2929,-5.2929,-5.2929,-5.2929,-5.2929,-5.2929,-5.2929,-5.2929,-5.2929,-5.2929,-5.2929,-5.2929,-5.2929,-5.2929,-5.2929,-5.2929,-5.2929,-5.2929,-5.2929,-5.2929,-5.2929,-5.2929,-5.2929,-5.2929,-5.2929,-5.2929,-5.7303,-5.6366,-5.5412,-5.5412,-5.4442,-5.351,-5.351,-5.351,-5.3784,-5.4738,0.0,0.0,0.0,-5.4254,0.0,-5.1495,-5.3725,-5.5172,-5.3985,-5.5313,-5.5933,0.0,0.0,0.0,0.0,0.0,0.0,0.0,0.0,0.0,0.0,0.0,-5.9498,-5.8411,-5.8662,-5.8752,-5.8467,-5.9498,-6.0141,-6.0445,-6.0534,-6.0805,-6.1166,-6.1224,-6.1044,-6.0621,-5.9245,-5.8404,-5.8024,-5.6585,-5.6844,-5.8024,-5.6585,-5.6715,-5.7386,-5.526,-5.3835,-5.2929,-5.2929,-5.2929,-5.2929,-5.2929,-5.2929,-5.2929,-5.2929,-5.2929,-5.2929,-5.2929,-5.2929,-5.2929,-5.2929,-5.2929,-5.2929,-5.2929,-5.2929,-5.2929,-5.2929,-5.2929,-5.2929,-5.2929,-5.2929,-5.2929,-5.2929,-5.2929,-5.2929,-5.2929,-5.2929,-5.2929,-5.2929,-5.2929,-5.2929,-5.2929,-5.2929,-5.2929,-5.2929,-5.2929,-5.2929,-5.2929,-5.2929,-5.2929,-5.2929,-5.2929,-5.2929,-5.2929,-5.2929,-5.2929,-5.2929,-5.2929,-5.2929,-5.2929,-5.2929,-5.2854,-5.7303,-5.6366,-5.5412,-5.5412,-5.4442,-5.351,-5.351,-5.351,-5.3571,-5.3631,-5.3631,-5.3631,0.0,-5.3944,0.0,0.0,0.0,0.0,0.0,0.0,0.0,0.0,0.0,0.0,0.0,0.0,0.0,0.0,0.0,0.0,0.0,0.0,0.0,-5.6233,-5.7432,-5.8068,-5.8068,-5.8131,-5.8821,-6.0022,-6.1316,-6.1166,-5.9773,-6.1046,-6.0745,-5.9183,-5.7742,-5.6482,-5.5194,-5.3768,-5.4039,-5.5127,-5.3768,-5.3247,-5.3316,-5.311,-5.2998,-5.2929,-5.2929,-5.2929,-5.2929,-5.2929,-5.2929,-5.2929,-5.2929,-5.2929,-5.2929,-5.2929,-5.2929,-5.2929,-5.2929,-5.2929,-5.2929,-5.2929,-5.2929,-5.2929,-5.2929,-5.2929,-5.2929,-5.2929,-5.2929,-5.2929,-5.2929,-5.2929,-5.2929,-5.2929,-5.2929,-5.2929,-5.2929,-5.2929,-5.2929,-5.2929,-5.2929,-5.2929,-5.2929,-5.2929,-5.2929,-5.2929,-5.2929,-5.2929,-5.2929,-5.2929,-5.2929,-5.2929,-5.2929,-5.2929,-5.2929,-5.2929,-5.2929,-5.2929,-5.2929,-5.2653,-5.6337,-5.515,-5.4024,-5.3214,-5.2604,0.0,-5.2262,-5.2262,-5.2262,-5.2262,-5.2262,-5.243,-5.3015,0.0,-5.3008,0.0,0.0,0.0,0.0,0.0,0.0,0.0,0.0,0.0,0.0,0.0,0.0,0.0,0.0,0.0,0.0,0.0,0.0,-5.6037,-5.6493,-5.6688,-5.6455,-5.6455,-5.6585,-5.6882,-5.8474,-5.9251,-5.9279,-5.9801,-5.9678,-5.9058,-5.7615,-5.6221,-5.4887,-5.3452,-5.37,-5.4953,-5.4418,-5.3632,-5.2929,-5.2929,-5.2929,-5.2929,-5.2929,-5.2929,-5.2929,-5.2929,-5.2929,-5.2929,-5.2929,-5.2929,-5.2929,-5.2929,-5.2929,-5.2929,-5.2929,-5.2929,-5.2929,-5.2929,-5.2929,-5.2929,-5.2929,-5.2929,-5.2929,-5.2929,-5.2929,-5.2929,-5.2929,-5.2929,-5.2929,-5.2929,-5.2929,-5.2929,-5.2929,-5.2929,-5.2929,-5.2929,-5.2929,-5.2929,-5.2929,-5.2929,-5.2929,-5.2929,-5.2929,-5.2929,-5.2929,-5.2929,-5.2929,-5.2929,-5.2929,-5.2929,-5.2929,-5.2929,-5.2929,-5.2929,-5.2578,-5.2302,-5.515,-5.4144,-5.3241,-5.2385,0.0,0.0,-5.1616,-5.1492,-5.1393,-5.0954,-5.1361,-5.2077,-5.3054,-5.2982,0.0,0.0,0.0,0.0,0.0,0.0,0.0,0.0,0.0,0.0,0.0,0.0,0.0,0.0,0.0,0.0,0.0,0.0,0.0,0.0,-5.5034,-5.4901,-5.4686,-5.4686,-5.4552,-5.435,-5.5472,-5.6623,-5.7834,-5.8277,-5.8214,-5.777,-5.678,-5.5565,-5.4283,-5.3316,-5.3452,-5.435,-5.435,-5.3768,-5.2929,-5.2929,-5.2929,-5.2929,-5.2929,-5.2929,-5.2929,-5.2929,-5.2929,-5.2929,-5.2929,-5.2929,-5.2929,-5.2929,-5.2929,-5.2929,-5.2929,-5.2929,-5.2929,-5.2929,-5.2929,-5.2929,-5.2929,-5.2929,-5.2929,-5.2929,-5.2929,-5.2929,-5.2929,-5.2929,-5.2929,-5.2929,-5.2929,-5.2929,-5.2929,-5.2929,-5.2929,-5.2929,-5.2929,-5.2929,-5.2929,-5.2929,-5.2929,-5.2929,-5.2929,-5.2929,-5.2929,-5.2929,-5.2929,-5.2929,-5.2929,-5.2929,-5.2929,-5.2929,-5.2829,-5.2653,-5.2277,-5.1925,-5.3844,-5.351,-5.351,0.0,0.0,0.0,-5.1803,-5.1492,-5.1142,-4.9847,-5.1088,-5.2772,-5.3896,-5.404,0.0,-5.4849,0.0,0.0,0.0,0.0,0.0,0.0,0.0,0.0,0.0,0.0,0.0,0.0,0.0,0.0,0.0,0.0,0.0,0.0,-5.2929,-5.2929,-5.2929,-5.2929,-5.2929,-5.2929,-5.2929,-5.3657,-5.5061,-5.6417,-5.6287,-5.502,-5.502,-5.4216,-5.2929,-5.2929,-5.2929,-5.2929,-5.2929,-5.2929,-5.2929,-5.2929,-5.2929,-5.2929,-5.2929,-5.2929,-5.2929,-5.2929,-5.2929,-5.2929,-5.2929,-5.2929,-5.2929,-5.2929,-5.2929,-5.2929,-5.2929,-5.2929,-5.2929,-5.2929,-5.2929,-5.2929,-5.2929,-5.2929,-5.2929,-5.2929,-5.2929,-5.2929,-5.2929,-5.2929,-5.2929,-5.2929,-5.2929,-5.2929,-5.2929,-5.2929,-5.2929,-5.2929,-5.2929,-5.2929,-5.2929,-5.2929,-5.2929,-5.2929,-5.2929,-5.2929,-5.2929,-5.2929,-5.2929,-5.2929,-5.2929,-5.2929,-5.2929,-5.2929,-5.2628,-5.2101,-5.2101,-5.1498,-5.4084,-5.351,0.0,0.0,0.0,0.0,0.0,-5.0853,0.0,0.0,-5.1251,-5.2343,-5.2915,-5.3122,0.0,-5.3903,0.0,0.0,0.0,0.0,0.0,0.0,0.0,0.0,0.0,0.0,0.0,0.0,0.0,0.0,0.0,0.0,0.0,0.0,-5.2929,-5.2929,-5.2929,-5.2929,-5.2929,-5.2929,-5.2929,-5.3657,-5.502,-5.5393,-5.5393,-5.502,-5.502,-5.4216,-5.2929,-5.2929,-5.2929,-5.2929,-5.2929,-5.2929,-5.2929,-5.2929,-5.2929,-5.2929,-5.2929,-5.2929,-5.2929,-5.2929,-5.2929,-5.2929,-5.2929,-5.2929,-5.2929,-5.2929,-5.2929,-5.2929,-5.2929,-5.2929,-5.2929,-5.2929,-5.2929,-5.2929,-5.2929,-5.2929,-5.2929,-5.2929,-5.2929,-5.2929,-5.2929,-5.2929,-5.2929,-5.2929,-5.2929,-5.2929,-5.2929,-5.2929,-5.2929,-5.2929,-5.2929,-5.2929,-5.2929,-5.2929,-5.2929,-5.2929,-5.2929,-5.2929,-5.2929,-5.2929,-5.2929,-5.2929,-5.2929,-5.2929,-5.2929,-5.2528,-5.2277,-5.2076,-5.1297,-5.0745,-5.2631,0.0,0.0,0.0,0.0,-5.0614,-5.006,0.0,0.0,0.0,-5.1473,-5.2244,-5.2649,-5.284,0.0,0.0,0.0,0.0,0.0,0.0,0.0,0.0,0.0,0.0,0.0,0.0,0.0,0.0,0.0,0.0,0.0,0.0,0.0,0.0,-5.2929,-5.2929,-5.2929,-5.2929,-5.2929,-5.2929,-5.2929,-5.3316,-5.4174,-5.4174,-5.4174,-5.4174,-5.4174,-5.37,-5.2929,-5.2929,-5.2929,-5.2929,-5.2929,-5.2929,-5.2929,-5.2929,-5.2929,-5.2929,-5.2929,-5.2929,-5.2929,-5.2929,-5.2929,-5.2929,-5.2929,-5.2929,-5.2929,-5.2929,-5.2929,-5.2929,-5.2929,-5.2929,-5.2929,-5.2929,-5.2929,-5.2929,-5.2929,-5.2929,-5.2929,-5.2929,-5.2929,-5.2929,-5.2929,-5.2929,-5.2929,-5.2929,-5.2929,-5.2929,-5.2929,-5.2929,-5.2929,-5.2929,-5.2929,-5.2929,-5.2929,-5.2929,-5.2929,-5.2929,-5.2929,-5.2929,-5.2929,-5.2929,-5.2929,-5.2929,-5.2929,-5.2829,-5.2603,-5.2277,-5.1875,-5.1423,-5.0745,-5.0293,0.0,0.0,0.0,0.0,0.0,0.0,-5.0293,-5.0469,-5.067,-5.1247,0.0,-5.2327,-5.2829,-5.2929,0.0,0.0,0.0,0.0,0.0,0.0,0.0,0.0,0.0,0.0,0.0,0.0,0.0,0.0,0.0,0.0,0.0,0.0,0.0,0.0,-5.2929,-5.2929,-5.2929,-5.2929,-5.2929,0.0,-5.2929,-5.2929,-5.2929,-5.2929,-5.2929,-5.2929,-5.2929,-5.2929,-5.2929,-5.2929,-5.2929,-5.2929,-5.2929,-5.2929,-5.2929,-5.2929,-5.2929,-5.2929,-5.2929,-5.2929,-5.2929,-5.2929,-5.2929,-5.2929,-5.2929,-5.2929,-5.2929,-5.2929,-5.2929,-5.2929,-5.2929,-5.2929,-5.2929,-5.2929,-5.2929,-5.2929,-5.2929,-5.2929,-5.2929,-5.2929,-5.2929,-5.2929,-5.2929,-5.2929,-5.2929,-5.2929,-5.2929,-5.2929,-5.2929,-5.2929,-5.2929,-5.2929,-5.2929,-5.2929,-5.2929,-5.2929,-5.2929,-5.2929,-5.2929,-5.2929,-5.2929,-5.2929,-5.2929,-5.2929,-5.2879,-5.2603,-5.2101,-5.2,-5.1423,-5.0419,-5.0368,-5.0067,0.0,0.0,0.0,0.0,0.0,0.0,0.0,-5.077,-5.1247,-5.1825,-5.2377,-5.2779,0.0,0.0,0.0,0.0,0.0,0.0,0.0,0.0,0.0,0.0,0.0,0.0,0.0,0.0,0.0,0.0,0.0,0.0,0.0,0.0,0.0,-5.2929,-5.2929,-5.2929,-5.2929,-5.2929,-5.2929,0.0,-5.2929,-5.2929,-5.2929,-5.2929,-5.2929,-5.2929,-5.2929,-5.2929,-5.2929,-5.2929,-5.2929,-5.2929,-5.2929,-5.2929,-5.2929,-5.2929,-5.2929,-5.2929,-5.2929,-5.2929,-5.2929,-5.2929,-5.2929,-5.2929,-5.2929,-5.2929,-5.2929,-5.2929,-5.2929,-5.2929,-5.2929,-5.2929,-5.2929,-5.2929,-5.2929,-5.2929,-5.2929,-5.2929,-5.2929,-5.2929,-5.2929,-5.2929,-5.2929,-5.2929,-5.2929,-5.2929,-5.2929,-5.2929,-5.2929,-5.2929,-5.2929,-5.2929,-5.2929,-5.2929,-5.2929,-5.2929,-5.2929,-5.2929,-5.2929,-5.2929,-5.2929,-5.2929,-5.2929,-5.2929,-5.2503,-5.2226,-5.2101,-5.1222,-5.0645,-5.0419,-4.9967,-4.9715,0.0,0.0,0.0,0.0,0.0,0.0,0.0,0.0,0.0,0.0,0.0,0.0,0.0,0.0,0.0,0.0,0.0,0.0,0.0,0.0,0.0,0.0,0.0,0.0,0.0,0.0,0.0,0.0,0.0,0.0,0.0,-5.2929,-5.2929,-5.2929,-5.2929,-5.2929,-5.2929,-5.2929,-5.2929,-5.2929,-5.2929,-5.2929,-5.2929,-5.2929,-5.2929,-5.2929,-5.2929,-5.2929,-5.2929,-5.2929,-5.2929,-5.2929,-5.2929,-5.2929,-5.2929,-5.2929,-5.2929,-5.2929,-5.2929,-5.2929,-5.2929,-5.2929,-5.2929,-5.2929,-5.2929,-5.2929,-5.2929,-5.2929,-5.2929,-5.2929,-5.2929,-5.2929,-5.2929,-5.2929,-5.2929,-5.2929,-5.2929,-5.2929,-5.2929,-5.2929,-5.2929,-5.2929,-5.2929,-5.2929,-5.2929,-5.2929,-5.2929,-5.2929,-5.2929,-5.2929,-5.2929,-5.2929,-5.2929,-5.2929,-5.2929,-5.2929,-5.2929,-5.2929,-5.2929,-5.2929,-5.2929,-5.2929,-5.2804,-5.2528,-5.2251,-5.1825,-5.1297,-5.0695,-5.0293,-5.0017,-4.9715,-4.959,0.0,0.0,0.0,0.0,0.0,0.0,0.0,0.0,0.0,0.0,0.0,0.0,0.0,0.0,0.0,0.0,0.0,0.0,0.0,0.0,0.0,0.0,0.0,0.0,0.0,0.0,0.0,0.0,0.0,0.0,-5.2929,-5.2929,-5.2929,-5.2929,-5.2929,-5.2929,-5.2929,-5.2929,-5.2929,-5.2929,-5.2929,-5.2929,-5.2929,-5.2929,-5.2929,-5.2929,-5.2929,-5.2929,-5.2929,-5.2929,-5.2929,-5.2929,-5.2929,-5.2929,-5.2929,-5.2929,-5.2929,-5.2929,-5.2929,-5.2929,-5.2929,-5.2929,-5.2929,-5.2929,-5.2929,-5.2929,-5.2929,-5.2929,-5.2929,-5.2929,-5.2929,-5.2929,-5.2929,-5.2929,-5.2929,-5.2929,-5.2929,-5.2929,-5.2929,-5.2929,-5.2929,-5.2929,-5.2929,-5.2929,-5.2929,-5.2929,-5.2929,-5.2929,-5.2929,-5.2929,-5.2929,-5.2929,-5.2929,-5.2929,-5.2929,-5.2929,-5.2929,-5.2929,-5.2929,-5.2929,-5.2929,-5.2829,-5.2528,-5.1975,-5.1975,-5.1448,-5.0419,-5.0318,-5.0042,-4.959,-4.959,-4.959,0.0,0.0,0.0,0.0,0.0,0.0,0.0,0.0,0.0,0.0,0.0,0.0,0.0,0.0,0.0,0.0,0.0,0.0,0.0,0.0,0.0,0.0,0.0,0.0,0.0,0.0,0.0,0.0,0.0,0.0,0.0,-5.2929,-5.2929,-5.2929,-5.2929,-5.2929,-5.2929,-5.2929,-5.2929,-5.2929,-5.2929,-5.2929,-5.2929,-5.2929,-5.2929,-5.2929,-5.2929,-5.2929,-5.2929,-5.2929,-5.2929,-5.2929,-5.2929,-5.2929,-5.2929,-5.2929,-5.2929,-5.2929,-5.2929,-5.2929,-5.2929,-5.2929,-5.2929,-5.2929,-5.2929,-5.2929,-5.2929,-5.2929,-5.2929,-5.2929,-5.2929,-5.2929,-5.2929,-5.2929,-5.2929,-5.2929,-5.2929,-5.2929,-5.2929,-5.2929,-5.2929,-5.2929,-5.2929,-5.2929,-5.2929,-5.2929,-5.2929,-5.2929,-5.2929,-5.2929,-5.2929,-5.2929,-5.2929,-5.2929,-5.2929,-5.2929,-5.2929,-5.2929,-5.2929,-5.2929,-5.2929,-5.2477,-5.195,-5.1398,-5.1398,-5.1071,-5.0419,-4.9941,-4.9665,-4.959,-4.959,-4.959,0.0,0.0,0.0,0.0,0.0,0.0,0.0,0.0,0.0,0.0,0.0,0.0,0.0,0.0,0.0,0.0,0.0,0.0,0.0,0.0,0.0,0.0,0.0,0.0,0.0,0.0,0.0,0.0,0.0,0.0,-5.2929,-5.2929,-5.2929,-5.2929,-5.2929,-5.2929,-5.2929,-5.2929,-5.2929,-5.2929,-5.2929,-5.2929,-5.2929,-5.2929,-5.2929,-5.2929,-5.2929,-5.2929,-5.2929,-5.2929,-5.2929,-5.2929,-5.2929,-5.2929,-5.2929,-5.2929,-5.2929,-5.2929,-5.2929,-5.2929,-5.2929,-5.2929,-5.2929,-5.2929,-5.2929,-5.2929,-5.2929,-5.2929,-5.2929,-5.2929,-5.2929,-5.2929,-5.2929,-5.2929,-5.2929,-5.2929,-5.2929,-5.2929,-5.2929,-5.2929,-5.2929,-5.2929,-5.2929,-5.2929,-5.2929,-5.2929,-5.2929,-5.2929,-5.2929,-5.2929,-5.2929,-5.2929,-5.2929,-5.2929,-5.2929,-5.2929,-5.2929,-5.2929,-5.2929,-5.2779,-5.2477,-5.2226,-5.1699,-5.082,-5.0795,-5.0519,-4.9967,-4.9715,-4.959,-4.959,-4.959,-4.959,0.0,0.0,0.0,0.0,0.0,0.0,0.0,0.0,0.0,0.0,0.0,0.0,0.0,0.0,0.0,0.0,0.0,0.0,0.0,0.0,0.0,0.0,0.0,0.0,0.0,0.0,0.0,0.0,0.0,0.0,-5.2929,-5.2929,-5.2929,-5.2929,-5.2929,-5.2929,-5.2929,-5.2929,-5.2929,-5.2929,-5.2929,-5.2929,-5.2929,-5.2929,-5.2929,-5.2929,-5.2929,-5.2929,-5.2929,-5.2929,-5.2929,-5.2929,-5.2929,-5.2929,-5.2929,-5.2929,-5.2929,-5.2929,-5.2929,-5.2929,-5.2929,-5.2929,-5.2929,-5.2929,-5.2929,-5.2929,-5.2929,-5.2929,-5.2929,-5.2929,-5.2929,-5.2929,-5.2929,-5.2929,-5.2929,-5.2929,-5.2929,-5.2929,-5.2929,-5.2929,-5.2929,-5.2929,-5.2929,-5.2929,-5.2929,-5.2929,-5.2929,-5.2929,-5.2929,-5.2929,-5.2929,-5.2929,-5.2929,-5.2929,-5.2929,-5.2929,-5.2929,-5.2929,-5.2804,-5.2528,-5.2126,-5.1825,-5.1272,-5.0444,-5.0268,-5.0017,-4.959,-4.959,-4.959,-4.959,-4.959,-4.959,0.0,0.0,0.0,0.0,0.0,0.0,0.0,0.0,0.0,0.0,0.0,0.0,0.0,0.0,0.0,0.0,0.0,0.0,0.0,0.0,0.0,0.0,0.0,0.0,0.0,0.0,0.0,0.0,0.0,0.0,-5.2929,-5.2929,-5.2929,-5.2929,-5.2929,-5.2929,-5.2929,-5.2929,-5.2929,-5.2929,-5.2929,-5.2929,-5.2929,-5.2929,-5.2929,-5.2929,-5.2929,-5.2929,-5.2929,-5.2929,-5.2929,-5.2929,-5.2929,-5.2929,-5.2929,-5.2929,-5.2929,-5.2929,-5.2929,-5.2929,-5.2929,-5.2929,-5.2929,-5.2929,-5.2929,-5.2929,-5.2929,-5.2929,-5.2929,-5.2929,-5.2929,-5.2929,-5.2929,-5.2929,-5.2929,-5.2929,-5.2929,-5.2929,-5.2929,-5.2929,-5.2929,-5.2929,-5.2929,-5.2929,-5.2929,-5.2929,-5.2929,-5.2929,-5.2929,-5.2929,-5.2929,-5.2929,-5.2929,-5.2929,-5.2929,-5.2929,-5.2929,-5.2929,-5.2427,-5.2126,-5.2101,-5.1071,-5.0469,-5.0419,-4.9916,-4.9615,-4.959,-4.959,-4.959,-4.959,-4.959,-4.959,-5.1294,0.0,0.0,0.0,0.0,0.0,0.0,0.0,0.0,0.0,0.0,0.0,0.0,0.0,0.0,0.0,0.0,0.0,0.0,0.0,0.0,0.0,0.0,0.0,0.0,0.0,0.0,0.0,0.0,0.0,-5.2929,-5.2929,-5.2929,-5.2929,-5.2929,-5.2929,-5.2929,-5.2929,-5.2929,-5.2929,-5.2929,-5.2929,-5.2929,-5.2929,-5.2929,-5.2929,-5.2929,-5.2929,-5.2929,-5.2929,-5.2929,-5.2929,-5.2929,-5.2929,-5.2929,-5.2929,-5.2929,-5.2929,-5.2929,-5.2929,-5.2929,-5.2929,-5.2929,-5.2929,-5.2929,-5.2929,-5.2929,-5.2929,-5.2929,-5.2929,-5.2929,-5.2929,-5.2929,-5.2929,-5.2929,-5.2929,-5.2929,-5.2929,-5.2929,-5.2929,-5.2929,-5.2929,-5.2929,-5.2929,-5.2929,-5.2929,-5.2929,-5.2929,-5.2929,-5.2929,-5.2929,-5.2929,-5.2929,-5.2929,-5.2929,-5.2929,-5.2779,-5.2427,-5.2226,-5.1774,-5.1046,-5.0645,-5.0243,-4.9891,-4.969,-4.959,-4.959,-4.959,-4.959,-4.959,-4.959,-4.959,-5.0689,-5.027,0.0,0.0,0.0,0.0,0.0,0.0,0.0,0.0,0.0,0.0,0.0,0.0,0.0,0.0,0.0,0.0,0.0,0.0,0.0,0.0,0.0,0.0,0.0,0.0,0.0,0.0,0.0,0.0,-5.2929,-5.2929,-5.2929,-5.2929,-5.2929,-5.2929,-5.2929,-5.2929,-5.2929,-5.2929,-5.2929,-5.2929,-5.2929,-5.2929,-5.2929,-5.2929,-5.2929,-5.2929,-5.2929,-5.2929,-5.2929,-5.2929,-5.2929,-5.2929,-5.2929,-5.2929,-5.2929,-5.2929,-5.2929,-5.2929,-5.2929,-5.2929,-5.2929,-5.2929,-5.2929,-5.2929,-5.2929,-5.2929,-5.2929,-5.2929,-5.2929,-5.2929,-5.2929,-5.2929,-5.2929,-5.2929,-5.2929,-5.2929,-5.2929,-5.2929,-5.2929,-5.2929,-5.2929,-5.2929,-5.2929,-5.2929,-5.2929,-5.2929,-5.2929,-5.2929,-5.2929,-5.2929,-5.2754,-5.2653,-5.2653,-5.2477,-5.2226,-5.185,-5.1649,-5.1197,-5.0444,-5.0243,-4.9967,-4.9615,-4.959,-4.959,-4.959,-4.959,-4.959,-4.959,-4.959,-4.959,0.0,0.0,0.0,0.0,0.0,0.0,0.0,0.0,0.0,0.0,0.0,0.0,0.0,0.0,0.0,0.0,0.0,0.0,0.0,0.0,0.0,0.0,0.0,0.0,0.0,0.0,0.0,0.0,0.0,-5.2929,-5.2929,-5.2929,-5.2929,-5.2929,-5.2929,-5.2929,-5.2929,-5.2929,-5.2929,-5.2929,-5.2929,-5.2929,-5.2929,-5.2929,-5.2929,-5.2929,-5.2929,-5.2929,-5.2929,-5.2929,-5.2929,-5.2929,-5.2929,-5.2929,-5.2929,-5.2929,-5.2929,-5.2929,-5.2929,-5.2929,-5.2929,-5.2929,-5.2929,-5.2929,-5.2929,-5.2929,-5.2929,-5.2929,-5.2929,-5.2929,-5.2929,-5.2929,-5.2929,-5.2929,-5.2929,-5.2929,-5.2929,-5.2904,-5.2836,-5.2929,-5.2929,-5.2929,-5.2904,-5.2904,-5.2904,-5.2879,-5.2879,-5.2879,-5.2879,-5.2879,-5.2879,-5.2879,-5.2402,-5.2076,-5.2076,-5.1599,-5.1272,-5.1247,-5.072,-5.0419,-5.0393,-4.9891,-4.959,-4.959,-4.959,-4.959,-4.959,-4.959,-4.959,-4.959,-4.959,-4.959,-5.0499,0.0,0.0,0.0,0.0,0.0,0.0,0.0,0.0,0.0,0.0,0.0,0.0,0.0,0.0,0.0,0.0,0.0,0.0,0.0,0.0,0.0,0.0,0.0,0.0,0.0,0.0,0.0,-5.2929,-5.2929,-5.2929,-5.2929,-5.2929,-5.2929,-5.2929,-5.2929,-5.2929,-5.2929,-5.2929,-5.2929,-5.2929,-5.2929,-5.2929,-5.2929,-5.2929,-5.2929,-5.2929,-5.2929,-5.2929,-5.2929,-5.2929,-5.2929,-5.2929,-5.2929,-5.2929,-5.2929,-5.2929,-5.2929,-5.2929,-5.2929,-5.2929,-5.2929,-5.2929,-5.2929,-5.2929,-5.2929,-5.2929,-5.2929,-5.2929,-5.2929,-5.2929,-5.2929,-5.2929,-5.2929,-5.2929,-5.2929,-5.2929,-5.251,-5.2241,-5.2785,-5.2929,-5.2804,-5.2402,-5.2327,-5.2201,-5.18,-5.1724,-5.1724,-5.1724,-5.1724,-5.1724,-5.1724,-5.1599,-5.1498,-5.1498,-5.1373,-5.1096,-5.0695,-5.0494,-5.0243,-4.9841,-4.9665,-4.959,-4.959,-4.959,-4.959,-4.959,-4.959,-4.959,-4.959,-4.959,-4.959,-4.959,-4.959,-4.959,-4.959,0.0,0.0,-4.959,0.0,0.0,0.0,0.0,0.0,0.0,0.0,0.0,0.0,0.0,0.0,0.0,0.0,0.0,0.0,0.0,0.0,0.0,0.0,0.0,0.0,-5.2929,-5.2929,-5.2929,-5.2929,-5.2929,-5.2929,-5.2929,-5.2929,-5.2929,-5.2929,-5.2929,-5.2929,-5.2929,-5.2929,-5.2929,-5.2929,-5.2923,-5.284,-5.2459,-5.2241,-5.2251,-5.2251,-5.2259,-5.2248,-5.2366,-5.2334,-5.2251,-5.2251,-5.2251,-5.2251,-5.2251,-5.2251,-5.2251,-5.2251,-5.2251,-5.2251,-5.2251,-5.2251,-5.2277,-5.2528,-5.2754,-5.2929,-5.2929,-5.2929,-5.2666,-5.1731,-5.2248,-5.2765,-5.209,-5.1883,-5.1925,-5.2477,-5.2402,-5.2126,-5.1825,-5.1749,-5.1649,-5.1322,-5.1272,-5.1272,-5.1272,-5.1272,-5.1272,-5.1272,-5.1071,-5.0921,-5.0921,-5.072,-5.0444,-5.0092,-5.0067,-4.9941,-4.9615,-4.959,-4.959,-4.959,-4.959,-4.959,-4.959,-4.959,-4.959,-4.959,-4.959,-4.959,-4.959,-4.959,-4.959,-4.959,-4.959,0.0,-4.959,-4.959,0.0,0.0,0.0,0.0,0.0,0.0,0.0,0.0,0.0,0.0,0.0,0.0,0.0,0.0,0.0,0.0,0.0,0.0,-5.2929,-5.2929,-5.2929,-5.2929,-5.2929,-5.2929,-5.2929,-5.2929,-5.2929,-5.2929,-5.2929,-5.2929,-5.2929,-5.2929,-5.2929,-5.2904,-5.2829,-5.2854,-5.2909,-5.2827,-5.179,-5.1255,-5.113,-5.118,-5.1222,-5.1227,-5.1555,-5.1489,-5.1272,-5.1272,-5.1272,-5.1272,-5.1272,-5.1272,-5.1272,-5.1272,-5.1272,-5.1272,-5.1272,-5.1272,-5.1373,-5.1875,-5.2377,-5.2779,-5.2872,-5.2898,-5.2391,-5.0438,-5.132,-5.2228,-5.0955,-5.1222,-5.1699,-5.185,-5.1574,-5.1272,-5.1197,-5.1197,-5.1172,-5.1096,-5.1096,-5.1096,-5.1096,-5.1096,-5.1096,-5.1096,-5.0619,-5.0318,-5.0318,-4.9866,-4.959,-4.959,-4.959,-4.959,-4.959,-4.959,-4.959,-4.959,-4.959,-4.959,-4.959,-4.959,-4.959,-4.959,-4.959,-4.959,-4.959,-4.959,-4.959,-4.959,-4.959,0.0,-4.959,-4.959,0.0,0.0,0.0,0.0,0.0,0.0,0.0,0.0,0.0,0.0,0.0,0.0,0.0,0.0,0.0,0.0,0.0,0.0,-5.2929,-5.2929,-5.2929,-5.2929,-5.2929,-5.2929,-5.2929,-5.2929,-5.2929,-5.2929,-5.2929,-5.2929,-5.2929,-5.2929,-5.2929,-5.2703,-5.2277,-5.2725,-5.2894,-5.2833,-5.1774,-5.0789,-5.0016,-5.0572,-5.0789,-5.0838,-5.0888,-5.1047,-5.1272,-5.1272,-5.1272,-5.1272,-5.1272,-5.1272,-5.1272,-5.1272,-5.1272,-5.1272,-5.1272,-5.1272,-5.1297,-5.1423,-5.1733,-5.2161,-5.275,-5.2893,-5.2817,-5.2362,-5.1214,-5.0305,-5.0622,-5.0804,-5.0852,-5.0745,-5.1046,-5.1147,-5.067,-5.0594,-5.0444,-4.9992,-4.9916,-4.9916,-4.9916,-4.9916,-4.9916,-4.9916,-4.9816,-4.9766,-4.9766,-4.9665,-4.959,-4.959,-4.959,-4.959,-4.959,-4.959,-4.959,-4.959,-4.959,-4.959,-4.959,-4.959,-4.959,-4.959,-4.959,-4.959,-4.959,-4.959,-4.959,-4.959,-4.959,0.0,0.0,0.0,0.0,0.0,0.0,0.0,0.0,0.0,0.0,0.0,0.0,0.0,0.0,0.0,0.0,0.0,0.0,0.0,0.0,0.0,-5.2226,-5.2503,-5.2528,-5.2628,-5.2904,-5.2929,-5.2929,-5.2929,-5.2929,-5.2929,-5.2929,-5.2653,-5.2528,-5.2528,-5.2226,-5.2068,-5.1934,-5.2052,-5.2076,-5.2012,-5.0937,-5.014,-4.9635,-4.9981,-5.0122,-5.0147,-5.0422,-5.0488,-5.0444,-5.0444,-5.0444,-5.0444,-5.0444,-5.0444,-5.0444,-5.0444,-5.0444,-5.0444,-5.0444,-5.0645,-5.0845,-5.0845,-5.1163,-5.1623,-5.1975,-5.1715,-5.1222,-5.1245,-5.0406,-4.9686,-5.0056,-5.0127,-5.0132,-5.0017,-5.0243,-5.0343,-5.0067,-5.0017,-4.9916,-4.964,-4.959,-4.959,-4.959,-4.959,-4.959,-4.959,-4.959,-4.959,-4.959,-4.959,-4.959,-4.959,-4.959,-4.959,-4.959,-4.959,-4.959,-4.959,-4.959,-4.959,-4.959,-4.959,-4.959,-4.959,-4.959,-4.959,-4.959,-4.959,-4.959,-4.959,-4.959,-4.959,0.0,0.0,0.0,0.0,0.0,0.0,0.0,0.0,0.0,0.0,0.0,0.0,0.0,0.0,0.0,0.0,0.0,0.0,0.0,0.0,-5.1473,-5.1925,-5.195,-5.2126,-5.2578,-5.2603,-5.2603,-5.2603,-5.2603,-5.2603,-5.2603,-5.2176,-5.195,-5.195,-5.1498,-5.1431,-5.1564,-5.1355,-5.1144,-5.0937,-5.0037,-4.9581,-4.959,-4.959,-4.959,-4.964,-5.0092,-4.9992,-4.959,-4.959,-4.959,-4.959,-4.959,-4.959,-4.959,-4.959,-4.959,-4.959,-4.959,-4.9916,-5.0268,-5.0268,-5.0594,-5.0946,-5.0946,-5.0273,-4.9595,-4.961,-4.9601,-4.9591,-4.9601,-4.959,-4.959,-4.959,-4.959,-4.959,-4.959,-4.959,-4.959,-4.959,-4.959,-4.959,-4.959,-4.959,-4.959,-4.959,-4.959,-4.959,-4.959,-4.959,-4.959,-4.959,-4.959,-4.959,-4.959,-4.959,-4.959,-4.959,-4.959,-4.959,-4.959,-4.959,-4.959,-4.959,-4.959,-4.959,-4.959,-4.959,-4.959,-4.959,-4.959,-4.959,-4.959,0.0,-4.959,-4.959,0.0,0.0,0.0,0.0,0.0,0.0,0.0,0.0,0.0,0.0,0.0,0.0,0.0,0.0,0.0,0.0,0.0,-5.1373,-5.1373,-5.1398,-5.1473,-5.1473,-5.1473,-5.1473,-5.1473,-5.1473,-5.1473,-5.1398,-5.1373,-5.1373,-5.1322,-5.1138,-5.0842,-5.1165,-5.0771,-4.978,-4.9665,-4.964,-4.959,-4.959,-4.959,-4.9615,-4.9665,-4.964,-4.959,-4.959,-4.959,-4.959,-4.959,-4.959,-4.959,-4.959,-4.959,-4.959,-4.959,-4.964,-4.969,-4.969,-4.9741,-4.9791,-4.9791,-4.9676,-4.9561,-4.9601,-4.9576,-4.9576,-4.9615,-4.959,-4.959,-4.959,-4.959,-4.959,-4.959,-4.959,-4.959,-4.959,-4.959,-4.959,-4.959,-4.959,-4.959,-4.959,-4.959,-4.959,-4.959,-4.959,-4.959,-4.959,-4.959,-4.959,-4.959,-4.959,-4.959,-4.959,-4.959,-4.959,-4.959,-4.959,-4.959,-4.959,-4.959,-4.959,-4.959,-4.959,-4.959,-4.959,-4.959,-4.959,-4.959,-4.959,-4.959,-4.959,0.0,0.0,0.0,0.0,0.0,0.0,-4.959,0.0,0.0,0.0,0.0,0.0,0.0,0.0,0.0,0.0,0.0,0.0,0.0,-5.0921,-5.1272,-5.1272,-5.1272,-5.1272,-5.1272,-5.1272,-5.1272,-5.0946,-5.077,-5.077,-5.0469,-5.0258,-5.0057,-5.0262,-5.0046,-4.959,-4.959,-4.959,-4.959,-4.959,-4.959,-4.959,-4.959,-4.959,-4.959,-4.959,-4.959,-4.959,-4.959,-4.959,-4.959,-4.959,-4.959,-4.959,-4.959,-4.959,-4.959,-4.959,-4.959,-4.959,-4.959,-4.959,-4.959,-4.959,-4.959,-4.959,-4.959,-4.959,-4.959,-4.959,-4.959,-4.959,-4.959,-4.959,-4.959,-4.959,-4.959,-4.959,-4.959,-4.959,-4.959,-4.959,-4.959,-4.959,-4.959,-4.959,-4.959,-4.959,-4.959,-4.959,-4.959,-4.959,-4.959,-4.959,-4.959,-4.959,-4.959,-4.959,-4.959,-4.959,-4.959,-4.959,-4.959,-4.959,-4.959,-4.959,-4.959,-4.959,-4.959,-4.959,-4.959,-4.959,-4.959,0.0,0.0,0.0,-4.959,-4.959,0.0,-4.959,0.0,0.0,0.0,0.0,0.0,0.0,0.0,0.0,0.0,0.0,-5.0193,0.0,-5.0795,-5.082,-5.082,-5.082,-5.082,-5.082,-5.082,-5.0393,-5.0193,-5.0193,-4.9791,-4.959,-4.959,-4.959,-4.959,-4.959,-4.959,-4.959,-4.959,-4.959,-4.959,-4.959,-4.959,-4.959,-4.959,-4.959,-4.959,-4.959,-4.959,-4.959,-4.959,-4.959,-4.959,-4.959,-4.959,-4.959,-4.959,-4.959,-4.959,-4.959,-4.959,-4.959,-4.959,-4.959,-4.959,-4.959,-4.959,-4.959,-4.959,-4.959,-4.959,-4.959,-4.959,-4.959,-4.959,-4.959,-4.959,-4.959,-4.959,-4.959,-4.959,-4.959,-4.959,-4.959,-4.959,-4.959,-4.959,-4.959,-4.959,-4.959,-4.959,-4.959,-4.959,-4.959,-4.959,-4.959,-4.959,-4.959,-4.959,-4.959,-4.959,-4.959,-4.959,0.0,-4.959,-4.959,-4.959,-4.959,-4.959,-4.959,-4.959,-4.959,-4.959,-4.959,-4.959,-4.959,-4.959,-4.959,-4.959,0.0,0.0,-4.959,0.0,0.0,0.0,0.0,0.0,0.0,0.0,0.0,-4.9615,0.0,-4.964,-4.964,-4.964,-4.964,-4.964,-4.964,-4.964,-4.964,-4.9615,-4.9615,-4.9615,-4.959,-4.959,-4.959,-4.959,-4.959,-4.959,-4.959,-4.959,-4.959,-4.959,-4.959,-4.959,-4.959,-4.959,-4.959,-4.959,-4.959,-4.959,-4.959,-4.959,-4.959,-4.959,-4.959,-4.959,-4.959,-4.959,-4.959,-4.959,-4.959,-4.959,-4.959,-4.959,-4.959,-4.959,-4.959,-4.959,-4.959,-4.959,-4.959,-4.959,-4.959,-4.959,-4.959,-4.959,-4.959,-4.959,-4.959,-4.959,-4.959,-4.959,-4.959,-4.959,-4.959,-4.959,-4.959,-4.959,-4.959,-4.959,-4.959,-4.959,-4.959,-4.959,-4.959,-4.959,-4.959,-4.959,-4.959,-4.959,-4.959,-4.959,-4.959,0.0,0.0,-4.959,-4.959,0.0,0.0,-4.959,-4.959,-4.959,-4.959,-4.959,-4.959,-4.959,-4.959,-4.959,-4.959,-4.959,-4.959,0.0,-4.959,0.0,0.0,0.0,0.0,0.0,0.0,0.0,-4.959,-4.959,-4.959,0.0,-4.959,-4.959,-4.959,-4.959,-4.959,-4.959,-4.959,-4.959,-4.959,-4.959,-4.959,-4.959,-4.959,-4.959,-4.959,-4.959,-4.959,-4.959,-4.959,-4.959,-4.959,-4.959,-4.959,-4.959,-4.959,-4.959,-4.959,-4.959,-4.959,-4.959,-4.959,-4.959,-4.959,-4.959,-4.959,-4.959,-4.959,-4.959,-4.959,-4.959,-4.959,-4.959,-4.959,-4.959,-4.959,-4.959,-4.959,-4.959,-4.959,-4.959,-4.959,-4.959,-4.959,-4.959,-4.959,-4.959,-4.959,-4.959,-4.959,-4.959,-4.959,-4.959,-4.959,-4.959,-4.959,-4.959,-4.959,-4.959,-4.959,-4.959,-4.959,-4.959,-4.959,-4.959,-4.959,-4.959,-4.959,-4.959,-4.959,-4.959,-4.959,-4.959,-4.959,0.0,-4.959,-4.959,0.0,-4.959,-4.959,-4.959,-4.959,-4.959,-4.959,-4.959,-4.959,-4.959,-4.959,-4.959,-4.959,0.0,-4.959,-4.959,0.0,0.0,-4.959,0.0,0.0,0.0,-4.959,-4.959,-4.959,0.0,0.0,-4.959,-4.959,-4.959,-4.959,-4.959,-4.959,-4.959,-4.959,-4.959,-4.959,-4.959,-4.959,-4.959,-4.959,-4.959,-4.959,-4.959,-4.959,-4.959,-4.959,-4.959,-4.959,-4.959,-4.959,-4.959,-4.959,-4.959,-4.959,-4.959,-4.959,-4.959,-4.959,-4.959,-4.959,-4.959,-4.959,-4.959,-4.959,-4.959,-4.959,-4.959,-4.959,-4.959,-4.959,-4.959,-4.959,-4.959,-4.959,-4.959,-4.959,-4.959,-4.959,-4.959,-4.959,-4.959,-4.959,-4.959,-4.959,-4.959,-4.959,-4.959,-4.959,-4.959,-4.959,-4.959,-4.959,-4.959,-4.959,-4.959,-4.959,-4.959,-4.959,-4.959,-4.959,-4.959,-4.959,-4.959,-4.959,-4.959,-4.959]},{"header":{"parameterUnit":"m.s-1","parameterCategory":1,"la1":30.6,"la2":29.2853,"lo1":-89.7004,"lo2":-87.6739,"dy":0.0162,"dx":0.0183,"nx":112,"ny":82,"refTime":"2023-06-15T00:00:00:Z","depth":0,"parameterNumber":3,"parameterNumberName":"V-component_of_WINDS"},"data":[0.0,0.0,0.0,0.0,0.0,0.0,0.0,0.0,0.0,0.0,0.0,0.0,0.0,0.0,0.0,0.0,0.0,0.0,0.0,0.0,0.0,0.0,0.0,0.0,0.0,0.0,0.0,0.0,0.0,0.0,0.0,0.0,0.0,0.0,0.0,0.0,0.0,0.0,0.0,0.0,0.0,0.0,0.0,0.0,0.0,0.0,0.0,0.0,0.0,0.0,0.0,0.0,0.0,0.0,0.0,0.0,0.0,0.0,0.0,0.0,0.0,0.0,0.0,0.0,0.0,0.0,0.0,0.0,0.0,0.0,0.0,0.0,0.0,0.0,0.0,0.0,0.0,0.0,0.0,0.0,0.0,0.0,0.0,0.0,0.0,0.0,0.0,0.0,0.0,0.0,-4.4112,-4.4669,-4.4918,-4.5203,-4.5573,-4.5952,-4.6214,-4.6276,0.0,0.0,0.0,0.0,0.0,0.0,0.0,0.0,0.0,0.0,0.0,0.0,0.0,0.0,0.0,0.0,0.0,0.0,0.0,0.0,0.0,0.0,0.0,0.0,0.0,0.0,0.0,0.0,0.0,0.0,0.0,0.0,0.0,0.0,0.0,0.0,0.0,0.0,0.0,0.0,0.0,0.0,0.0,0.0,0.0,0.0,0.0,0.0,0.0,0.0,0.0,0.0,0.0,0.0,0.0,0.0,0.0,0.0,0.0,0.0,0.0,0.0,0.0,0.0,0.0,0.0,0.0,0.0,0.0,0.0,0.0,0.0,0.0,0.0,0.0,0.0,0.0,0.0,0.0,0.0,0.0,0.0,0.0,0.0,0.0,0.0,0.0,0.0,0.0,0.0,0.0,0.0,0.0,0.0,0.0,0.0,0.0,0.0,0.0,0.0,0.0,0.0,0.0,0.0,-4.4715,-4.528,-4.6296,-4.6669,-4.6245,-4.8047,-4.8421,-4.6421,0.0,0.0,0.0,0.0,0.0,0.0,0.0,0.0,0.0,0.0,0.0,0.0,0.0,0.0,0.0,0.0,0.0,0.0,0.0,0.0,0.0,0.0,0.0,0.0,0.0,0.0,0.0,0.0,0.0,0.0,0.0,0.0,0.0,0.0,0.0,0.0,0.0,0.0,0.0,0.0,0.0,0.0,0.0,0.0,0.0,0.0,0.0,0.0,0.0,0.0,0.0,0.0,0.0,0.0,0.0,0.0,0.0,0.0,0.0,0.0,0.0,0.0,0.0,0.0,0.0,0.0,0.0,0.0,0.0,0.0,0.0,0.0,0.0,0.0,0.0,0.0,0.0,0.0,0.0,0.0,0.0,0.0,0.0,0.0,0.0,0.0,0.0,0.0,0.0,0.0,0.0,0.0,0.0,0.0,0.0,0.0,0.0,0.0,0.0,0.0,0.0,0.0,0.0,-4.5176,-4.5899,-4.6791,-4.7392,-4.7864,-4.821,-4.9247,-4.9418,-4.8326,-4.8236,0.0,0.0,0.0,0.0,0.0,0.0,0.0,0.0,0.0,0.0,0.0,0.0,0.0,0.0,0.0,0.0,0.0,0.0,0.0,0.0,0.0,0.0,0.0,0.0,0.0,0.0,0.0,0.0,0.0,0.0,0.0,0.0,0.0,0.0,0.0,0.0,0.0,0.0,0.0,0.0,0.0,0.0,0.0,0.0,0.0,0.0,0.0,0.0,0.0,0.0,0.0,0.0,0.0,0.0,0.0,0.0,0.0,0.0,0.0,0.0,0.0,0.0,0.0,0.0,0.0,0.0,0.0,0.0,0.0,0.0,0.0,0.0,0.0,0.0,0.0,0.0,0.0,0.0,0.0,0.0,0.0,0.0,0.0,0.0,0.0,0.0,0.0,0.0,0.0,0.0,0.0,0.0,0.0,0.0,0.0,0.0,0.0,0.0,0.0,0.0,0.0,0.0,-4.602,-4.6773,-4.799,-4.8373,-4.8904,-4.9788,-5.0406,-5.0545,-4.9928,-5.0182,0.0,0.0,0.0,0.0,0.0,0.0,0.0,0.0,0.0,0.0,0.0,0.0,0.0,0.0,0.0,0.0,0.0,0.0,0.0,0.0,0.0,0.0,0.0,0.0,0.0,0.0,0.0,0.0,0.0,0.0,0.0,0.0,0.0,0.0,0.0,0.0,0.0,0.0,0.0,0.0,0.0,0.0,0.0,0.0,0.0,0.0,0.0,0.0,0.0,0.0,0.0,0.0,0.0,0.0,0.0,0.0,0.0,0.0,0.0,0.0,0.0,0.0,0.0,0.0,0.0,0.0,0.0,0.0,0.0,0.0,0.0,0.0,0.0,0.0,0.0,0.0,0.0,0.0,0.0,0.0,0.0,0.0,0.0,0.0,0.0,0.0,0.0,0.0,0.0,0.0,0.0,0.0,0.0,0.0,0.0,0.0,0.0,0.0,0.0,0.0,0.0,0.0,-4.6301,-4.679,-4.7963,-4.9069,-4.9816,-4.9901,-5.1948,-5.2272,-5.0014,-5.0962,0.0,0.0,0.0,0.0,0.0,0.0,0.0,0.0,0.0,0.0,0.0,0.0,0.0,0.0,0.0,0.0,0.0,0.0,0.0,0.0,0.0,0.0,0.0,0.0,0.0,0.0,0.0,0.0,0.0,0.0,0.0,0.0,0.0,0.0,0.0,0.0,0.0,0.0,0.0,0.0,0.0,0.0,0.0,0.0,0.0,0.0,0.0,0.0,0.0,0.0,0.0,0.0,0.0,0.0,0.0,0.0,0.0,0.0,0.0,0.0,0.0,0.0,0.0,0.0,0.0,0.0,0.0,0.0,0.0,0.0,0.0,0.0,0.0,0.0,0.0,0.0,0.0,0.0,0.0,0.0,0.0,0.0,0.0,0.0,0.0,0.0,0.0,0.0,0.0,0.0,0.0,0.0,0.0,0.0,0.0,0.0,0.0,0.0,0.0,0.0,0.0,0.0,-4.6957,-4.7853,-4.9069,-5.0269,-5.132,-5.211,-5.2943,-5.3131,-5.2218,0.0,0.0,0.0,0.0,0.0,0.0,0.0,0.0,0.0,0.0,0.0,0.0,0.0,0.0,0.0,0.0,0.0,0.0,0.0,0.0,0.0,0.0,0.0,0.0,0.0,0.0,0.0,0.0,0.0,0.0,0.0,0.0,0.0,0.0,0.0,0.0,0.0,0.0,0.0,0.0,0.0,0.0,0.0,0.0,0.0,0.0,0.0,0.0,0.0,0.0,0.0,0.0,0.0,0.0,0.0,0.0,0.0,0.0,0.0,0.0,0.0,0.0,0.0,0.0,0.0,0.0,0.0,0.0,0.0,0.0,0.0,0.0,0.0,0.0,0.0,0.0,0.0,0.0,0.0,0.0,0.0,0.0,0.0,0.0,0.0,0.0,0.0,0.0,0.0,0.0,0.0,0.0,0.0,0.0,0.0,0.0,0.0,0.0,0.0,0.0,0.0,0.0,-4.6863,-4.7955,-4.9106,-5.0326,-5.118,-5.219,-5.3395,-5.35,-5.35,-5.35,0.0,0.0,0.0,0.0,0.0,0.0,0.0,0.0,0.0,0.0,0.0,0.0,0.0,0.0,0.0,0.0,0.0,0.0,0.0,0.0,0.0,0.0,0.0,0.0,0.0,0.0,0.0,0.0,0.0,0.0,0.0,0.0,0.0,0.0,0.0,0.0,0.0,0.0,0.0,0.0,0.0,0.0,0.0,0.0,0.0,0.0,0.0,0.0,0.0,0.0,0.0,0.0,0.0,0.0,0.0,0.0,0.0,0.0,0.0,0.0,0.0,0.0,0.0,0.0,0.0,0.0,0.0,0.0,0.0,0.0,0.0,0.0,0.0,0.0,0.0,0.0,0.0,0.0,0.0,0.0,0.0,0.0,0.0,0.0,0.0,0.0,0.0,0.0,0.0,0.0,0.0,0.0,0.0,0.0,0.0,0.0,0.0,0.0,0.0,0.0,0.0,0.0,-4.8076,-4.9146,-5.0353,-5.1555,-5.1742,-5.219,-5.3395,-5.35,-5.35,0.0,0.0,0.0,0.0,0.0,0.0,0.0,0.0,0.0,0.0,0.0,0.0,0.0,0.0,0.0,0.0,0.0,0.0,0.0,0.0,0.0,0.0,0.0,0.0,0.0,0.0,0.0,0.0,0.0,0.0,0.0,0.0,0.0,0.0,0.0,0.0,0.0,0.0,0.0,0.0,0.0,0.0,0.0,0.0,0.0,0.0,0.0,0.0,0.0,0.0,0.0,0.0,0.0,0.0,0.0,0.0,0.0,0.0,0.0,0.0,0.0,0.0,0.0,0.0,0.0,0.0,0.0,0.0,0.0,0.0,0.0,0.0,0.0,0.0,0.0,0.0,0.0,0.0,0.0,0.0,0.0,0.0,0.0,0.0,0.0,0.0,0.0,0.0,0.0,0.0,0.0,0.0,0.0,0.0,0.0,0.0,0.0,0.0,0.0,0.0,0.0,0.0,0.0,-4.8076,-4.9895,-5.133,-5.1692,-5.2427,-5.3102,-5.3448,-5.35,-5.3704,-5.4197,0.0,0.0,0.0,0.0,0.0,0.0,0.0,0.0,0.0,0.0,0.0,0.0,0.0,0.0,0.0,0.0,0.0,0.0,0.0,0.0,0.0,0.0,0.0,0.0,0.0,0.0,0.0,0.0,0.0,0.0,0.0,0.0,0.0,0.0,0.0,0.0,0.0,0.0,0.0,0.0,0.0,0.0,0.0,0.0,0.0,0.0,0.0,0.0,0.0,0.0,0.0,0.0,0.0,0.0,0.0,0.0,0.0,0.0,0.0,0.0,0.0,0.0,0.0,0.0,0.0,0.0,0.0,0.0,0.0,0.0,0.0,0.0,0.0,0.0,0.0,0.0,0.0,0.0,0.0,0.0,0.0,0.0,0.0,0.0,0.0,0.0,0.0,0.0,0.0,0.0,0.0,0.0,0.0,0.0,0.0,0.0,0.0,0.0,0.0,0.0,0.0,0.0,-4.9459,-5.1449,-5.2816,-5.2804,-5.3654,-5.4284,-5.4284,-5.4284,-5.4429,-5.4836,0.0,0.0,0.0,0.0,0.0,0.0,0.0,0.0,0.0,0.0,0.0,0.0,0.0,0.0,0.0,0.0,0.0,0.0,0.0,0.0,0.0,0.0,0.0,0.0,0.0,0.0,0.0,0.0,0.0,0.0,0.0,0.0,0.0,0.0,0.0,0.0,0.0,0.0,0.0,0.0,0.0,0.0,0.0,0.0,0.0,0.0,0.0,0.0,0.0,0.0,0.0,0.0,0.0,0.0,0.0,0.0,0.0,0.0,0.0,0.0,0.0,0.0,0.0,0.0,0.0,0.0,0.0,0.0,0.0,0.0,0.0,0.0,0.0,0.0,0.0,0.0,0.0,0.0,0.0,0.0,0.0,0.0,0.0,0.0,0.0,0.0,0.0,0.0,0.0,0.0,0.0,0.0,0.0,0.0,0.0,0.0,0.0,0.0,0.0,0.0,0.0,0.0,-5.1733,-5.3435,-5.4595,-5.4579,-5.5068,-5.5416,-5.5416,-5.5416,-5.5445,-5.5503,0.0,0.0,0.0,0.0,0.0,0.0,0.0,0.0,0.0,0.0,0.0,0.0,0.0,0.0,0.0,0.0,0.0,0.0,0.0,0.0,0.0,0.0,0.0,0.0,0.0,0.0,0.0,0.0,0.0,0.0,0.0,0.0,0.0,0.0,0.0,0.0,0.0,0.0,0.0,0.0,0.0,0.0,0.0,0.0,0.0,0.0,0.0,0.0,0.0,0.0,0.0,0.0,0.0,0.0,0.0,0.0,0.0,0.0,0.0,0.0,-5.0491,0.0,0.0,0.0,0.0,0.0,0.0,0.0,0.0,0.0,0.0,0.0,0.0,0.0,0.0,0.0,0.0,0.0,0.0,0.0,0.0,0.0,0.0,0.0,0.0,0.0,0.0,0.0,0.0,0.0,0.0,0.0,0.0,0.0,0.0,0.0,0.0,0.0,0.0,0.0,0.0,0.0,-5.3026,-5.44,-5.5217,-5.5213,-5.5329,-5.5416,-5.5416,-5.5416,-5.5649,-5.6171,-5.6391,0.0,0.0,0.0,0.0,0.0,0.0,0.0,0.0,0.0,0.0,0.0,0.0,0.0,0.0,0.0,0.0,0.0,0.0,0.0,0.0,0.0,0.0,0.0,0.0,0.0,0.0,0.0,0.0,0.0,0.0,0.0,0.0,0.0,0.0,0.0,0.0,0.0,0.0,0.0,0.0,0.0,0.0,0.0,0.0,0.0,0.0,0.0,0.0,0.0,0.0,0.0,0.0,0.0,0.0,0.0,0.0,0.0,0.0,0.0,0.0,-5.132,0.0,0.0,0.0,0.0,0.0,0.0,0.0,0.0,0.0,0.0,0.0,0.0,0.0,0.0,0.0,0.0,0.0,0.0,0.0,0.0,0.0,0.0,0.0,0.0,0.0,0.0,0.0,0.0,0.0,0.0,0.0,0.0,0.0,0.0,0.0,0.0,0.0,0.0,0.0,0.0,-5.4196,-5.5269,-5.5861,-5.591,-5.6142,-5.6316,-5.6316,-5.6316,-5.6517,-5.7062,-5.7173,0.0,0.0,0.0,0.0,0.0,0.0,0.0,0.0,0.0,0.0,0.0,0.0,0.0,0.0,0.0,0.0,0.0,0.0,0.0,0.0,0.0,0.0,0.0,0.0,0.0,0.0,0.0,0.0,0.0,0.0,0.0,0.0,0.0,0.0,0.0,0.0,0.0,0.0,0.0,0.0,0.0,0.0,0.0,0.0,0.0,0.0,0.0,0.0,0.0,0.0,0.0,0.0,0.0,-5.35,-5.35,-5.3448,-5.2487,-5.2541,-5.35,-5.329,-5.2487,-5.1292,-5.007,0.0,0.0,0.0,0.0,0.0,0.0,0.0,0.0,0.0,0.0,0.0,0.0,0.0,0.0,0.0,0.0,0.0,0.0,0.0,0.0,0.0,0.0,0.0,0.0,-4.728,-4.7154,0.0,0.0,0.0,0.0,0.0,0.0,0.0,0.0,0.0,0.0,0.0,0.0,-5.5451,-5.619,-5.6586,-5.6522,-5.7013,-5.7303,-5.7303,-5.7303,-5.7416,-5.7781,-5.7836,-5.8003,0.0,0.0,0.0,0.0,0.0,0.0,0.0,0.0,0.0,0.0,0.0,0.0,0.0,0.0,0.0,0.0,0.0,0.0,0.0,0.0,0.0,0.0,0.0,0.0,0.0,0.0,0.0,0.0,0.0,0.0,0.0,0.0,-5.0743,-5.1294,0.0,0.0,0.0,0.0,0.0,0.0,0.0,0.0,0.0,0.0,0.0,0.0,0.0,-5.3384,-5.3384,-5.3471,-5.35,-5.35,-5.35,-5.35,-5.35,-5.3343,-5.3343,-5.3448,-5.238,0.0,-5.0014,-4.882,0.0,0.0,0.0,0.0,0.0,0.0,0.0,0.0,0.0,0.0,0.0,0.0,0.0,0.0,0.0,0.0,0.0,0.0,0.0,0.0,0.0,0.0,-4.7707,-4.7782,-4.7807,-4.7782,0.0,-4.7707,-4.8078,-4.9291,-4.9559,0.0,0.0,0.0,0.0,0.0,0.0,0.0,-5.6903,-5.716,-5.716,-5.7187,-5.7245,-5.7303,-5.7303,-5.7303,-5.7416,-5.7781,-5.8003,-5.814,-5.8195,-5.8684,0.0,0.0,0.0,0.0,0.0,0.0,0.0,0.0,0.0,0.0,0.0,0.0,0.0,0.0,0.0,0.0,0.0,0.0,0.0,0.0,0.0,0.0,0.0,0.0,0.0,0.0,0.0,0.0,0.0,-5.0801,-5.1294,-5.1585,-5.1614,-5.1614,0.0,0.0,0.0,0.0,0.0,0.0,0.0,0.0,0.0,-5.35,-5.35,-5.35,-5.35,-5.35,-5.35,-5.35,-5.35,-5.3102,-5.2487,-5.3184,-5.2783,-5.1429,-5.0906,-5.0014,-4.882,-4.8326,-4.7802,-4.7265,0.0,0.0,0.0,0.0,-4.6301,-4.6301,-4.6301,-4.6301,0.0,-4.6677,0.0,0.0,0.0,0.0,0.0,0.0,0.0,0.0,0.0,0.0,-4.7983,-4.8309,-4.8385,-4.8649,-4.9717,-4.938,-4.9141,0.0,-5.0315,-5.0542,-5.1066,0.0,0.0,0.0,0.0,-5.5849,-5.716,-5.7303,-5.7303,-5.7303,-5.7303,-5.7303,-5.7303,-5.7303,-5.7528,-5.7974,-5.814,-5.836,-5.8719,-5.8936,-5.8746,0.0,0.0,0.0,0.0,0.0,0.0,0.0,0.0,0.0,0.0,0.0,0.0,0.0,0.0,0.0,0.0,0.0,0.0,0.0,0.0,0.0,0.0,0.0,0.0,0.0,0.0,0.0,0.0,-5.1556,-5.1933,-5.2078,-5.2107,-5.2107,0.0,0.0,0.0,0.0,0.0,0.0,-5.35,-5.35,-5.35,-5.35,-5.35,-5.35,-5.35,-5.35,-5.35,-5.35,-5.35,-5.289,-5.1729,-5.2648,-5.1866,-4.9845,-4.9562,-4.8935,-4.8094,-4.7769,-4.7652,-4.7534,-4.6636,-4.6301,-4.6326,-4.6476,-4.6527,-4.6552,-4.6677,-4.6728,-4.6778,-4.7205,0.0,-4.7631,-4.8008,0.0,0.0,0.0,0.0,-4.8335,-4.8335,-4.8335,-4.846,-4.8887,-4.8987,-4.9381,-5.0687,-5.0563,-5.0434,0.0,-5.1626,-5.1634,-5.2382,0.0,0.0,0.0,0.0,-5.6219,-5.7189,-5.7303,-5.7303,-5.7303,-5.7303,-5.7303,-5.7416,-5.7416,-5.7696,-5.828,-5.8335,-5.8555,-5.9099,-5.9099,-5.889,-5.8381,0.0,0.0,0.0,0.0,0.0,0.0,0.0,0.0,0.0,0.0,0.0,0.0,0.0,0.0,0.0,0.0,0.0,0.0,0.0,0.0,0.0,0.0,0.0,0.0,0.0,0.0,0.0,0.0,0.0,-5.3355,-5.3413,0.0,0.0,0.0,0.0,-5.3471,-5.3471,-5.3471,-5.35,-5.35,-5.35,-5.35,-5.35,-5.35,-5.35,-5.35,-5.35,-5.35,-5.35,-5.289,-5.1674,-5.1729,-5.1072,-4.9845,-4.8705,-4.8152,-4.8035,-4.6874,-4.6361,-4.6361,-4.6301,-4.6301,-4.6376,-4.6903,-4.7043,-4.7093,-4.7657,-4.7832,-4.7832,-4.7857,-4.8234,-4.8686,-4.8711,-4.9088,0.0,0.0,-4.9515,-4.9515,-4.9515,-4.9515,-4.9515,-4.954,-4.9565,-4.9565,-4.9654,-5.06,-5.2174,0.0,-5.4176,-5.3745,-5.4998,0.0,-5.6736,-5.5509,-5.6418,-5.7218,-5.7303,-5.7303,-5.7303,-5.7303,-5.7303,-5.7416,-5.7725,-5.7781,-5.8003,-5.8639,-5.8694,-5.8773,-5.9099,-5.9099,-5.9099,-5.9069,-5.8441,0.0,0.0,0.0,0.0,0.0,0.0,0.0,0.0,0.0,0.0,0.0,0.0,0.0,0.0,0.0,0.0,0.0,0.0,0.0,0.0,0.0,0.0,0.0,0.0,0.0,0.0,0.0,0.0,-5.3471,-5.35,0.0,-5.35,-5.35,-5.35,-5.35,-5.35,-5.35,-5.35,-5.35,-5.35,-5.35,-5.35,-5.35,-5.35,-5.35,-5.35,-5.35,-5.2701,-5.1702,-5.0518,-5.0518,-4.9448,-4.7619,-4.8309,-4.8195,-4.7434,-4.7363,-4.7129,-4.6828,-4.6828,-4.7054,-4.7355,-4.7556,-4.7631,-4.7657,-4.7832,-4.7908,-4.7958,-4.8335,-4.8837,-4.9289,-4.9289,-4.9439,-4.959,-4.959,-4.959,-4.959,-4.959,-4.959,-4.959,-4.959,-4.959,-4.9847,-5.0664,-5.0563,-5.132,-5.4726,-5.5051,-5.4887,-5.5339,-5.648,-5.6852,-5.5594,-5.6446,-5.7303,-5.7303,-5.7303,-5.7303,-5.7303,-5.7303,-5.736,-5.7472,-5.7669,-5.7948,-5.8335,-5.8555,-5.8828,-5.9099,-5.9099,-5.9099,-5.9099,-5.889,-5.853,0.0,0.0,0.0,0.0,0.0,0.0,0.0,0.0,0.0,0.0,0.0,0.0,0.0,0.0,0.0,0.0,0.0,0.0,0.0,0.0,0.0,0.0,0.0,0.0,0.0,0.0,-5.35,-5.35,-5.35,-5.35,-5.35,-5.35,-5.35,-5.35,-5.35,-5.35,-5.35,-5.35,-5.35,-5.35,-5.35,-5.35,-5.35,-5.35,-5.35,-5.35,-5.2272,-5.1183,-5.017,-4.9744,-4.8544,-4.6914,-4.8033,-4.8125,-4.7431,-4.7757,-4.7832,-4.7657,-4.7481,-4.7606,-4.7933,-4.8134,-4.8209,-4.8234,-4.841,-4.8485,-4.8535,-4.8912,-4.9289,-4.959,-4.959,-4.959,-4.959,-4.959,-4.959,-4.959,-4.959,-4.959,-4.959,-4.959,-4.995,-5.0499,-5.133,-5.1518,-5.2288,-5.4889,-5.5067,-5.5051,-5.5879,-5.6703,-5.7017,-5.619,-5.6788,-5.7303,-5.7303,-5.7303,-5.736,-5.7472,-5.7472,-5.7528,-5.7751,-5.7892,-5.8114,-5.85,-5.8609,-5.8828,-5.9099,-5.9099,-5.9099,-5.9099,-5.9099,-5.877,-5.8112,0.0,0.0,0.0,0.0,0.0,0.0,0.0,0.0,0.0,0.0,0.0,0.0,0.0,0.0,0.0,0.0,0.0,0.0,0.0,0.0,0.0,0.0,0.0,-5.35,-5.35,-5.35,-5.35,-5.35,-5.35,-5.35,-5.353,-5.3559,-5.3559,-5.3559,-5.3559,-5.3559,-5.353,-5.35,-5.35,-5.35,-5.35,-5.35,-5.35,-5.3477,-5.3424,-5.2218,-5.1322,-5.0651,-4.9429,-4.8515,-4.7908,-4.7933,-4.7933,-4.7933,-4.7958,-4.8284,-4.8736,-4.8159,-4.7933,-4.8033,-4.8586,-4.8786,-4.8862,-4.9414,-4.959,-4.959,-4.959,-4.959,-4.959,-4.959,-4.959,-4.959,-4.959,-4.959,-4.959,-4.959,-4.9654,-4.9654,-4.959,-5.0537,-5.1518,-5.1518,-5.3483,-5.5321,-5.5391,-5.4423,-5.4336,-5.6852,-5.7303,-5.7303,-5.7303,-5.7303,0.0,-5.7303,-5.7303,-5.7416,-5.7725,-5.7781,-5.8059,-5.8639,-5.839,-5.85,-5.9045,-5.8828,-5.8857,-5.9099,-5.9099,-5.9099,-5.9099,-5.9099,-5.877,-5.8112,0.0,0.0,0.0,0.0,0.0,0.0,0.0,0.0,0.0,0.0,0.0,0.0,0.0,0.0,0.0,0.0,0.0,0.0,0.0,0.0,0.0,0.0,-5.35,-5.35,-5.35,-5.35,-5.35,-5.35,-5.35,-5.35,-5.3965,-5.4226,-5.4226,-5.4226,-5.4226,-5.4226,-5.3791,-5.35,-5.35,-5.35,-5.35,-5.35,-5.35,-5.3226,-5.2761,-5.1571,-5.0648,-5.0003,-4.8762,-4.8067,-4.7933,-4.836,-4.8535,-4.856,-4.8962,-4.9213,-4.9314,-4.8761,-4.8786,-4.9138,-4.9314,-4.9364,-4.9389,-4.954,-4.959,-4.959,-4.959,-4.959,-4.959,-4.959,-4.959,-4.959,-4.959,-4.959,-4.959,-4.959,-5.0308,-5.0727,-4.9847,-5.0537,-5.1497,-5.1522,-5.2045,-5.3134,-5.505,-5.5095,-5.5372,-5.6994,-5.7303,-5.7303,-5.7303,-5.7303,0.0,-5.7303,-5.7303,-5.736,-5.7416,-5.7669,-5.7892,-5.8003,-5.8335,-5.8609,-5.8773,-5.8936,-5.8991,-5.9099,-5.9099,-5.9099,-5.9099,-5.9099,-5.877,0.0,0.0,0.0,0.0,0.0,0.0,0.0,0.0,0.0,0.0,0.0,0.0,0.0,0.0,0.0,0.0,0.0,0.0,0.0,0.0,0.0,0.0,-5.3762,-5.3936,-5.3936,-5.3704,-5.3617,-5.3907,-5.3936,-5.3936,-5.3936,-5.4284,-5.44,-5.411,-5.4081,-5.4081,-5.4081,-5.3733,-5.35,-5.35,-5.35,-5.3646,-5.3936,-5.3936,-5.3852,-5.3689,-5.198,-5.1067,-5.0883,-4.9106,-4.8385,0.0,-4.8962,-4.9113,-4.9138,-4.9464,-4.959,0.0,0.0,0.0,0.0,0.0,-4.959,-4.959,-4.959,-4.959,-4.959,-4.959,-4.959,-4.959,-4.959,-4.959,-4.959,-4.959,-4.959,-4.959,-4.959,-5.0537,-5.133,-5.0537,-5.1829,-5.3139,-5.3103,-5.3562,-5.4399,-5.5933,-5.6213,0.0,-5.7192,-5.7303,-5.7303,-5.7303,-5.7416,-5.7472,-5.7472,-5.7584,-5.7751,-5.7892,-5.8059,-5.8225,-5.8335,-5.8555,0.0,0.0,0.0,-5.8991,-5.9099,-5.9099,0.0,0.0,0.0,-5.8919,-5.853,0.0,0.0,0.0,-5.6526,-5.6017,0.0,0.0,0.0,0.0,0.0,0.0,0.0,0.0,0.0,0.0,0.0,0.0,0.0,0.0,0.0,0.0,-5.4226,-5.4604,-5.4517,-5.3994,-5.3849,-5.4458,-5.4517,-5.4487,-5.44,-5.4458,-5.4255,-5.3675,-5.3617,-5.3617,-5.3617,0.0,0.0,0.0,0.0,-5.3936,-5.4604,-5.4604,-5.4732,-5.5036,-5.2816,-5.1922,-5.2071,-4.9882,-4.9138,-4.959,-4.959,-4.959,-4.959,-4.959,-4.959,-4.959,-4.959,-4.959,-4.959,-4.959,-4.959,0.0,0.0,0.0,0.0,-4.959,-4.959,-4.959,-4.959,-4.959,-4.959,-4.959,-4.9719,-4.9847,-4.9847,-5.0853,-5.1927,-5.1741,-5.3637,-5.5409,-5.5426,-5.6305,-5.7135,-5.7301,-5.7358,-5.736,-5.7503,-5.7418,-5.7303,-5.736,-5.7613,-5.7781,-5.7836,-5.8029,-5.8335,-5.8609,0.0,0.0,-5.9045,-5.8828,-5.8857,-5.9099,-5.8882,-5.8828,-5.9099,-5.9099,-5.9099,-5.9099,-5.9099,-5.9099,-5.9099,-5.9099,-5.88,-5.8231,-5.7543,-5.6885,0.0,0.0,0.0,0.0,0.0,0.0,0.0,0.0,0.0,0.0,0.0,0.0,0.0,0.0,0.0,-5.5039,-5.5155,-5.5068,-5.4575,-5.44,-5.4371,-5.4487,-5.4517,-5.4313,-5.3762,-5.4197,-5.4458,-5.4342,-5.4313,-5.4313,-5.4313,-5.3791,-5.3762,-5.4313,-5.4313,-5.4604,-5.5242,-5.5242,-5.4512,-5.3045,0.0,0.0,-5.0155,-4.9671,-4.949,-4.959,-4.959,-4.959,-4.959,-4.959,-4.959,-4.959,-4.959,-4.959,-4.959,-4.959,-4.959,-4.959,-4.959,-4.959,-4.959,-4.959,-4.959,-4.959,-4.959,-4.959,0.0,-4.959,-5.0308,-5.1142,-5.1142,-5.291,-5.4382,-5.3362,-5.4263,-5.5376,-5.54,-5.5603,-5.6152,-5.7452,-5.7731,-5.7948,-5.8705,-5.799,-5.7416,-5.7666,-5.7751,-5.7892,-5.8085,-5.814,-5.8195,-5.828,-5.8555,-5.8748,-5.8803,-5.8936,-5.9045,-5.9099,-5.9045,-5.9045,-5.9099,-5.9099,-5.9099,-5.9099,-5.9099,-5.9099,-5.9099,-5.9099,-5.9039,-5.889,-5.8231,-5.7573,0.0,0.0,0.0,0.0,0.0,0.0,0.0,0.0,0.0,0.0,0.0,-5.4952,-5.4952,0.0,-5.4865,-5.4517,-5.4749,-5.4865,-5.4546,-5.4778,-5.4865,-5.4546,-5.4517,-5.4371,-5.4052,-5.4313,-5.4371,-5.4023,-5.4313,-5.4517,-5.4517,-5.4487,-5.4604,-5.4952,-5.4952,-5.5271,-5.591,-5.591,-5.5224,-5.3913,-5.3321,-5.2154,-5.0563,-4.9886,-4.959,-4.959,-4.959,-4.959,-4.959,-4.959,-4.959,-4.959,-4.959,-4.959,-4.959,-4.959,-4.959,-4.959,-4.959,-4.959,-4.959,-4.959,-4.959,-4.959,-4.959,-4.959,-4.9719,-5.0372,-5.1016,-5.1616,-5.2324,-5.4183,-5.5771,-5.5118,-5.6176,-5.7426,-5.7539,-5.7565,-5.7829,-5.8825,-5.8994,-5.9144,-5.9612,-5.9151,-5.8803,-5.8972,-5.9141,-5.9253,-5.9421,-5.9236,-5.9139,-5.9139,-5.9036,-5.8882,-5.8882,-5.8991,-5.9099,-5.9099,-5.9099,-5.9099,-5.9099,-5.9099,-5.9099,-5.9099,-5.9099,-5.9099,-5.9099,-5.9099,-5.9099,-5.9099,-5.877,-5.8261,0.0,0.0,0.0,0.0,0.0,0.0,0.0,-5.5329,-5.5271,-5.5387,-5.5329,-5.5126,-5.4749,-5.4691,-5.4517,-5.3965,-5.4342,-5.4633,-5.4517,-5.4923,-5.5039,-5.4575,-5.4517,-5.4517,-5.4517,-5.4517,-5.4342,-5.3907,-5.4371,-5.4691,-5.4691,-5.5155,-5.5474,-5.5591,-5.5591,-5.591,-5.6578,-5.6578,-5.6163,-5.5412,-5.4084,-5.2815,-5.1429,-5.0181,-4.959,-4.959,-4.959,-4.959,-4.959,-4.959,-4.959,-4.959,-4.959,-4.959,-4.959,-4.959,-4.959,-4.959,-4.959,-4.959,-4.959,-4.959,-4.959,-4.9654,-4.9886,-4.995,-5.027,-5.1648,-5.2209,-5.2757,-5.393,-5.5607,-5.701,-5.701,-5.8262,-5.9534,-5.9782,-5.9787,-5.9911,-6.0235,-6.0262,-6.0375,-6.055,-6.0578,-6.0489,-6.0314,-6.0455,-6.0624,-6.0681,-6.0458,-6.0266,-6.0266,-5.9817,-5.9428,-5.9308,-5.9308,-5.9249,-5.9129,-5.9099,-5.9099,-5.9099,-5.9099,-5.9099,-5.9099,-5.9099,-5.9099,-5.9099,-5.9099,-5.9099,-5.9099,-5.9099,-5.883,-5.5471,-5.5416,-5.5416,-5.5416,-5.5416,-5.5416,0.0,-5.501,-5.4749,-5.53,-5.4981,-5.4749,-5.5213,-5.53,-5.5271,-5.5213,-5.5271,-5.5126,-5.4604,-5.4575,-5.4604,-5.4517,-5.4517,-5.4517,-5.4517,-5.4517,-5.4691,-5.5155,-5.5271,-5.53,-5.53,-5.5358,-5.5678,-5.6287,-5.6287,-5.6578,-5.7187,-5.7216,-5.6594,-5.5412,-5.4084,-5.2815,-5.1429,-5.0181,-4.959,-4.959,-4.959,-4.959,-4.959,-4.959,-4.959,-4.959,-4.959,-4.959,-4.959,-4.959,-4.959,-4.959,-4.959,-4.959,-4.959,-4.959,-4.959,-4.9847,-5.0979,-5.1268,-5.1685,-5.3528,-5.494,-5.6009,-5.6721,-5.8139,-5.9335,-5.9335,-5.9709,-6.0137,-6.0129,-6.0164,-6.0202,-6.0497,-6.0578,-6.0832,-6.1712,-6.1888,-6.1592,-6.0714,-6.0568,-6.0681,-6.0992,-6.0988,-6.1014,-6.1014,-6.0924,-6.0655,-6.0027,-5.9967,-5.9727,-5.9129,-5.9099,-5.9099,-5.9099,-5.9099,-5.9099,-5.9099,-5.9099,-5.9099,-5.9099,-5.9099,-5.9099,-5.9099,-5.9099,-5.9069,-5.6575,-5.652,-5.6432,-5.6084,-5.5997,-5.5881,-5.5503,-5.5213,-5.5097,-5.5358,-5.5213,-5.501,-5.4894,-5.4894,-5.4749,0.0,-5.4313,-5.4342,-5.4487,-5.4517,-5.4633,-5.4981,-5.5039,-5.5039,-5.5039,-5.5039,-5.5126,-5.5387,-5.5765,-5.5997,-5.5997,-5.6316,-5.6636,-5.6926,-5.6926,-5.7042,-5.7303,-5.7303,-5.6651,-5.5412,-5.4084,-5.2815,-5.1429,-5.0181,-4.959,-4.959,-4.959,-4.959,-4.959,-4.959,-4.959,-4.959,-4.959,-4.959,-4.959,-4.959,-4.959,-4.959,-4.959,-4.959,-4.964,-4.9967,-5.0067,-5.0377,-5.205,-5.2511,-5.3071,-5.5401,-5.6605,-5.7406,-5.846,-5.9626,-6.0587,-6.0587,-6.094,-6.1351,-6.1524,-6.1579,-6.1694,-6.2019,-6.2045,-6.2216,-6.263,-6.266,-6.2513,-6.21,-6.207,-6.2127,-6.2271,-6.1912,-6.1553,-6.1164,-6.1104,-6.1014,-6.0715,-6.0685,-6.0386,-5.9727,-5.9668,-5.9518,-5.9129,-5.9099,-5.9099,-5.9099,-5.9099,-5.9099,-5.9099,-5.9099,-5.9099,-5.9099,-5.9099,-5.9099,-5.71,-5.7042,-5.6897,-5.6287,-5.6142,-5.5997,-5.5533,-5.5271,-5.5155,-5.5155,-5.501,-5.4749,-5.4313,-5.4226,-5.4081,-5.3588,-5.3675,-5.3965,-5.4458,-5.4662,-5.4981,-5.562,-5.5678,-5.5765,-5.591,-5.5794,-5.5765,-5.591,-5.6374,-5.6665,-5.6665,-5.7071,-5.7303,-5.7303,-5.7303,-5.7303,-5.7303,-5.7303,-5.6822,-5.5876,-5.4263,-5.2998,-5.2015,-5.0308,-4.959,-4.959,-4.959,-4.959,-4.959,-4.959,-4.959,-4.9615,-4.9766,-4.9816,-4.9841,-4.9992,-4.9967,-4.9841,-5.0017,-5.0067,-5.0117,-5.0519,-5.0907,-5.1521,-5.3305,-5.414,-5.4898,-5.7374,-5.836,-5.8834,-5.9918,-6.091,-6.1613,-6.1585,-6.1969,-6.241,-6.2705,-6.2759,-6.2784,-6.3049,-6.3079,-6.3079,-6.3079,-6.3079,-6.3079,-6.3079,-6.3079,-6.3079,-6.3079,-6.266,-6.2181,-6.1702,-6.1642,-6.1583,-6.1403,-6.1373,-6.1104,-6.0416,-6.0386,-6.0086,-5.9398,-5.9368,-5.9279,-5.9099,-5.9099,-5.9099,-5.9099,-5.9099,-5.9099,-5.9099,-5.9099,-5.9099,-5.6607,-5.6432,-5.6287,-5.562,-5.5445,-5.5445,-5.5416,-5.4952,-5.4546,-5.4546,-5.4023,-5.3559,-5.3559,-5.3559,-5.353,-5.35,-5.4052,-5.4487,-5.4517,-5.501,-5.562,-5.6287,-5.6374,-5.6607,0.0,-5.6723,-5.6607,-5.7216,-5.7274,-5.7274,-5.7274,-5.7303,-5.7303,-5.7303,-5.7303,-5.7303,-5.7303,-5.7303,-5.7303,-5.7191,-5.4679,-5.351,-5.3389,-5.0753,-4.959,-4.959,-4.959,-4.959,-4.959,-4.959,-4.959,-4.964,-5.0193,-5.0393,-5.0469,-5.1021,-5.087,-5.0469,-5.1046,-5.1222,-5.1222,-5.1247,-5.2188,-5.3474,-5.4835,-5.6114,-5.762,-5.956,-6.0354,-6.0735,-6.1379,-6.2028,-6.2557,-6.2558,-6.285,-6.3079,-6.3079,-6.3079,-6.3079,-6.3079,-6.3079,-6.3079,-6.3079,-6.3079,-6.3079,-6.3079,-6.3079,-6.3079,-6.3079,-6.3049,-6.3049,-6.3019,-6.3019,-6.275,-6.2121,-6.2061,-6.1792,-6.1134,-6.1074,-6.0775,-6.0086,-6.0057,-5.9757,-5.9129,-5.9099,-5.9099,-5.9099,-5.9099,-5.9099,-5.9099,-5.9099,-5.9099,-5.591,-5.5736,-5.5591,-5.4981,-5.4807,-5.4691,-5.4255,-5.3994,-5.3849,-5.3849,-5.3675,-5.35,-5.35,-5.35,-5.3675,-5.411,-5.4371,-5.4807,-5.5649,-5.5939,-5.6316,-5.6926,-5.7013,0.0,0.0,0.0,0.0,-5.7274,-5.7303,-5.7303,-5.7303,-5.7303,-5.7303,-5.7303,-5.7303,-5.7303,-5.7303,-5.7303,-5.7303,-5.7303,-5.5586,-5.3844,-5.2112,-5.1268,-5.0372,-4.959,-4.959,-4.959,-4.9615,-4.9992,-5.0142,-5.0193,-5.077,-5.0996,-5.1046,-5.1624,-5.1699,-5.1523,-5.1348,-5.191,-5.2502,-5.2009,-5.3412,-5.5354,-5.6205,-5.7578,-5.9115,-6.0669,-6.1557,-6.1968,-6.2175,-6.2615,-6.2935,-6.2907,-6.2993,-6.3079,-6.3079,-6.3079,-6.3079,-6.3079,-6.3079,-6.3079,-6.3079,-6.3079,-6.3079,-6.3079,-6.3079,-6.3079,-6.3079,-6.3079,-6.3079,-6.3079,-6.3079,-6.2989,-6.278,-6.275,-6.248,-6.1822,-6.1762,-6.1463,-6.0805,-6.0326,-5.9967,-5.9757,-5.9338,-5.9099,-5.9099,-5.9099,-5.9099,-5.9099,-5.9099,-5.9099,-5.5271,-5.5097,-5.4952,-5.4313,-5.4168,-5.4052,-5.3617,-5.35,-5.35,-5.35,-5.35,-5.3588,-5.382,-5.3878,-5.4081,-5.472,-5.5039,-5.5474,-5.6287,-5.6607,-5.6868,-5.7245,-5.7303,-5.7303,0.0,0.0,0.0,-5.7303,-5.7303,-5.7303,-5.7303,-5.7303,-5.7303,-5.7303,-5.7303,-5.7303,-5.7303,-5.7303,-5.7078,-5.6594,-5.5818,-5.4057,-5.1492,-5.1492,-5.0893,-4.9891,-4.9891,-5.0017,-5.0218,-5.0569,-5.072,-5.077,-5.1348,-5.1574,-5.1649,-5.2201,-5.2402,-5.2352,-5.2,-5.2762,-5.3818,-5.3413,-5.5179,-5.7472,-5.7922,-5.9189,-6.0655,-6.1524,-6.2175,-6.2615,-6.2615,-6.2847,-6.3079,-6.3079,-6.3079,-6.3079,-6.3079,-6.3079,-6.3079,-6.3079,-6.3079,-6.3079,-6.3079,-6.3079,-6.3079,-6.3079,-6.3079,-6.3079,-6.3079,-6.3079,-6.3079,-6.3079,-6.3079,-6.3079,-6.3079,-6.3079,-6.2899,-6.248,-6.245,-6.2151,-6.1493,-6.1044,-6.0685,-6.0446,-5.9787,-5.9458,-5.9458,-5.9219,-5.9099,-5.9099,-5.9099,-5.9099,-5.4686,-5.4458,-5.4313,-5.3675,-5.35,-5.35,-5.35,-5.353,-5.3559,-5.353,-5.3559,-5.3791,-5.44,-5.4546,-5.4749,-5.5358,-5.5997,-5.6432,-5.6461,-5.6955,-5.7303,-5.7303,-5.7303,-5.7303,-5.7303,-5.7303,0.0,-5.7303,0.0,-5.7303,-5.7303,-5.7303,-5.7303,-5.7303,-5.7303,-5.7303,-5.7303,-5.7303,-5.6708,-5.5528,-5.5412,-5.4084,-5.1669,-5.1606,-5.1151,-5.0469,-5.0469,-5.077,-5.1272,-5.1322,-5.1322,-5.1373,-5.1925,-5.2151,-5.2201,-5.2797,-5.2998,-5.2929,-5.3042,-5.4039,-5.5194,-5.5446,-5.7432,-5.9745,-5.99,-6.0988,-6.2116,-6.2116,-6.2351,-6.2615,-6.2615,-6.2847,-6.3079,-6.3079,-6.3079,-6.3079,-6.3079,-6.3079,-6.3079,-6.3079,-6.3079,-6.3079,-6.3079,-6.3079,-6.3079,-6.3079,-6.3079,-6.3079,-6.3079,-6.3079,-6.3079,-6.3079,-6.3079,-6.3079,-6.3079,-6.3079,-6.3079,-6.3079,-6.3079,-6.278,-6.2181,-6.2121,-6.1792,-6.1164,-6.0475,-6.0146,-6.0146,-5.9488,-5.9159,-5.9159,-5.9129,-5.9099,-5.3989,-5.3762,-5.3733,-5.3559,-5.35,-5.35,-5.35,-5.3907,-5.411,-5.3617,-5.4255,-5.4836,-5.4575,-5.4894,-5.5387,-5.6055,-5.6287,-5.6578,-5.7013,-5.7216,-5.7303,-5.7303,-5.7303,-5.7303,-5.7303,-5.7303,0.0,0.0,-5.7303,-5.7303,-5.7303,-5.7303,-5.7303,-5.7303,-5.7303,-5.7303,-5.7303,-5.7303,-5.7134,-5.6822,-5.5876,-5.4722,-5.352,-5.2612,-5.1769,-5.1071,-5.1071,-5.1147,-5.1322,-5.1724,-5.19,-5.195,-5.2503,-5.2729,-5.2866,-5.4055,-5.3768,-5.3247,-5.5538,-5.6558,-5.6882,-5.6919,-5.9036,-6.1286,-6.0295,-6.1137,-6.2498,-6.2498,-6.2731,-6.2963,-6.2963,-6.3021,-6.3079,-6.3079,-6.3079,-6.3079,-6.3079,-6.3079,-6.3079,-6.3079,-6.3079,-6.3079,-6.3079,-6.3079,-6.3079,-6.3079,-6.3079,-6.3079,-6.3079,-6.3079,-6.3079,-6.3079,-6.3079,-6.3079,-6.3079,-6.3079,-6.3079,-6.3079,-6.3079,-6.2989,-6.2839,-6.2361,-6.2032,-6.1852,-6.1194,-6.0864,-6.0835,-6.0176,-5.9847,-5.9817,-5.9338,-5.9099,-5.3879,-5.3658,-5.3658,-5.35,-5.3733,-5.3878,-5.3588,-5.4226,-5.4558,-5.3299,-5.3849,-5.4535,-5.4533,-5.4791,-5.5388,-5.6582,-5.681,-5.6926,-5.7245,-5.7303,-5.7303,-5.7303,-5.7303,-5.7303,-5.7303,-5.7303,-5.7303,0.0,-5.7303,-5.7303,-5.7303,-5.7303,-5.7303,-5.7303,-5.7303,-5.7303,-5.7303,-5.7594,-5.7739,-5.7739,-5.6702,-5.5677,-5.4697,-5.3345,-5.2361,-5.1649,0.0,-5.1774,-5.2026,-5.2327,-5.2477,-5.2571,-5.3462,-5.3452,-5.3067,-5.4485,-5.4749,-5.4728,-5.7104,-5.8685,-5.9585,-5.8989,-6.0416,-6.2234,-6.1555,-6.2057,-6.2849,-6.3117,-6.3381,-6.3558,-6.3857,-6.3912,-6.3875,-6.3579,-6.3492,-6.3432,-6.3166,-6.3079,-6.3079,-6.3079,-6.3079,-6.3079,-6.3079,-6.3079,-6.3079,-6.3079,-6.3079,-6.3079,-6.3079,-6.3079,-6.3079,-6.3079,-6.3079,-6.3079,-6.3079,-6.3079,-6.3079,-6.3079,-6.3079,-6.3079,-6.3079,-6.272,-6.254,-6.254,-6.1882,-6.1553,-6.1553,-6.0864,-6.0535,-6.0505,-5.9847,-5.9548,-5.4244,-5.4088,-5.4065,-5.3838,-5.425,-5.4541,-5.3666,-5.4446,-5.4754,-5.2799,-5.2966,-5.3665,-5.417,-5.4425,-5.5138,-5.6792,-5.7191,-5.7303,-5.7303,-5.7303,-5.7303,-5.7303,-5.7303,-5.7303,-5.7303,-5.7303,-5.7303,-5.7303,-5.7303,-5.7303,-5.7303,-5.7303,-5.7332,-5.7448,-5.7448,-5.7477,-5.7565,-5.8145,-5.8435,-5.8435,-5.7401,-5.6381,-5.532,-5.376,-5.2756,-5.2226,0.0,0.0,-5.2929,-5.2929,-5.298,-5.3168,-5.4344,-5.4235,-5.3655,-5.5028,-5.616,-5.7103,-5.8741,-6.073,-6.2361,-6.1357,-6.1848,-6.2999,-6.326,-6.3348,-6.3438,-6.3977,-6.4126,-6.4276,-6.4874,-6.5019,-6.4858,-6.4294,-6.4146,-6.3998,-6.3466,-6.3258,-6.3169,-6.3079,-6.3079,-6.3079,-6.3079,-6.3079,-6.3079,-6.3079,-6.3079,-6.3079,-6.3079,-6.3079,-6.3079,-6.3079,-6.3079,-6.3079,-6.3079,-6.3079,-6.3079,-6.3079,-6.3079,-6.3079,-6.3079,-6.3079,-6.3079,-6.3079,-6.251,-6.2241,-6.2211,-6.1553,-6.1253,-6.1224,-6.0535,-6.0176,-5.5011,-5.5024,-5.5119,-5.5411,-5.5723,-5.5537,-5.3889,-5.4261,-5.4346,-5.2215,-5.2661,-5.3375,-5.2938,-5.4179,-5.5329,-5.5674,-5.6594,-5.7303,-5.7303,-5.7303,-5.7303,-5.7303,-5.7303,-5.7303,-5.7303,-5.7303,-5.7303,0.0,-5.7303,-5.7303,-5.7303,-5.7303,-5.7565,-5.8116,-5.8116,-5.8406,-5.8958,-5.9074,-5.9132,-5.9132,-5.6726,-5.5769,-5.588,-5.3409,-5.2455,-5.2779,-5.2779,0.0,-5.2929,-5.2929,-5.3181,-5.3557,-5.3835,-5.5031,-5.6694,-5.8078,-5.8898,-5.9764,-6.2604,-6.3062,-6.2629,-6.3616,-6.4189,-6.4576,-6.4635,-6.4695,-6.4695,-6.4814,-6.4844,-6.4874,-6.4994,-6.5023,-6.4993,-6.4844,-6.4844,-6.4814,-6.4695,-6.4246,-6.3677,-6.3169,-6.3079,-6.3079,-6.3079,-6.3079,-6.3079,-6.3079,-6.3079,-6.3079,-6.3079,-6.3079,-6.3079,-6.3079,-6.3079,-6.3079,-6.3079,-6.3079,-6.3079,-6.3079,-6.3079,-6.3079,-6.3079,-6.3079,-6.3079,-6.3079,-6.2959,-6.2899,-6.2899,-6.2241,-6.1942,-6.1912,-6.1253,-6.0625,-5.6034,-5.6018,-5.6054,-5.6084,-5.6437,-5.6259,-5.4203,-5.4601,-5.4592,-5.1695,-5.1801,-5.2341,-5.2048,-5.2722,-5.3577,-5.4323,-5.547,-5.628,-5.628,-5.6879,-5.7303,-5.7303,-5.7303,-5.7303,-5.7303,-5.7303,-5.7448,-5.7797,-5.7826,-5.7681,-5.7332,-5.7623,-5.8116,-5.8813,-5.8813,-5.8987,-5.9306,-5.9626,-5.9771,-5.9712,-5.7314,-5.6332,-5.6476,-5.3737,-5.2678,-5.2929,-5.2929,0.0,-5.2929,-5.2929,-5.3231,-5.3752,-5.4765,-5.5512,-5.6349,-5.7932,-5.9456,-6.0951,-6.2422,-6.3815,-6.4914,-6.5616,-6.5472,-6.5024,-6.5024,-6.5024,-6.5114,-6.5443,-6.5533,-6.5622,-6.5951,-6.6041,-6.5921,-6.5621,-6.5231,-6.4993,-6.5024,-6.4485,-6.3917,-6.3617,-6.3288,-6.3079,-6.3079,-6.3079,-6.3079,-6.3079,-6.3079,-6.3079,-6.3079,-6.3079,-6.3079,-6.3079,-6.3079,-6.3079,-6.3079,-6.3079,-6.3079,-6.3079,-6.3079,-6.3079,-6.3079,-6.3079,-6.3079,-6.3079,-6.3079,-6.3079,-6.3079,-6.275,-6.26,-6.26,-6.1942,-6.1463,-5.7011,-5.7017,-5.6994,-5.6823,-5.7266,-5.7038,-5.4544,-5.4796,-5.4599,-5.1215,-5.0794,-5.1079,-5.1079,-5.133,-5.1803,-5.2876,-5.4382,-5.5412,-5.5412,-5.648,-5.7303,-5.7303,-5.7303,-5.7303,-5.7303,-5.7448,-5.7739,-5.8261,-5.8435,0.0,-5.7768,-5.8232,-5.8813,-5.948,-5.948,-5.9568,-5.9713,-6.0177,-6.0409,-6.0409,-5.8091,-5.6973,-5.6909,-5.4148,-5.2929,-5.2929,-5.2998,0.0,0.0,-5.3067,-5.3438,-5.3987,-5.5605,-5.6311,-5.66,-5.8171,-6.0347,-6.26,-6.26,-6.4508,-6.6999,-6.6999,-6.6281,-6.5443,-6.5443,-6.5443,-6.5562,-6.6071,-6.6221,-6.634,-6.6849,-6.6999,-6.6848,-6.6365,-6.5793,-6.5375,-6.5233,-6.4695,-6.4186,-6.4036,-6.3498,-6.3079,-6.3079,-6.3079,-6.3079,-6.3079,-6.3079,-6.3079,-6.3079,-6.3079,-6.3079,-6.3079,-6.3079,-6.3079,-6.3079,-6.3079,-6.3079,-6.3079,-6.3079,-6.3079,-6.3079,-6.3079,-6.3079,-6.3079,-6.3079,-6.3079,-6.3079,-6.3079,-6.3079,-6.3079,-6.254,-6.2241,-5.7819,-5.7969,-5.8065,-5.8392,-5.8709,-5.8132,-5.507,-5.4449,-5.367,-5.0764,-4.995,-4.9783,-4.9783,-5.0727,-5.1554,-5.1678,-5.3757,-5.5412,-5.5412,-5.648,-5.7303,-5.7303,-5.7303,-5.7303,-5.7303,-5.7855,-5.8232,-5.829,-5.8871,0.0,-5.9132,-5.919,-5.948,-6.009,-6.0119,-6.0409,-6.1019,-6.1077,-6.1106,-6.1046,-5.8313,-5.6973,-5.6909,-5.4148,-5.2929,-5.2929,-5.3273,0.0,0.0,-5.3589,-5.4057,-5.4366,-5.5362,-5.7777,-6.0816,-6.1531,-6.378,-6.651,-6.651,-6.6725,-6.6999,-6.6999,-6.6909,-6.6819,-6.6819,-6.6819,-6.6819,-6.6879,-6.6909,-6.6909,-6.6969,-6.6999,-6.6969,-6.6939,-6.6848,-6.6638,-6.6071,-6.5413,-6.4755,-6.4126,-6.3498,-6.3079,-6.3079,-6.3079,-6.3079,-6.3079,-6.3079,-6.3079,-6.3079,-6.3079,-6.3079,-6.3079,-6.3079,-6.3079,-6.3079,-6.3079,-6.3079,-6.3079,-6.3079,-6.3079,-6.3079,-6.3079,-6.3079,-6.3079,-6.3079,-6.3079,-6.3079,-6.3079,-6.3079,-6.3079,-6.3019,-6.266,-5.865,-5.871,-5.8716,-5.8877,-5.847,-5.7384,-5.5239,-5.4116,-5.2876,-5.0614,-4.9976,-4.9847,-4.9654,-5.0014,-5.0372,-5.0372,-5.1865,-5.3032,-5.3032,-5.4176,-5.5295,-5.605,-5.6165,-5.6623,-5.7798,-5.8145,-5.861,-5.9393,-6.0061,0.0,-6.0438,-6.0061,-6.0148,-6.0787,-6.0787,-6.0932,-6.1193,-6.1193,-6.1193,-6.1193,-5.834,-5.6973,-5.6909,-5.4418,-5.3136,-5.2929,-5.3521,0.0,0.0,-5.3793,-5.4262,-5.4661,-5.5306,-5.6657,-5.8265,-5.8737,-6.0489,-6.277,-6.3635,-6.475,-6.5886,-6.6723,-6.6999,-6.6999,-6.6999,-6.6999,-6.6999,-6.6999,-6.6999,-6.6999,-6.6999,-6.6999,-6.6999,-6.6999,-6.6999,-6.6909,-6.667,-6.5772,-6.4934,-6.4665,-6.3797,-6.3079,-6.3079,-6.3079,-6.3079,-6.3079,-6.3079,-6.3079,-6.3079,-6.3079,-6.3079,-6.3079,-6.3079,-6.3079,-6.3079,-6.3079,-6.3079,-6.3079,-6.3079,-6.3079,-6.3079,-6.3079,-6.3079,-6.3079,-6.3079,-6.3079,-6.3079,-6.3079,-6.3079,-6.3079,-6.3079,-6.2929,-5.8991,-5.9099,-5.9099,-5.9099,-5.8136,-5.6792,-5.5355,-5.4024,-5.2474,-5.0741,-5.0295,-5.0168,-4.9783,-4.9719,-4.9719,-4.959,-5.0664,-5.1492,-5.1492,-5.2631,-5.3844,-5.4738,-5.5345,-5.6213,-5.7599,-5.8408,-5.9306,-6.0409,-6.0932,0.0,-6.1193,-6.0758,-6.07,-6.1193,-6.1193,-6.1193,-6.1193,-6.1193,-6.1013,-6.056,-5.8592,-5.7167,-5.6352,-5.4686,-5.3589,-5.3136,-5.3725,0.0,0.0,-5.4132,-5.4499,-5.4791,-5.5313,-5.6034,-5.6852,-5.7689,-5.9194,-6.0951,-6.2338,-6.3733,-6.511,-6.6095,-6.655,-6.67,-6.67,-6.6819,-6.6999,-6.6999,-6.6999,-6.6999,-6.6999,-6.6999,-6.6999,-6.6999,-6.688,-6.6731,-6.67,-6.5652,-6.4725,-6.4725,-6.3827,-6.3079,-6.3079,-6.3079,-6.3079,-6.3079,-6.3079,-6.3079,-6.3079,-6.3079,-6.3079,-6.3079,-6.3079,-6.3079,-6.3079,-6.3079,-6.3079,-6.3079,-6.3079,-6.3079,-6.3079,-6.3079,-6.3079,-6.3079,-6.3079,-6.3079,-6.3079,-6.3079,-6.3079,-6.3079,-6.3079,-6.3079,-5.8743,-5.9099,-5.9099,-5.9099,-5.8136,-5.6849,-5.5674,-5.4144,-5.2658,-5.1346,-5.0867,-5.0487,-5.0168,-5.0104,-5.0001,-4.9654,-5.0664,-5.1492,-5.1492,-5.2631,-5.351,-5.351,-5.5233,-5.6426,-5.6426,-5.8688,-6.0467,-6.1135,0.0,0.0,-6.1193,-6.1193,-6.1193,-6.1193,-6.1193,-6.1193,-6.1193,-6.1193,-6.047,-5.9121,-5.9121,-5.7642,-5.4994,-5.502,-5.4443,0.0,0.0,0.0,0.0,-5.4764,-5.4872,-5.4562,-5.5539,-5.6824,-5.8304,-6.0153,-6.1719,-6.3149,-6.4516,-6.4994,-6.4994,-6.4994,-6.5503,-6.6011,-6.6011,-6.646,-6.6999,-6.6999,-6.6999,-6.6999,-6.6999,-6.6999,-6.6999,-6.6999,-6.6461,-6.6012,-6.6011,-6.4964,-6.4006,-6.4006,-6.3498,-6.3079,-6.3079,-6.3079,-6.3079,-6.3079,-6.3079,-6.3079,-6.3079,-6.3079,-6.3079,-6.3079,-6.3079,-6.3079,-6.3079,-6.3079,-6.3079,-6.3079,-6.3079,-6.3079,-6.3079,-6.3079,-6.3079,-6.3079,-6.3079,-6.3079,-6.3079,-6.3079,-6.3079,-6.3079,-6.3079,-6.3079,-5.6423,-5.6566,-5.6566,-5.6566,-5.5616,-5.4533,-5.4204,-5.3025,-5.1846,-5.1246,-5.0994,-5.0867,-5.0487,-5.0423,-5.0423,-5.027,-5.0397,-5.0525,-5.0525,-5.1481,-5.2642,-5.3965,-5.7017,-5.8979,0.0,0.0,-6.0961,-6.1193,0.0,0.0,-6.1193,-6.1193,-6.1193,-6.1193,-6.1193,-6.0742,-5.9768,-6.0742,-6.0014,-5.7679,-5.7679,-5.6742,-5.502,-5.4485,-5.3997,0.0,0.0,0.0,0.0,-5.4872,-5.5032,-5.4965,-5.5215,-5.6173,-5.752,-5.8071,-5.94,-6.1092,-6.248,-6.3227,-6.3759,-6.4725,-6.5173,-6.5353,-6.5353,-6.6101,-6.6999,-6.6999,-6.6999,-6.6878,-6.6425,-6.634,-6.6192,-6.5742,-6.5473,-6.5293,-6.5323,-6.4635,-6.4006,-6.4006,-6.3498,-6.3079,-6.3079,-6.3079,-6.3079,-6.3079,-6.3079,-6.3079,-6.3079,-6.3079,-6.3079,-6.3079,-6.3079,-6.3079,-6.3079,-6.3079,-6.3079,-6.3079,-6.3079,-6.3079,-6.3079,-6.3079,-6.3079,-6.3079,-6.3079,-6.3079,-6.3079,-6.3079,-6.3079,-6.3079,-6.3079,-6.3079,-5.515,-5.5412,-5.5412,-5.5412,-5.4442,-5.351,-5.351,-5.25,-5.1534,-5.1372,-5.1309,-5.1183,-5.0842,-5.0804,-5.0715,-5.0588,-5.0295,-5.0295,-5.0905,-5.1294,-5.2465,-5.5182,-5.7878,0.0,0.0,-6.0961,-6.1193,0.0,0.0,0.0,-6.1193,-6.1193,-6.0952,-6.0409,-6.0923,-6.0802,-5.9891,-6.0226,-5.9245,-5.6973,-5.6973,-5.6025,-5.4241,-5.4418,-5.4241,0.0,0.0,0.0,0.0,-5.5032,-5.5099,-5.5099,-5.5099,-5.5604,-5.6471,-5.7451,-5.8562,-5.9877,-6.1779,-6.2673,-6.3085,-6.3981,-6.4455,-6.4695,-6.4934,-6.5592,-6.6251,-6.6251,-6.625,-6.6128,-6.5733,-6.562,-6.5532,-6.5081,-6.4813,-6.4635,-6.4635,-6.4126,-6.3647,-6.3647,-6.3348,-6.3079,-6.3079,-6.3079,-6.3079,-6.3079,-6.3079,-6.3079,-6.3079,-6.3079,-6.3079,-6.3079,-6.3079,-6.3079,-6.3079,-6.3079,-6.3079,-6.3079,-6.3079,-6.3079,-6.3079,-6.3079,-6.3079,-6.3079,-6.3079,-6.3079,-6.3079,-6.3079,-6.3079,-6.3079,-6.3079,-6.3079,0.0,-5.5091,-5.5091,-5.5091,-5.4204,-5.3389,-5.3389,-5.2439,0.0,-5.1596,-5.1596,-5.1471,-5.1183,-5.112,-5.1057,-5.0715,-5.0359,-5.0715,-5.2324,-5.2192,-5.3324,-5.6973,-5.8067,0.0,-6.0894,-6.1133,0.0,0.0,0.0,0.0,-6.1193,-6.1013,-6.0348,-5.9121,-6.0287,-6.0863,-6.0863,-5.9707,-5.834,-5.6844,-5.6909,-5.5499,-5.2998,-5.4686,-5.4953,0.0,0.0,0.0,0.0,-5.5099,-5.5099,-5.5099,-5.5099,-5.5165,-5.5538,-5.8024,-5.9064,-5.9622,-6.2087,-6.3021,-6.3079,-6.3079,-6.3468,-6.4066,-6.4695,-6.4964,-6.5024,-6.5024,-6.5024,-6.4963,-6.4926,-6.4903,-6.4903,-6.4888,-6.4389,-6.3919,-6.3947,-6.3498,-6.3079,-6.3079,-6.3079,-6.3079,-6.3079,-6.3079,-6.3079,-6.3079,-6.3079,-6.3079,-6.3079,-6.3079,-6.3079,-6.3079,-6.3079,-6.3079,-6.3079,-6.3079,-6.3079,-6.3079,-6.3079,-6.3079,-6.3079,-6.3079,-6.3079,-6.3079,-6.3079,-6.3079,-6.3079,-6.3079,-6.3079,-6.3079,-6.3079,-6.3079,-5.2315,0.0,-5.25,-5.25,-5.2253,-5.2068,0.0,0.0,0.0,0.0,0.0,0.0,-5.1471,-5.1471,-5.1471,-5.1408,-5.1094,-5.1346,-5.2719,-5.488,-5.6828,-5.816,-5.9597,-6.0266,-5.9617,-6.056,0.0,0.0,0.0,-6.0075,-6.1133,-5.9183,-5.834,-5.9058,-5.8404,-5.8024,-5.8024,-5.8718,-5.7897,-5.5459,-5.5696,-5.4994,-5.341,-5.4309,-5.4619,0.0,0.0,0.0,-5.5099,-5.5099,-5.5099,-5.5099,-5.5099,-5.5736,-5.6704,-5.7322,-5.8905,-6.0716,-6.1346,-6.2263,-6.3079,-6.3079,-6.3169,-6.3318,-6.3498,-6.4246,-6.5024,-6.5024,-6.4994,-6.4845,-6.4337,-6.4248,-6.4118,-6.367,-6.3464,-6.3318,-6.3288,-6.3169,-6.3079,-6.3079,-6.3079,-6.3079,-6.3079,-6.3079,-6.3079,-6.3079,-6.3079,-6.3079,-6.3079,-6.3079,-6.3079,-6.3079,-6.3079,-6.3079,-6.3079,-6.3079,-6.3079,-6.3079,-6.3079,-6.3079,-6.3079,-6.3079,-6.3079,-6.3079,-6.3079,-6.3079,-6.3079,-6.3079,-6.3079,-6.3079,-6.3079,-6.3079,-5.1596,-5.1596,-5.1596,-5.1596,-5.1596,-5.1596,-5.1596,0.0,0.0,0.0,0.0,0.0,0.0,-5.2068,-5.2253,-5.1721,-5.2289,-5.3105,-5.3924,-5.6027,-5.7833,-5.8746,-5.9676,-6.0259,0.0,0.0,0.0,0.0,0.0,-5.8718,-6.0165,-5.878,-5.8024,-5.8151,-5.7997,-5.7933,-5.7933,-5.8088,-5.7386,-5.5894,-5.5631,-5.482,-5.3546,-5.4174,-5.4511,0.0,0.0,0.0,-5.5099,-5.5099,-5.5099,-5.5099,-5.5099,-5.5538,-5.634,-5.7578,-5.894,-6.0323,-6.1584,-6.2526,-6.3079,-6.3079,-6.3079,-6.3079,-6.3079,-6.3558,-6.4126,-6.4126,-6.4126,-6.4008,-6.3681,-6.3588,-6.3492,-6.3166,-6.3079,-6.3079,-6.3079,-6.3079,-6.3079,-6.3079,-6.3079,-6.3079,-6.3079,-6.3079,-6.3079,-6.3079,-6.3079,-6.3079,-6.3079,-6.3079,-6.3079,-6.3079,-6.3079,-6.3079,-6.3079,-6.3079,-6.3079,-6.3079,-6.3079,-6.3079,-6.3079,-6.3079,-6.3079,-6.3079,-6.3079,-6.3079,-6.3079,-6.3079,-6.3079,-6.3079,-6.3079,-6.3079,-5.1596,-5.1721,-5.1846,-5.1659,-5.1596,-5.1596,-5.1596,0.0,0.0,0.0,0.0,0.0,0.0,-5.278,0.0,-5.2068,-5.3719,-5.5336,-5.5941,-5.7037,-5.8193,-5.9308,-5.9489,0.0,0.0,0.0,0.0,0.0,0.0,-5.7806,-5.9058,-5.8718,-5.8024,-5.7038,-5.7742,-5.8277,-5.8467,-5.7295,-5.6715,-5.665,-5.5696,-5.4619,-5.3614,-5.4241,-5.4511,-5.4645,0.0,0.0,-5.5405,-5.5604,-5.5604,-5.5405,-5.567,-5.5604,-5.5736,-5.8214,-5.9251,-5.9745,-6.2263,-6.3079,-6.3079,-6.3079,-6.3079,-6.3079,-6.3079,-6.3079,-6.3079,-6.3079,-6.3079,-6.3079,-6.3079,-6.3079,-6.3079,-6.3079,-6.3079,-6.3079,-6.3079,-6.3079,-6.3079,-6.3079,-6.3079,-6.3079,-6.3079,-6.3079,-6.3079,-6.3079,-6.3079,-6.3079,-6.3079,-6.3079,-6.3079,-6.3079,-6.3079,-6.3079,-6.3079,-6.3079,-6.3079,-6.3079,-6.3079,-6.3079,-6.3079,-6.3079,-6.3079,-6.3079,-6.3079,-6.3079,-6.3079,-6.3079,-6.3079,-6.3079,-6.3079,-6.3079,-5.1596,-5.2377,-5.2964,-5.1908,-5.1596,-5.1596,-5.1596,0.0,0.0,0.0,0.0,0.0,0.0,-5.3389,-5.345,0.0,0.0,-5.692,0.0,0.0,-6.0735,-6.0367,0.0,0.0,0.0,0.0,0.0,0.0,0.0,0.0,-5.9121,-5.6871,-5.6025,-5.6973,-5.4927,-5.4418,-5.5591,-5.5393,-5.5326,-5.526,-5.4309,-5.3861,-5.3929,-5.4309,-5.4645,0.0,0.0,-5.6769,-5.6898,-5.8024,-5.7834,-5.6898,-5.8024,-5.777,-5.6963,-5.8502,-5.9834,-6.1017,-6.2585,-6.3079,-6.3079,-6.3079,-6.3079,-6.3079,-6.3079,-6.3079,-6.3079,-6.3079,-6.3079,-6.3079,-6.3079,-6.3079,-6.3079,-6.3079,-6.3079,-6.3079,-6.3079,-6.3079,-6.3079,-6.3079,-6.3079,-6.3079,-6.3079,-6.3079,-6.3079,-6.3079,-6.3079,-6.3079,-6.3079,-6.3079,-6.3079,-6.3079,-6.3079,-6.3079,-6.3079,-6.3079,-6.3079,-6.3079,-6.3079,-6.3079,-6.3079,-6.3079,-6.3079,-6.3079,-6.3079,-6.3079,-6.3079,-6.3079,-6.3079,-6.3079,-6.3079,-6.3079,-5.1596,-5.2562,-5.3389,-5.278,-5.3146,-5.3691,-5.3691,0.0,0.0,0.0,0.0,0.0,0.0,0.0,-5.5085,-5.6823,0.0,-5.8033,-5.9885,-6.0023,-6.0131,0.0,0.0,0.0,0.0,0.0,0.0,0.0,0.0,0.0,0.0,0.0,-5.5565,-5.6973,-5.5762,-5.5499,-5.6379,-5.5657,-5.526,-5.526,-5.502,-5.4712,-5.4309,-5.4671,-5.4965,-5.5165,0.0,-5.7092,-5.7221,-5.8564,-5.8313,-5.7194,-5.8564,-5.825,-5.7322,-5.9403,-6.1017,-6.2263,-6.2875,-6.3079,-6.3079,-6.3079,-6.3079,-6.3079,-6.3079,-6.3079,-6.3079,-6.3079,-6.3079,-6.3079,-6.3079,-6.3079,-6.3079,-6.3079,-6.3079,-6.3079,-6.3079,-6.3079,-6.3079,-6.3079,-6.3079,-6.3079,-6.3079,-6.3079,-6.3079,-6.3079,-6.3079,-6.3079,-6.3079,-6.3079,-6.3079,-6.3079,-6.3079,-6.3079,-6.3079,-6.3079,-6.3079,-6.3079,-6.3079,-6.3079,-6.3079,-6.3079,-6.3079,-6.3079,-6.3079,-6.3079,-6.3079,-6.3079,-6.3079,-6.3079,-6.3079,-6.3079,-5.1596,-5.2562,-5.351,-5.351,-5.4442,-5.5412,-5.5412,-5.5412,-5.5091,-5.4144,0.0,0.0,0.0,-5.4849,0.0,-5.9632,-5.9276,-5.9165,-6.0618,-6.01,-6.0112,0.0,0.0,0.0,0.0,0.0,0.0,0.0,0.0,0.0,0.0,0.0,-5.6585,-5.7651,-5.7396,-5.7359,-5.7706,-5.6585,-5.5959,-5.5631,-5.5591,-5.5353,-5.4953,-5.5006,-5.5206,-5.567,-5.6963,-5.777,-5.8151,-5.9498,-5.9251,-5.8151,-5.9498,-5.9375,-5.878,-6.0837,-6.2204,-6.3079,-6.3079,-6.3079,-6.3079,-6.3079,-6.3079,-6.3079,-6.3079,-6.3079,-6.3079,-6.3079,-6.3079,-6.3079,-6.3079,-6.3079,-6.3079,-6.3079,-6.3079,-6.3079,-6.3079,-6.3079,-6.3079,-6.3079,-6.3079,-6.3079,-6.3079,-6.3079,-6.3079,-6.3079,-6.3079,-6.3079,-6.3079,-6.3079,-6.3079,-6.3079,-6.3079,-6.3079,-6.3079,-6.3079,-6.3079,-6.3079,-6.3079,-6.3079,-6.3079,-6.3079,-6.3079,-6.3079,-6.3079,-6.3079,-6.3079,-6.3079,-6.3079,-6.3079,-6.3079,-6.2989,-5.1596,-5.2562,-5.351,-5.351,-5.4442,-5.5412,-5.5412,-5.5412,-5.5353,-5.5295,-5.5295,-5.5295,0.0,-5.5861,0.0,0.0,0.0,0.0,0.0,0.0,0.0,0.0,0.0,0.0,0.0,0.0,0.0,0.0,0.0,0.0,0.0,0.0,0.0,-5.9777,-5.8571,-5.7941,-5.7941,-5.7878,-5.7176,-5.5972,-5.4727,-5.4953,-5.6352,-5.5087,-5.5419,-5.7028,-5.8376,-5.965,-6.0897,-6.2263,-6.2028,-6.0957,-6.2263,-6.2759,-6.2701,-6.2875,-6.3021,-6.3079,-6.3079,-6.3079,-6.3079,-6.3079,-6.3079,-6.3079,-6.3079,-6.3079,-6.3079,-6.3079,-6.3079,-6.3079,-6.3079,-6.3079,-6.3079,-6.3079,-6.3079,-6.3079,-6.3079,-6.3079,-6.3079,-6.3079,-6.3079,-6.3079,-6.3079,-6.3079,-6.3079,-6.3079,-6.3079,-6.3079,-6.3079,-6.3079,-6.3079,-6.3079,-6.3079,-6.3079,-6.3079,-6.3079,-6.3079,-6.3079,-6.3079,-6.3079,-6.3079,-6.3079,-6.3079,-6.3079,-6.3079,-6.3079,-6.3079,-6.3079,-6.3079,-6.3079,-6.3079,-6.275,-5.2535,-5.3724,-5.4856,-5.5588,-5.6165,0.0,-5.6537,-5.6537,-5.6537,-5.6537,-5.6537,-5.6595,-5.6851,0.0,-6.0178,0.0,0.0,0.0,0.0,0.0,0.0,0.0,0.0,0.0,0.0,0.0,0.0,0.0,0.0,0.0,0.0,0.0,0.0,-5.9961,-5.9532,-5.9346,-5.9622,-5.9622,-5.9498,-5.9161,-5.7588,-5.6844,-5.6871,-5.6379,-5.6509,-5.7157,-5.8502,-5.9896,-6.1226,-6.2585,-6.2321,-6.1166,-6.1643,-6.238,-6.3079,-6.3079,-6.3079,-6.3079,-6.3079,-6.3079,-6.3079,-6.3079,-6.3079,-6.3079,-6.3079,-6.3079,-6.3079,-6.3079,-6.3079,-6.3079,-6.3079,-6.3079,-6.3079,-6.3079,-6.3079,-6.3079,-6.3079,-6.3079,-6.3079,-6.3079,-6.3079,-6.3079,-6.3079,-6.3079,-6.3079,-6.3079,-6.3079,-6.3079,-6.3079,-6.3079,-6.3079,-6.3079,-6.3079,-6.3079,-6.3079,-6.3079,-6.3079,-6.3079,-6.3079,-6.3079,-6.3079,-6.3079,-6.3079,-6.3079,-6.3079,-6.3079,-6.3079,-6.3079,-6.3079,-6.3079,-6.266,-6.2331,-5.3724,-5.4738,-5.5616,-5.6423,0.0,0.0,-5.7075,-5.7187,-5.7328,-5.7719,-5.7671,-5.7711,-5.8408,-6.0149,0.0,0.0,0.0,0.0,0.0,0.0,0.0,0.0,0.0,0.0,0.0,0.0,0.0,0.0,0.0,0.0,0.0,0.0,0.0,0.0,-6.0988,-6.1108,-6.1405,-6.1405,-6.1524,-6.1703,-6.0537,-5.9408,-5.834,-5.7897,-5.7961,-5.8404,-5.9313,-6.0505,-6.1762,-6.2701,-6.2585,-6.1703,-6.1703,-6.2263,-6.3079,-6.3079,-6.3079,-6.3079,-6.3079,-6.3079,-6.3079,-6.3079,-6.3079,-6.3079,-6.3079,-6.3079,-6.3079,-6.3079,-6.3079,-6.3079,-6.3079,-6.3079,-6.3079,-6.3079,-6.3079,-6.3079,-6.3079,-6.3079,-6.3079,-6.3079,-6.3079,-6.3079,-6.3079,-6.3079,-6.3079,-6.3079,-6.3079,-6.3079,-6.3079,-6.3079,-6.3079,-6.3079,-6.3079,-6.3079,-6.3079,-6.3079,-6.3079,-6.3079,-6.3079,-6.3079,-6.3079,-6.3079,-6.3079,-6.3079,-6.3079,-6.3079,-6.3079,-6.3079,-6.2959,-6.275,-6.2301,-6.1882,-5.5032,-5.5412,-5.5412,0.0,0.0,0.0,-5.6905,-5.7187,-5.7552,-5.8882,-5.8641,-5.861,-5.9858,-6.0149,0.0,-6.105,0.0,0.0,0.0,0.0,0.0,0.0,0.0,0.0,0.0,0.0,0.0,0.0,0.0,0.0,0.0,0.0,0.0,0.0,-6.3079,-6.3079,-6.3079,-6.3079,-6.3079,-6.3079,-6.3079,-6.241,-6.1017,-5.9711,-5.9834,-6.1106,-6.1106,-6.1821,-6.3079,-6.3079,-6.3079,-6.3079,-6.3079,-6.3079,-6.3079,-6.3079,-6.3079,-6.3079,-6.3079,-6.3079,-6.3079,-6.3079,-6.3079,-6.3079,-6.3079,-6.3079,-6.3079,-6.3079,-6.3079,-6.3079,-6.3079,-6.3079,-6.3079,-6.3079,-6.3079,-6.3079,-6.3079,-6.3079,-6.3079,-6.3079,-6.3079,-6.3079,-6.3079,-6.3079,-6.3079,-6.3079,-6.3079,-6.3079,-6.3079,-6.3079,-6.3079,-6.3079,-6.3079,-6.3079,-6.3079,-6.3079,-6.3079,-6.3079,-6.3079,-6.3079,-6.3079,-6.3079,-6.3079,-6.3079,-6.3079,-6.3079,-6.3079,-6.3079,-6.272,-6.2091,-6.2091,-6.1373,-5.4797,-5.5412,0.0,0.0,0.0,0.0,0.0,-5.786,0.0,0.0,-6.0406,-6.1015,-6.1141,-6.1788,0.0,-6.2145,0.0,0.0,0.0,0.0,0.0,0.0,0.0,0.0,0.0,0.0,0.0,0.0,0.0,0.0,0.0,0.0,0.0,0.0,-6.3079,-6.3079,-6.3079,-6.3079,-6.3079,-6.3079,-6.3079,-6.241,-6.1106,-6.0716,-6.0716,-6.1106,-6.1106,-6.1821,-6.3079,-6.3079,-6.3079,-6.3079,-6.3079,-6.3079,-6.3079,-6.3079,-6.3079,-6.3079,-6.3079,-6.3079,-6.3079,-6.3079,-6.3079,-6.3079,-6.3079,-6.3079,-6.3079,-6.3079,-6.3079,-6.3079,-6.3079,-6.3079,-6.3079,-6.3079,-6.3079,-6.3079,-6.3079,-6.3079,-6.3079,-6.3079,-6.3079,-6.3079,-6.3079,-6.3079,-6.3079,-6.3079,-6.3079,-6.3079,-6.3079,-6.3079,-6.3079,-6.3079,-6.3079,-6.3079,-6.3079,-6.3079,-6.3079,-6.3079,-6.3079,-6.3079,-6.3079,-6.3079,-6.3079,-6.3079,-6.3079,-6.3079,-6.3079,-6.26,-6.2301,-6.2061,-6.1134,-6.0475,-5.6194,0.0,0.0,0.0,0.0,-5.8225,-5.9265,0.0,0.0,0.0,-6.1343,-6.2124,-6.2191,-6.2694,0.0,0.0,0.0,0.0,0.0,0.0,0.0,0.0,0.0,0.0,0.0,0.0,0.0,0.0,0.0,0.0,0.0,0.0,0.0,0.0,-6.3079,-6.3079,-6.3079,-6.3079,-6.3079,-6.3079,-6.3079,-6.2701,-6.191,-6.191,-6.191,-6.191,-6.191,-6.2321,-6.3079,-6.3079,-6.3079,-6.3079,-6.3079,-6.3079,-6.3079,-6.3079,-6.3079,-6.3079,-6.3079,-6.3079,-6.3079,-6.3079,-6.3079,-6.3079,-6.3079,-6.3079,-6.3079,-6.3079,-6.3079,-6.3079,-6.3079,-6.3079,-6.3079,-6.3079,-6.3079,-6.3079,-6.3079,-6.3079,-6.3079,-6.3079,-6.3079,-6.3079,-6.3079,-6.3079,-6.3079,-6.3079,-6.3079,-6.3079,-6.3079,-6.3079,-6.3079,-6.3079,-6.3079,-6.3079,-6.3079,-6.3079,-6.3079,-6.3079,-6.3079,-6.3079,-6.3079,-6.3079,-6.3079,-6.3079,-6.3079,-6.2959,-6.269,-6.2301,-6.1822,-6.1283,-6.0475,-5.9937,0.0,0.0,0.0,0.0,0.0,0.0,-5.9937,-6.0146,-6.0386,-6.1074,0.0,-6.2361,-6.2959,-6.3079,0.0,0.0,0.0,0.0,0.0,0.0,0.0,0.0,0.0,0.0,0.0,0.0,0.0,0.0,0.0,0.0,0.0,0.0,0.0,0.0,-6.3079,-6.3079,-6.3079,-6.3079,-6.3079,0.0,-6.3079,-6.3079,-6.3079,-6.3079,-6.3079,-6.3079,-6.3079,-6.3079,-6.3079,-6.3079,-6.3079,-6.3079,-6.3079,-6.3079,-6.3079,-6.3079,-6.3079,-6.3079,-6.3079,-6.3079,-6.3079,-6.3079,-6.3079,-6.3079,-6.3079,-6.3079,-6.3079,-6.3079,-6.3079,-6.3079,-6.3079,-6.3079,-6.3079,-6.3079,-6.3079,-6.3079,-6.3079,-6.3079,-6.3079,-6.3079,-6.3079,-6.3079,-6.3079,-6.3079,-6.3079,-6.3079,-6.3079,-6.3079,-6.3079,-6.3079,-6.3079,-6.3079,-6.3079,-6.3079,-6.3079,-6.3079,-6.3079,-6.3079,-6.3079,-6.3079,-6.3079,-6.3079,-6.3079,-6.3079,-6.3019,-6.269,-6.2091,-6.1972,-6.1283,-6.0086,-6.0027,-5.9668,0.0,0.0,0.0,0.0,0.0,0.0,0.0,-6.0505,-6.1074,-6.1762,-6.2421,-6.2899,0.0,0.0,0.0,0.0,0.0,0.0,0.0,0.0,0.0,0.0,0.0,0.0,0.0,0.0,0.0,0.0,0.0,0.0,0.0,0.0,0.0,-6.3079,-6.3079,-6.3079,-6.3079,-6.3079,-6.3079,0.0,-6.3079,-6.3079,-6.3079,-6.3079,-6.3079,-6.3079,-6.3079,-6.3079,-6.3079,-6.3079,-6.3079,-6.3079,-6.3079,-6.3079,-6.3079,-6.3079,-6.3079,-6.3079,-6.3079,-6.3079,-6.3079,-6.3079,-6.3079,-6.3079,-6.3079,-6.3079,-6.3079,-6.3079,-6.3079,-6.3079,-6.3079,-6.3079,-6.3079,-6.3079,-6.3079,-6.3079,-6.3079,-6.3079,-6.3079,-6.3079,-6.3079,-6.3079,-6.3079,-6.3079,-6.3079,-6.3079,-6.3079,-6.3079,-6.3079,-6.3079,-6.3079,-6.3079,-6.3079,-6.3079,-6.3079,-6.3079,-6.3079,-6.3079,-6.3079,-6.3079,-6.3079,-6.3079,-6.3079,-6.3079,-6.257,-6.2241,-6.2091,-6.1044,-6.0356,-6.0086,-5.9548,-5.9249,0.0,0.0,0.0,0.0,0.0,0.0,0.0,0.0,0.0,0.0,0.0,0.0,0.0,0.0,0.0,0.0,0.0,0.0,0.0,0.0,0.0,0.0,0.0,0.0,0.0,0.0,0.0,0.0,0.0,0.0,0.0,-6.3079,-6.3079,-6.3079,-6.3079,-6.3079,-6.3079,-6.3079,-6.3079,-6.3079,-6.3079,-6.3079,-6.3079,-6.3079,-6.3079,-6.3079,-6.3079,-6.3079,-6.3079,-6.3079,-6.3079,-6.3079,-6.3079,-6.3079,-6.3079,-6.3079,-6.3079,-6.3079,-6.3079,-6.3079,-6.3079,-6.3079,-6.3079,-6.3079,-6.3079,-6.3079,-6.3079,-6.3079,-6.3079,-6.3079,-6.3079,-6.3079,-6.3079,-6.3079,-6.3079,-6.3079,-6.3079,-6.3079,-6.3079,-6.3079,-6.3079,-6.3079,-6.3079,-6.3079,-6.3079,-6.3079,-6.3079,-6.3079,-6.3079,-6.3079,-6.3079,-6.3079,-6.3079,-6.3079,-6.3079,-6.3079,-6.3079,-6.3079,-6.3079,-6.3079,-6.3079,-6.3079,-6.2929,-6.26,-6.2271,-6.1762,-6.1134,-6.0416,-5.9937,-5.9608,-5.9249,-5.9099,0.0,0.0,0.0,0.0,0.0,0.0,0.0,0.0,0.0,0.0,0.0,0.0,0.0,0.0,0.0,0.0,0.0,0.0,0.0,0.0,0.0,0.0,0.0,0.0,0.0,0.0,0.0,0.0,0.0,0.0,-6.3079,-6.3079,-6.3079,-6.3079,-6.3079,-6.3079,-6.3079,-6.3079,-6.3079,-6.3079,-6.3079,-6.3079,-6.3079,-6.3079,-6.3079,-6.3079,-6.3079,-6.3079,-6.3079,-6.3079,-6.3079,-6.3079,-6.3079,-6.3079,-6.3079,-6.3079,-6.3079,-6.3079,-6.3079,-6.3079,-6.3079,-6.3079,-6.3079,-6.3079,-6.3079,-6.3079,-6.3079,-6.3079,-6.3079,-6.3079,-6.3079,-6.3079,-6.3079,-6.3079,-6.3079,-6.3079,-6.3079,-6.3079,-6.3079,-6.3079,-6.3079,-6.3079,-6.3079,-6.3079,-6.3079,-6.3079,-6.3079,-6.3079,-6.3079,-6.3079,-6.3079,-6.3079,-6.3079,-6.3079,-6.3079,-6.3079,-6.3079,-6.3079,-6.3079,-6.3079,-6.3079,-6.2959,-6.26,-6.1942,-6.1942,-6.1313,-6.0086,-5.9967,-5.9638,-5.9099,-5.9099,-5.9099,0.0,0.0,0.0,0.0,0.0,0.0,0.0,0.0,0.0,0.0,0.0,0.0,0.0,0.0,0.0,0.0,0.0,0.0,0.0,0.0,0.0,0.0,0.0,0.0,0.0,0.0,0.0,0.0,0.0,0.0,0.0,-6.3079,-6.3079,-6.3079,-6.3079,-6.3079,-6.3079,-6.3079,-6.3079,-6.3079,-6.3079,-6.3079,-6.3079,-6.3079,-6.3079,-6.3079,-6.3079,-6.3079,-6.3079,-6.3079,-6.3079,-6.3079,-6.3079,-6.3079,-6.3079,-6.3079,-6.3079,-6.3079,-6.3079,-6.3079,-6.3079,-6.3079,-6.3079,-6.3079,-6.3079,-6.3079,-6.3079,-6.3079,-6.3079,-6.3079,-6.3079,-6.3079,-6.3079,-6.3079,-6.3079,-6.3079,-6.3079,-6.3079,-6.3079,-6.3079,-6.3079,-6.3079,-6.3079,-6.3079,-6.3079,-6.3079,-6.3079,-6.3079,-6.3079,-6.3079,-6.3079,-6.3079,-6.3079,-6.3079,-6.3079,-6.3079,-6.3079,-6.3079,-6.3079,-6.3079,-6.3079,-6.254,-6.1912,-6.1253,-6.1253,-6.0864,-6.0086,-5.9518,-5.9189,-5.9099,-5.9099,-5.9099,0.0,0.0,0.0,0.0,0.0,0.0,0.0,0.0,0.0,0.0,0.0,0.0,0.0,0.0,0.0,0.0,0.0,0.0,0.0,0.0,0.0,0.0,0.0,0.0,0.0,0.0,0.0,0.0,0.0,0.0,-6.3079,-6.3079,-6.3079,-6.3079,-6.3079,-6.3079,-6.3079,-6.3079,-6.3079,-6.3079,-6.3079,-6.3079,-6.3079,-6.3079,-6.3079,-6.3079,-6.3079,-6.3079,-6.3079,-6.3079,-6.3079,-6.3079,-6.3079,-6.3079,-6.3079,-6.3079,-6.3079,-6.3079,-6.3079,-6.3079,-6.3079,-6.3079,-6.3079,-6.3079,-6.3079,-6.3079,-6.3079,-6.3079,-6.3079,-6.3079,-6.3079,-6.3079,-6.3079,-6.3079,-6.3079,-6.3079,-6.3079,-6.3079,-6.3079,-6.3079,-6.3079,-6.3079,-6.3079,-6.3079,-6.3079,-6.3079,-6.3079,-6.3079,-6.3079,-6.3079,-6.3079,-6.3079,-6.3079,-6.3079,-6.3079,-6.3079,-6.3079,-6.3079,-6.3079,-6.2899,-6.254,-6.2241,-6.1613,-6.0565,-6.0535,-6.0206,-5.9548,-5.9249,-5.9099,-5.9099,-5.9099,-5.9099,0.0,0.0,0.0,0.0,0.0,0.0,0.0,0.0,0.0,0.0,0.0,0.0,0.0,0.0,0.0,0.0,0.0,0.0,0.0,0.0,0.0,0.0,0.0,0.0,0.0,0.0,0.0,0.0,0.0,0.0,-6.3079,-6.3079,-6.3079,-6.3079,-6.3079,-6.3079,-6.3079,-6.3079,-6.3079,-6.3079,-6.3079,-6.3079,-6.3079,-6.3079,-6.3079,-6.3079,-6.3079,-6.3079,-6.3079,-6.3079,-6.3079,-6.3079,-6.3079,-6.3079,-6.3079,-6.3079,-6.3079,-6.3079,-6.3079,-6.3079,-6.3079,-6.3079,-6.3079,-6.3079,-6.3079,-6.3079,-6.3079,-6.3079,-6.3079,-6.3079,-6.3079,-6.3079,-6.3079,-6.3079,-6.3079,-6.3079,-6.3079,-6.3079,-6.3079,-6.3079,-6.3079,-6.3079,-6.3079,-6.3079,-6.3079,-6.3079,-6.3079,-6.3079,-6.3079,-6.3079,-6.3079,-6.3079,-6.3079,-6.3079,-6.3079,-6.3079,-6.3079,-6.3079,-6.2929,-6.26,-6.2121,-6.1762,-6.1104,-6.0116,-5.9907,-5.9608,-5.9099,-5.9099,-5.9099,-5.9099,-5.9099,-5.9099,0.0,0.0,0.0,0.0,0.0,0.0,0.0,0.0,0.0,0.0,0.0,0.0,0.0,0.0,0.0,0.0,0.0,0.0,0.0,0.0,0.0,0.0,0.0,0.0,0.0,0.0,0.0,0.0,0.0,0.0,-6.3079,-6.3079,-6.3079,-6.3079,-6.3079,-6.3079,-6.3079,-6.3079,-6.3079,-6.3079,-6.3079,-6.3079,-6.3079,-6.3079,-6.3079,-6.3079,-6.3079,-6.3079,-6.3079,-6.3079,-6.3079,-6.3079,-6.3079,-6.3079,-6.3079,-6.3079,-6.3079,-6.3079,-6.3079,-6.3079,-6.3079,-6.3079,-6.3079,-6.3079,-6.3079,-6.3079,-6.3079,-6.3079,-6.3079,-6.3079,-6.3079,-6.3079,-6.3079,-6.3079,-6.3079,-6.3079,-6.3079,-6.3079,-6.3079,-6.3079,-6.3079,-6.3079,-6.3079,-6.3079,-6.3079,-6.3079,-6.3079,-6.3079,-6.3079,-6.3079,-6.3079,-6.3079,-6.3079,-6.3079,-6.3079,-6.3079,-6.3079,-6.3079,-6.248,-6.2121,-6.2091,-6.0864,-6.0146,-6.0086,-5.9488,-5.9129,-5.9099,-5.9099,-5.9099,-5.9099,-5.9099,-5.9099,-5.747,0.0,0.0,0.0,0.0,0.0,0.0,0.0,0.0,0.0,0.0,0.0,0.0,0.0,0.0,0.0,0.0,0.0,0.0,0.0,0.0,0.0,0.0,0.0,0.0,0.0,0.0,0.0,0.0,0.0,-6.3079,-6.3079,-6.3079,-6.3079,-6.3079,-6.3079,-6.3079,-6.3079,-6.3079,-6.3079,-6.3079,-6.3079,-6.3079,-6.3079,-6.3079,-6.3079,-6.3079,-6.3079,-6.3079,-6.3079,-6.3079,-6.3079,-6.3079,-6.3079,-6.3079,-6.3079,-6.3079,-6.3079,-6.3079,-6.3079,-6.3079,-6.3079,-6.3079,-6.3079,-6.3079,-6.3079,-6.3079,-6.3079,-6.3079,-6.3079,-6.3079,-6.3079,-6.3079,-6.3079,-6.3079,-6.3079,-6.3079,-6.3079,-6.3079,-6.3079,-6.3079,-6.3079,-6.3079,-6.3079,-6.3079,-6.3079,-6.3079,-6.3079,-6.3079,-6.3079,-6.3079,-6.3079,-6.3079,-6.3079,-6.3079,-6.3079,-6.2899,-6.248,-6.2241,-6.1702,-6.0835,-6.0356,-5.9877,-5.9458,-5.9219,-5.9099,-5.9099,-5.9099,-5.9099,-5.9099,-5.9099,-5.9099,-5.8055,-5.847,0.0,0.0,0.0,0.0,0.0,0.0,0.0,0.0,0.0,0.0,0.0,0.0,0.0,0.0,0.0,0.0,0.0,0.0,0.0,0.0,0.0,0.0,0.0,0.0,0.0,0.0,0.0,0.0,-6.3079,-6.3079,-6.3079,-6.3079,-6.3079,-6.3079,-6.3079,-6.3079,-6.3079,-6.3079,-6.3079,-6.3079,-6.3079,-6.3079,-6.3079,-6.3079,-6.3079,-6.3079,-6.3079,-6.3079,-6.3079,-6.3079,-6.3079,-6.3079,-6.3079,-6.3079,-6.3079,-6.3079,-6.3079,-6.3079,-6.3079,-6.3079,-6.3079,-6.3079,-6.3079,-6.3079,-6.3079,-6.3079,-6.3079,-6.3079,-6.3079,-6.3079,-6.3079,-6.3079,-6.3079,-6.3079,-6.3079,-6.3079,-6.3079,-6.3079,-6.3079,-6.3079,-6.3079,-6.3079,-6.3079,-6.3079,-6.3079,-6.3079,-6.3079,-6.3079,-6.3079,-6.3079,-6.2869,-6.275,-6.275,-6.254,-6.2241,-6.1792,-6.1553,-6.1014,-6.0116,-5.9877,-5.9548,-5.9129,-5.9099,-5.9099,-5.9099,-5.9099,-5.9099,-5.9099,-5.9099,-5.9099,0.0,0.0,0.0,0.0,0.0,0.0,0.0,0.0,0.0,0.0,0.0,0.0,0.0,0.0,0.0,0.0,0.0,0.0,0.0,0.0,0.0,0.0,0.0,0.0,0.0,0.0,0.0,0.0,0.0,-6.3079,-6.3079,-6.3079,-6.3079,-6.3079,-6.3079,-6.3079,-6.3079,-6.3079,-6.3079,-6.3079,-6.3079,-6.3079,-6.3079,-6.3079,-6.3079,-6.3079,-6.3079,-6.3079,-6.3079,-6.3079,-6.3079,-6.3079,-6.3079,-6.3079,-6.3079,-6.3079,-6.3079,-6.3079,-6.3079,-6.3079,-6.3079,-6.3079,-6.3079,-6.3079,-6.3079,-6.3079,-6.3079,-6.3079,-6.3079,-6.3079,-6.3079,-6.3079,-6.3079,-6.3079,-6.3079,-6.3079,-6.3079,-6.3049,-6.3107,-6.3079,-6.3079,-6.3079,-6.3049,-6.3049,-6.3049,-6.3019,-6.3019,-6.3019,-6.3019,-6.3019,-6.3019,-6.3019,-6.245,-6.2061,-6.2061,-6.1493,-6.1104,-6.1074,-6.0446,-6.0086,-6.0057,-5.9458,-5.9099,-5.9099,-5.9099,-5.9099,-5.9099,-5.9099,-5.9099,-5.9099,-5.9099,-5.9099,-5.8221,0.0,0.0,0.0,0.0,0.0,0.0,0.0,0.0,0.0,0.0,0.0,0.0,0.0,0.0,0.0,0.0,0.0,0.0,0.0,0.0,0.0,0.0,0.0,0.0,0.0,0.0,0.0,-6.3079,-6.3079,-6.3079,-6.3079,-6.3079,-6.3079,-6.3079,-6.3079,-6.3079,-6.3079,-6.3079,-6.3079,-6.3079,-6.3079,-6.3079,-6.3079,-6.3079,-6.3079,-6.3079,-6.3079,-6.3079,-6.3079,-6.3079,-6.3079,-6.3079,-6.3079,-6.3079,-6.3079,-6.3079,-6.3079,-6.3079,-6.3079,-6.3079,-6.3079,-6.3079,-6.3079,-6.3079,-6.3079,-6.3079,-6.3079,-6.3079,-6.3079,-6.3079,-6.3079,-6.3079,-6.3079,-6.3079,-6.3079,-6.3079,-6.2717,-6.2535,-6.3047,-6.3079,-6.2929,-6.245,-6.2361,-6.2211,-6.1732,-6.1642,-6.1642,-6.1642,-6.1642,-6.1642,-6.1642,-6.1493,-6.1373,-6.1373,-6.1224,-6.0894,-6.0416,-6.0176,-5.9877,-5.9398,-5.9189,-5.9099,-5.9099,-5.9099,-5.9099,-5.9099,-5.9099,-5.9099,-5.9099,-5.9099,-5.9099,-5.9099,-5.9099,-5.9099,-5.9099,0.0,0.0,-5.9099,0.0,0.0,0.0,0.0,0.0,0.0,0.0,0.0,0.0,0.0,0.0,0.0,0.0,0.0,0.0,0.0,0.0,0.0,0.0,0.0,0.0,-6.3079,-6.3079,-6.3079,-6.3079,-6.3079,-6.3079,-6.3079,-6.3079,-6.3079,-6.3079,-6.3079,-6.3079,-6.3079,-6.3079,-6.3079,-6.3079,-6.2931,-6.2694,-6.2657,-6.2535,-6.2271,-6.2271,-6.2418,-6.2682,-6.2685,-6.2508,-6.2271,-6.2271,-6.2271,-6.2271,-6.2271,-6.2271,-6.2271,-6.2271,-6.2271,-6.2271,-6.2271,-6.2271,-6.2301,-6.26,-6.2869,-6.3079,-6.3079,-6.3079,-6.3044,-6.2755,-6.2682,-6.2605,-6.2355,-6.1968,-6.1882,-6.254,-6.245,-6.2121,-6.1762,-6.1672,-6.1553,-6.1164,-6.1104,-6.1104,-6.1104,-6.1104,-6.1104,-6.1104,-6.0864,-6.0685,-6.0685,-6.0446,-6.0116,-5.9697,-5.9668,-5.9518,-5.9129,-5.9099,-5.9099,-5.9099,-5.9099,-5.9099,-5.9099,-5.9099,-5.9099,-5.9099,-5.9099,-5.9099,-5.9099,-5.9099,-5.9099,-5.9099,-5.9099,0.0,-5.9099,-5.9099,0.0,0.0,0.0,0.0,0.0,0.0,0.0,0.0,0.0,0.0,0.0,0.0,0.0,0.0,0.0,0.0,0.0,0.0,-6.3079,-6.3079,-6.3079,-6.3079,-6.3079,-6.3079,-6.3079,-6.3079,-6.3079,-6.3079,-6.3079,-6.3079,-6.3079,-6.3079,-6.3079,-6.3049,-6.2959,-6.2989,-6.2637,-6.1989,-6.1995,-6.1627,-6.107,-6.113,-6.1451,-6.2006,-6.1988,-6.1635,-6.1104,-6.1104,-6.1104,-6.1104,-6.1104,-6.1104,-6.1104,-6.1104,-6.1104,-6.1104,-6.1104,-6.1104,-6.1224,-6.1822,-6.2421,-6.2899,-6.2872,-6.2901,-6.2714,-6.2147,-6.198,-6.1831,-6.1267,-6.1044,-6.1204,-6.1792,-6.1463,-6.1104,-6.1014,-6.1014,-6.0984,-6.0894,-6.0894,-6.0894,-6.0894,-6.0894,-6.0894,-6.0894,-6.0326,-5.9967,-5.9967,-5.9428,-5.9099,-5.9099,-5.9099,-5.9099,-5.9099,-5.9099,-5.9099,-5.9099,-5.9099,-5.9099,-5.9099,-5.9099,-5.9099,-5.9099,-5.9099,-5.9099,-5.9099,-5.9099,-5.9099,-5.9099,-5.9099,0.0,-5.9099,-5.9099,0.0,0.0,0.0,0.0,0.0,0.0,0.0,0.0,0.0,0.0,0.0,0.0,0.0,0.0,0.0,0.0,0.0,0.0,-6.3079,-6.3079,-6.3079,-6.3079,-6.3079,-6.3079,-6.3079,-6.3079,-6.3079,-6.3079,-6.3079,-6.3079,-6.3079,-6.3079,-6.3079,-6.281,-6.2301,-6.2281,-6.1931,-6.1315,-6.1294,-6.1202,-6.108,-6.1077,-6.1202,-6.1262,-6.1322,-6.1241,-6.1104,-6.1104,-6.1104,-6.1104,-6.1104,-6.1104,-6.1104,-6.1104,-6.1104,-6.1104,-6.1104,-6.1104,-6.1134,-6.1283,-6.138,-6.1479,-6.149,-6.1521,-6.1432,-6.1308,-6.1306,-6.1297,-6.1137,-6.0681,-6.0335,-6.0475,-6.0835,-6.0954,-6.0386,-6.0296,-6.0116,-5.9578,-5.9488,-5.9488,-5.9488,-5.9488,-5.9488,-5.9488,-5.9368,-5.9308,-5.9308,-5.9189,-5.9099,-5.9099,-5.9099,-5.9099,-5.9099,-5.9099,-5.9099,-5.9099,-5.9099,-5.9099,-5.9099,-5.9099,-5.9099,-5.9099,-5.9099,-5.9099,-5.9099,-5.9099,-5.9099,-5.9099,-5.9099,0.0,0.0,0.0,0.0,0.0,0.0,0.0,0.0,0.0,0.0,0.0,0.0,0.0,0.0,0.0,0.0,0.0,0.0,0.0,0.0,0.0,-6.2241,-6.257,-6.26,-6.272,-6.3049,-6.3079,-6.3079,-6.3079,-6.3079,-6.3079,-6.3079,-6.275,-6.26,-6.26,-6.2241,-6.1915,-6.1619,-6.1622,-6.1243,-6.063,-6.057,-6.0421,-6.0078,-6.0096,-6.0131,-6.0161,-6.0491,-6.0436,-6.0116,-6.0116,-6.0116,-6.0116,-6.0116,-6.0116,-6.0116,-6.0116,-6.0116,-6.0116,-6.0116,-6.0356,-6.0595,-6.0595,-6.0839,-6.1115,-6.1124,-6.1088,-6.1044,-6.0667,-6.0606,-6.0542,-6.0186,-5.9872,-5.9613,-5.9608,-5.9877,-5.9997,-5.9668,-5.9608,-5.9488,-5.9159,-5.9099,-5.9099,-5.9099,-5.9099,-5.9099,-5.9099,-5.9099,-5.9099,-5.9099,-5.9099,-5.9099,-5.9099,-5.9099,-5.9099,-5.9099,-5.9099,-5.9099,-5.9099,-5.9099,-5.9099,-5.9099,-5.9099,-5.9099,-5.9099,-5.9099,-5.9099,-5.9099,-5.9099,-5.9099,-5.9099,-5.9099,-5.9099,0.0,0.0,0.0,0.0,0.0,0.0,0.0,0.0,0.0,0.0,0.0,0.0,0.0,0.0,0.0,0.0,0.0,0.0,0.0,0.0,-6.1343,-6.1882,-6.1912,-6.2121,-6.266,-6.269,-6.269,-6.269,-6.269,-6.269,-6.269,-6.2181,-6.1912,-6.1912,-6.1373,-6.1022,-6.0909,-6.0932,-6.0548,-5.9904,-5.9897,-5.9615,-5.9099,-5.9099,-5.9099,-5.9159,-5.9697,-5.9578,-5.9099,-5.9099,-5.9099,-5.9099,-5.9099,-5.9099,-5.9099,-5.9099,-5.9099,-5.9099,-5.9099,-5.9488,-5.9907,-5.9907,-6.0296,-6.0715,-6.0715,-6.0716,-6.0566,-6.0048,-5.9904,-5.9759,-5.9243,-5.9099,-5.9099,-5.9099,-5.9099,-5.9099,-5.9099,-5.9099,-5.9099,-5.9099,-5.9099,-5.9099,-5.9099,-5.9099,-5.9099,-5.9099,-5.9099,-5.9099,-5.9099,-5.9099,-5.9099,-5.9099,-5.9099,-5.9099,-5.9099,-5.9099,-5.9099,-5.9099,-5.9099,-5.9099,-5.9099,-5.9099,-5.9099,-5.9099,-5.9099,-5.9099,-5.9099,-5.9099,-5.9099,-5.9099,-5.9099,-5.9099,-5.9099,0.0,-5.9099,-5.9099,0.0,0.0,0.0,0.0,0.0,0.0,0.0,0.0,0.0,0.0,0.0,0.0,0.0,0.0,0.0,0.0,0.0,-6.1224,-6.1224,-6.1253,-6.1343,-6.1343,-6.1343,-6.1343,-6.1343,-6.1343,-6.1343,-6.1253,-6.1224,-6.1224,-6.1164,-6.0809,-6.019,-6.0172,-5.984,-5.9194,-5.9189,-5.9159,-5.9099,-5.9099,-5.9099,-5.9129,-5.9189,-5.9159,-5.9099,-5.9099,-5.9099,-5.9099,-5.9099,-5.9099,-5.9099,-5.9099,-5.9099,-5.9099,-5.9099,-5.9159,-5.9219,-5.9219,-5.9279,-5.9338,-5.9338,-5.9333,-5.9327,-5.9243,-5.9213,-5.9213,-5.9129,-5.9099,-5.9099,-5.9099,-5.9099,-5.9099,-5.9099,-5.9099,-5.9099,-5.9099,-5.9099,-5.9099,-5.9099,-5.9099,-5.9099,-5.9099,-5.9099,-5.9099,-5.9099,-5.9099,-5.9099,-5.9099,-5.9099,-5.9099,-5.9099,-5.9099,-5.9099,-5.9099,-5.9099,-5.9099,-5.9099,-5.9099,-5.9099,-5.9099,-5.9099,-5.9099,-5.9099,-5.9099,-5.9099,-5.9099,-5.9099,-5.9099,-5.9099,-5.9099,-5.9099,-5.9099,0.0,0.0,0.0,0.0,0.0,0.0,-5.9099,0.0,0.0,0.0,0.0,0.0,0.0,0.0,0.0,0.0,0.0,0.0,0.0,-6.0685,-6.1104,-6.1104,-6.1104,-6.1104,-6.1104,-6.1104,-6.1104,-6.0715,-6.0505,-6.0505,-6.0146,-5.9762,-5.9523,-5.9503,-5.9379,-5.9099,-5.9099,-5.9099,-5.9099,-5.9099,-5.9099,-5.9099,-5.9099,-5.9099,-5.9099,-5.9099,-5.9099,-5.9099,-5.9099,-5.9099,-5.9099,-5.9099,-5.9099,-5.9099,-5.9099,-5.9099,-5.9099,-5.9099,-5.9099,-5.9099,-5.9099,-5.9099,-5.9099,-5.9099,-5.9099,-5.9099,-5.9099,-5.9099,-5.9099,-5.9099,-5.9099,-5.9099,-5.9099,-5.9099,-5.9099,-5.9099,-5.9099,-5.9099,-5.9099,-5.9099,-5.9099,-5.9099,-5.9099,-5.9099,-5.9099,-5.9099,-5.9099,-5.9099,-5.9099,-5.9099,-5.9099,-5.9099,-5.9099,-5.9099,-5.9099,-5.9099,-5.9099,-5.9099,-5.9099,-5.9099,-5.9099,-5.9099,-5.9099,-5.9099,-5.9099,-5.9099,-5.9099,-5.9099,-5.9099,-5.9099,-5.9099,-5.9099,-5.9099,0.0,0.0,0.0,-5.9099,-5.9099,0.0,-5.9099,0.0,0.0,0.0,0.0,0.0,0.0,0.0,0.0,0.0,0.0,-5.9817,0.0,-6.0535,-6.0565,-6.0565,-6.0565,-6.0565,-6.0565,-6.0565,-6.0057,-5.9817,-5.9817,-5.9338,-5.9099,-5.9099,-5.9099,-5.9099,-5.9099,-5.9099,-5.9099,-5.9099,-5.9099,-5.9099,-5.9099,-5.9099,-5.9099,-5.9099,-5.9099,-5.9099,-5.9099,-5.9099,-5.9099,-5.9099,-5.9099,-5.9099,-5.9099,-5.9099,-5.9099,-5.9099,-5.9099,-5.9099,-5.9099,-5.9099,-5.9099,-5.9099,-5.9099,-5.9099,-5.9099,-5.9099,-5.9099,-5.9099,-5.9099,-5.9099,-5.9099,-5.9099,-5.9099,-5.9099,-5.9099,-5.9099,-5.9099,-5.9099,-5.9099,-5.9099,-5.9099,-5.9099,-5.9099,-5.9099,-5.9099,-5.9099,-5.9099,-5.9099,-5.9099,-5.9099,-5.9099,-5.9099,-5.9099,-5.9099,-5.9099,-5.9099,-5.9099,-5.9099,-5.9099,-5.9099,-5.9099,-5.9099,0.0,-5.9099,-5.9099,-5.9099,-5.9099,-5.9099,-5.9099,-5.9099,-5.9099,-5.9099,-5.9099,-5.9099,-5.9099,-5.9099,-5.9099,-5.9099,0.0,0.0,-5.9099,0.0,0.0,0.0,0.0,0.0,0.0,0.0,0.0,-5.9129,0.0,-5.9159,-5.9159,-5.9159,-5.9159,-5.9159,-5.9159,-5.9159,-5.9159,-5.9129,-5.9129,-5.9129,-5.9099,-5.9099,-5.9099,-5.9099,-5.9099,-5.9099,-5.9099,-5.9099,-5.9099,-5.9099,-5.9099,-5.9099,-5.9099,-5.9099,-5.9099,-5.9099,-5.9099,-5.9099,-5.9099,-5.9099,-5.9099,-5.9099,-5.9099,-5.9099,-5.9099,-5.9099,-5.9099,-5.9099,-5.9099,-5.9099,-5.9099,-5.9099,-5.9099,-5.9099,-5.9099,-5.9099,-5.9099,-5.9099,-5.9099,-5.9099,-5.9099,-5.9099,-5.9099,-5.9099,-5.9099,-5.9099,-5.9099,-5.9099,-5.9099,-5.9099,-5.9099,-5.9099,-5.9099,-5.9099,-5.9099,-5.9099,-5.9099,-5.9099,-5.9099,-5.9099,-5.9099,-5.9099,-5.9099,-5.9099,-5.9099,-5.9099,-5.9099,-5.9099,-5.9099,-5.9099,-5.9099,0.0,0.0,-5.9099,-5.9099,0.0,0.0,-5.9099,-5.9099,-5.9099,-5.9099,-5.9099,-5.9099,-5.9099,-5.9099,-5.9099,-5.9099,-5.9099,-5.9099,0.0,-5.9099,0.0,0.0,0.0,0.0,0.0,0.0,0.0,-5.9099,-5.9099,-5.9099,0.0,-5.9099,-5.9099,-5.9099,-5.9099,-5.9099,-5.9099,-5.9099,-5.9099,-5.9099,-5.9099,-5.9099,-5.9099,-5.9099,-5.9099,-5.9099,-5.9099,-5.9099,-5.9099,-5.9099,-5.9099,-5.9099,-5.9099,-5.9099,-5.9099,-5.9099,-5.9099,-5.9099,-5.9099,-5.9099,-5.9099,-5.9099,-5.9099,-5.9099,-5.9099,-5.9099,-5.9099,-5.9099,-5.9099,-5.9099,-5.9099,-5.9099,-5.9099,-5.9099,-5.9099,-5.9099,-5.9099,-5.9099,-5.9099,-5.9099,-5.9099,-5.9099,-5.9099,-5.9099,-5.9099,-5.9099,-5.9099,-5.9099,-5.9099,-5.9099,-5.9099,-5.9099,-5.9099,-5.9099,-5.9099,-5.9099,-5.9099,-5.9099,-5.9099,-5.9099,-5.9099,-5.9099,-5.9099,-5.9099,-5.9099,-5.9099,-5.9099,-5.9099,-5.9099,-5.9099,-5.9099,-5.9099,-5.9099,-5.9099,0.0,-5.9099,-5.9099,0.0,-5.9099,-5.9099,-5.9099,-5.9099,-5.9099,-5.9099,-5.9099,-5.9099,-5.9099,-5.9099,-5.9099,-5.9099,0.0,-5.9099,-5.9099,0.0,0.0,-5.9099,0.0,0.0,0.0,-5.9099,-5.9099,-5.9099,0.0,0.0,-5.9099,-5.9099,-5.9099,-5.9099,-5.9099,-5.9099,-5.9099,-5.9099,-5.9099,-5.9099,-5.9099,-5.9099,-5.9099,-5.9099,-5.9099,-5.9099,-5.9099,-5.9099,-5.9099,-5.9099,-5.9099,-5.9099,-5.9099,-5.9099,-5.9099,-5.9099,-5.9099,-5.9099,-5.9099,-5.9099,-5.9099,-5.9099,-5.9099,-5.9099,-5.9099,-5.9099,-5.9099,-5.9099,-5.9099,-5.9099,-5.9099,-5.9099,-5.9099,-5.9099,-5.9099,-5.9099,-5.9099,-5.9099,-5.9099,-5.9099,-5.9099,-5.9099,-5.9099,-5.9099,-5.9099,-5.9099,-5.9099,-5.9099,-5.9099,-5.9099,-5.9099,-5.9099,-5.9099,-5.9099,-5.9099,-5.9099,-5.9099,-5.9099,-5.9099,-5.9099,-5.9099,-5.9099,-5.9099,-5.9099,-5.9099,-5.9099,-5.9099,-5.9099,-5.9099,-5.9099]}]]